GEFSCGP_500_meanwind_000.txt.gz
Wind_Speed
35 37 41 43 43 42 43 43 41 38 36 33 31 28 25 24 21 17 17 19 22 23 22 21 20 22 21 21 22 24 24 25 26 24 23 23 23 18 24 21 22 24 23 21
33 30 29 34 39 41 40 41 39 34 32 31 31 30 29 27 25 22 20 21 24 25 24 22 22 22 22 23 25 26 26 26 26 26 26 25 24 23 25 24 22 23 23 23
33 32 28 25 22 23 24 27 32 31 27 25 26 25 27 25 26 26 24 22 23 25 25 24 23 21 24 26 28 29 29 29 29 28 29 28 27 28 29 31 30 28 26 25
28 36 34 26 21 22 23 24 27 28 28 30 30 28 27 26 26 26 25 23 22 25 25 25 25 24 26 27 28 29 30 30 31 31 31 30 30 31 32 33 33 31 29 28
24 23 21 21 25 27 25 24 25 30 31 33 30 30 25 26 30 28 26 25 25 25 26 27 27 26 27 28 29 31 32 32 32 32 33 33 33 33 33 31 31 31 28 27
24 23 23 24 26 26 26 27 28 29 27 33 25 25 23 20 21 22 25 25 25 26 27 27 26 26 27 29 31 32 32 31 31 33 34 34 35 34 32 28 26 25 23 24
23 26 28 28 29 28 28 28 25 25 29 28 25 26 24 23 22 23 24 25 25 25 25 24 24 26 27 30 31 31 31 31 31 31 31 31 32 32 29 25 22 20 19 21
23 25 28 29 30 30 27 26 25 27 30 31 27 25 25 27 27 24 22 23 22 22 21 22 24 26 29 31 32 32 31 31 30 30 28 27 26 26 24 20 17 16 15 14
23 23 24 25 26 27 28 27 28 30 33 32 30 27 25 26 26 21 18 18 18 18 20 23 25 27 29 30 29 30 29 30 29 27 27 25 23 21 20 17 15 14 12 12
25 23 22 23 22 22 25 27 28 28 31 31 31 33 27 22 22 20 19 19 19 22 24 27 29 29 29 28 28 26 24 27 27 26 25 25 22 21 19 16 14 14 13 13
25 24 22 20 22 21 23 24 26 27 29 30 28 29 27 20 19 19 21 24 26 27 26 27 27 26 26 26 27 24 25 27 27 24 23 22 21 19 18 16 13 12 13 14
25 24 24 23 23 23 23 25 26 28 27 28 28 26 22 17 17 20 23 27 29 29 27 28 25 23 24 25 26 26 28 28 27 23 21 20 19 19 19 18 15 13 13 15
26 23 23 21 24 23 23 24 24 29 33 33 32 25 24 20 21 22 26 30 30 26 27 27 24 24 26 27 26 27 27 28 28 23 20 19 18 19 21 21 20 18 17 17
26 23 23 21 20 20 21 25 27 30 34 35 35 33 31 28 29 31 30 30 29 26 26 25 22 23 26 27 29 30 29 29 27 23 21 19 20 21 22 24 24 23 22 21
27 27 26 23 21 20 18 17 19 19 24 32 34 33 33 31 35 35 34 34 28 24 27 25 23 23 25 29 30 29 29 27 23 22 21 20 21 20 21 22 23 24 23 23
25 23 24 22 22 21 18 20 20 18 15 21 27 29 31 32 33 35 35 35 30 27 30 29 29 30 27 23 23 24 24 20 21 21 23 24 21 19 18 18 19 21 23 23
22 20 20 20 21 20 17 18 17 17 15 13 18 23 25 28 27 25 25 30 34 35 34 34 31 28 23 19 18 18 17 22 23 20 23 23 21 22 22 21 22 22 23 24
20 18 15 15 20 15 16 16 10 8 7 8 12 15 18 19 17 17 19 21 24 26 27 26 24 21 19 18 18 18 18 22 20 16 21 22 23 25 27 27 25 24 24 25
20 12 8 9 11 12 14 14 10 7 5 3 4 8 9 4 7 9 11 12 14 15 14 11 11 11 13 17 19 19 17 17 18 19 22 25 27 28 27 26 25 25 25 25
22 11 9 11 13 13 14 15 14 9 11 7 8 1 4 3 6 6 6 6 6 4 4 4 7 10 14 17 17 16 17 18 19 22 25 26 26 26 24 23 23 24 24 25
21 14 14 13 16 19 12 16 17 16 17 13 10 6 4 4 6 7 7 6 5 5 6 7 10 12 15 15 15 16 17 18 20 22 23 24 24 23 21 21 21 22 22 24
21 15 15 15 16 18 16 17 22 23 21 19 14 9 7 6 6 5 6 6 7 8 10 11 12 12 12 12 14 14 16 18 19 21 21 21 21 20 19 19 20 21 23 25
20 10 13 16 19 19 17 21 25 24 24 21 14 11 9 6 3 2 3 4 7 9 12 14 12 10 11 11 11 14 16 17 18 19 19 17 16 16 16 16 18 21 24 27
24 12 10 16 22 22 17 24 27 26 22 19 13 11 10 6 2 2 1 4 7 11 12 11 10 9 9 10 13 14 16 17 16 16 15 13 12 13 14 15 18 21 24 27
26 16 5 14 23 22 17 29 30 24 24 22 15 12 10 5 2 1 2 5 9 12 11 10 9 8 9 11 13 14 15 15 15 14 13 12 12 12 13 14 17 21 23 24
26 15 5 9 19 22 16 21 30 29 29 23 15 12 9 4 2 1 4 6 9 12 13 12 10 9 8 10 11 12 13 14 14 12 12 11 11 11 11 11 14 17 18 18

GEFSCGP_500_meanwind_006.txt.gz
Wind_Speed
29 31 34 36 37 37 39 41 43 42 45 43 38 33 33 36 36 34 29 27 26 25 25 23 22 21 20 19 19 18 17 18 19 20 21 22 24 24 24 26 26 25 25 23
25 30 34 35 36 35 37 39 42 46 50 51 48 45 43 42 39 37 34 31 29 29 30 25 21 20 19 19 19 19 19 20 21 21 22 23 24 25 25 26 27 27 27 27
25 28 30 30 31 30 31 33 36 37 41 50 53 52 50 44 39 37 35 32 30 30 33 28 23 21 20 19 19 19 20 22 22 23 25 25 24 25 26 27 29 30 30 31
26 28 31 30 30 30 30 31 31 32 30 30 32 35 35 38 33 30 31 29 28 29 33 31 26 24 21 20 20 20 20 22 23 24 25 25 24 26 29 30 31 33 34 34
24 28 30 30 30 31 30 29 28 27 29 30 29 27 22 22 23 24 24 25 28 32 33 31 28 26 23 22 21 20 20 21 23 24 25 26 28 31 32 32 32 33 34 33
21 23 26 26 27 31 30 29 27 26 27 28 26 27 25 23 21 22 23 24 27 30 32 31 28 26 24 22 20 20 21 22 23 25 26 28 30 32 33 32 31 31 31 30
19 20 26 27 25 25 26 26 26 25 23 23 23 25 25 25 21 19 20 22 25 26 28 28 25 25 23 20 18 20 21 23 25 27 28 28 30 31 31 30 29 29 28 25
23 19 24 27 25 20 21 23 24 25 21 16 13 16 20 25 26 24 23 23 22 22 23 21 20 19 16 15 18 21 23 24 27 28 27 27 28 28 27 27 27 27 25 22
25 23 23 26 26 22 17 19 20 24 25 24 20 17 19 22 25 26 27 27 24 18 14 13 13 12 14 18 21 23 24 25 26 26 25 25 26 26 26 25 26 25 22 20
30 30 24 26 27 25 23 22 21 21 21 20 19 19 19 15 13 14 14 16 17 15 13 14 13 14 18 20 23 24 24 24 24 24 25 25 24 24 23 23 22 22 20 18
34 34 27 21 21 22 23 23 24 23 23 21 19 18 19 16 14 11 14 18 17 17 17 17 16 17 19 20 22 23 23 23 23 25 24 23 23 24 24 22 19 18 18 17
38 36 30 20 21 22 21 22 23 22 21 20 22 19 19 15 13 16 18 18 21 21 20 20 21 21 19 20 22 22 22 23 24 25 26 26 26 26 25 21 18 17 17 17
40 37 29 18 20 24 24 29 30 28 25 24 26 27 29 27 26 23 22 20 21 19 18 18 19 18 19 21 22 22 22 23 25 28 29 29 28 27 24 20 18 17 17 18
38 34 26 20 17 15 12 16 22 23 22 23 27 28 31 31 31 26 18 14 14 16 17 17 16 16 18 21 22 23 26 28 28 29 29 29 26 23 20 18 17 17 18 19
35 30 23 18 18 15 12 11 12 14 16 19 20 23 26 28 30 30 27 22 19 21 21 21 20 19 20 22 22 24 27 29 29 26 26 26 23 19 17 18 19 19 18 18
31 25 19 12 13 11 14 14 12 13 13 13 12 12 14 17 20 22 24 24 24 25 25 25 24 23 23 23 23 25 26 26 25 23 23 24 23 21 20 21 21 22 21 20
29 21 15 6 6 10 12 11 10 10 9 6 4 4 4 7 11 15 18 21 23 24 24 22 23 23 23 23 23 23 22 21 21 21 21 21 22 22 22 23 23 23 23 24
29 18 9 3 5 6 7 6 7 7 4 2 2 2 2 3 5 6 9 11 14 15 15 15 16 17 18 18 17 16 16 17 18 19 20 20 20 21 22 22 22 23 24 24
30 18 5 4 8 3 7 8 9 9 5 2 1 2 2 6 10 8 6 5 5 4 5 6 7 8 10 10 11 13 15 17 19 20 21 21 21 21 22 23 23 24 24 24
30 16 4 5 9 6 4 6 7 8 7 4 4 6 6 6 7 7 7 7 6 5 3 1 2 4 7 9 12 15 17 19 20 22 22 22 22 23 23 23 22 21 20 20
30 14 1 5 8 6 3 3 5 7 8 7 4 5 7 6 6 5 5 6 6 5 3 3 5 7 10 13 15 16 17 18 20 21 22 22 22 22 21 19 18 17 16 17
32 16 4 5 6 5 4 2 3 5 7 6 3 5 7 8 8 6 4 3 3 3 4 6 8 11 13 13 14 15 16 18 20 21 21 21 20 20 18 17 16 15 15 17
33 18 8 3 4 3 3 2 1 4 5 4 2 5 8 9 8 6 4 4 4 4 6 8 10 11 12 13 13 15 17 18 20 20 20 20 19 19 17 17 16 15 16 19
35 21 12 6 4 2 0 1 2 3 5 4 1 5 8 8 8 6 5 4 5 6 8 9 10 10 11 12 13 15 16 17 18 20 21 20 18 17 15 14 14 14 16 19
39 24 15 9 5 3 3 4 3 3 3 1 2 5 7 7 7 6 5 6 7 9 10 11 11 10 11 12 13 15 16 18 19 21 22 21 18 15 13 12 12 14 17 19
45 32 18 10 5 3 4 4 2 2 2 1 2 4 5 6 6 7 6 7 9 11 11 11 10 10 11 13 14 16 18 20 21 22 22 20 17 14 12 11 13 14 16 17

GEFSCGP_500_meanwind_012.txt.gz
Wind_Speed
21 24 27 29 31 33 35 37 39 40 41 41 41 40 38 39 39 37 38 38 38 36 33 30 27 24 22 19 19 20 20 20 20 19 17 16 15 15 15 15 14 14 15 16
17 22 24 27 29 32 34 37 39 40 41 42 41 40 38 38 38 39 39 40 40 38 36 34 31 27 24 21 20 21 21 21 21 20 18 16 15 14 14 14 14 15 16 18
16 20 23 26 29 33 35 37 39 41 42 43 42 39 36 36 37 37 37 38 40 40 39 39 34 29 26 23 22 22 22 22 22 21 19 16 15 14 14 15 17 18 20 21
13 17 21 24 27 31 34 36 39 41 41 41 41 40 32 33 33 32 30 32 36 40 41 40 36 31 27 26 25 24 23 22 22 21 18 17 15 15 15 17 19 21 22 23
12 16 20 23 26 28 30 31 34 36 38 39 38 39 32 32 31 30 28 28 30 36 40 39 35 31 28 29 29 26 24 22 21 20 17 17 16 17 19 20 22 23 23 24
17 22 25 28 31 32 33 32 31 30 31 31 30 32 30 31 31 30 28 26 26 29 36 37 35 32 33 35 32 26 24 22 21 18 16 16 17 19 21 22 23 24 24 23
19 25 29 32 34 35 35 34 32 30 27 25 23 24 27 28 29 28 26 23 21 23 27 31 34 36 36 35 30 24 22 20 18 16 15 16 18 21 22 23 24 24 24 23
24 27 32 36 38 38 36 34 32 31 28 22 21 22 22 22 22 21 19 17 18 18 20 25 29 31 33 33 28 23 19 16 15 15 16 18 20 22 22 23 24 24 24 24
32 33 37 41 43 42 38 33 31 30 29 24 22 23 23 21 17 16 15 16 17 18 19 22 25 26 27 27 24 18 14 12 13 16 18 20 21 22 23 24 24 24 24 23
40 43 44 45 43 41 37 31 29 28 26 22 20 21 23 21 20 18 18 18 18 20 22 24 25 25 22 20 18 14 11 11 14 17 20 21 22 22 23 24 24 24 23 22
46 48 47 44 39 32 28 27 26 25 23 21 18 17 19 19 20 19 19 19 20 20 22 23 23 21 18 16 12 10 10 12 15 18 20 21 22 23 24 26 25 24 22 21
48 45 40 34 25 20 18 19 21 22 20 20 18 17 15 14 14 16 17 16 15 15 15 14 14 12 10 8 8 9 11 14 17 20 22 23 25 25 25 24 24 22 20 19
43 37 28 19 13 10 9 10 13 15 15 15 16 16 14 13 12 13 11 9 8 7 7 7 7 5 4 5 6 10 12 16 19 21 24 25 25 23 22 22 21 20 18 17
35 28 21 14 6 2 1 0 5 8 11 12 14 12 11 11 11 11 9 7 5 5 5 6 7 6 6 7 9 12 15 17 19 22 24 25 23 19 18 19 19 18 18 18
27 20 16 9 4 4 6 6 8 9 10 9 8 9 9 9 9 9 8 7 8 8 8 8 9 9 10 11 14 16 17 19 21 22 24 24 19 17 16 17 18 19 20 20
22 17 14 9 7 9 11 12 10 8 5 3 2 2 3 4 5 5 6 7 9 10 11 11 11 12 14 17 18 19 19 20 20 21 22 20 19 17 16 17 19 19 19 19
23 20 17 14 14 14 14 13 12 10 8 6 5 4 3 2 1 1 2 3 5 7 9 11 13 14 15 17 18 18 17 17 18 18 18 18 18 18 19 20 20 20 21 21
27 25 23 20 18 16 15 14 14 14 12 10 9 8 7 7 6 4 3 3 4 5 6 7 8 9 10 12 13 13 13 14 15 16 17 19 20 20 20 20 21 21 22 22
30 28 26 23 20 18 17 16 16 16 15 14 13 12 12 12 11 10 8 5 3 3 2 2 3 5 7 8 9 11 12 13 15 16 17 18 19 19 20 20 21 21 22 22
29 27 26 24 21 20 18 17 16 16 16 15 14 13 13 12 11 10 10 8 6 5 4 2 1 3 5 7 9 11 13 14 15 16 16 17 18 19 19 20 20 21 21 21
27 25 25 23 21 20 17 16 15 15 15 14 13 13 12 11 11 11 10 9 7 5 3 3 4 6 8 9 11 12 14 15 15 16 17 17 18 19 19 20 20 20 20 20
24 22 21 19 18 16 14 13 12 11 12 12 11 11 11 11 11 10 9 8 7 6 5 6 7 8 10 11 12 14 15 16 16 17 18 18 19 20 19 19 18 18 18 18
22 19 17 16 14 13 11 10 9 8 8 9 9 9 10 11 10 10 9 8 8 8 9 9 10 11 11 12 13 14 16 17 18 19 19 20 20 19 18 17 16 15 15 17
23 18 14 12 10 8 7 6 5 4 5 6 7 8 9 9 9 8 8 8 9 10 11 11 11 12 13 13 14 15 16 18 19 19 19 19 18 17 16 15 14 15 16 17
27 21 16 11 8 6 4 3 3 3 3 4 5 5 7 7 7 7 7 9 10 11 11 12 13 14 14 15 15 16 17 17 17 17 16 15 14 14 13 13 13 14 16 18
29 26 21 14 9 6 5 3 2 2 2 3 3 3 4 4 5 6 7 9 10 11 12 13 15 16 16 16 17 18 18 17 16 15 15 14 14 13 12 11 12 14 16 17

GEFSCGP_500_meanwind_018.txt.gz
Wind_Speed
22 25 28 30 31 33 35 37 37 38 40 41 41 40 40 43 44 43 42 41 39 36 33 32 29 28 28 28 27 27 25 24 23 22 21 21 20 20 19 19 19 19 19 20
20 23 25 27 29 31 33 35 37 38 40 41 41 41 42 44 46 46 46 45 43 40 37 35 33 31 30 29 28 28 28 26 25 24 23 22 22 21 21 20 20 20 20 20
19 21 24 26 29 31 33 35 36 38 39 39 40 40 41 44 46 47 47 46 45 43 40 38 36 34 33 32 31 30 31 30 28 27 26 25 25 24 23 22 21 21 21 21
20 22 25 27 30 31 33 33 34 35 35 36 37 39 38 40 42 45 46 45 45 43 41 39 37 36 36 35 34 34 34 34 33 32 30 29 27 26 24 23 23 22 23 23
23 26 29 31 33 35 37 36 36 36 36 37 36 38 37 36 37 39 42 43 43 42 40 38 37 37 38 39 39 39 38 38 37 35 34 31 28 26 25 24 24 24 24 24
30 33 35 37 39 40 41 41 41 40 40 39 36 36 37 35 35 34 35 37 38 39 38 37 37 37 39 41 43 43 42 42 40 37 34 30 27 25 23 23 23 23 23 23
36 40 42 44 45 45 45 45 45 45 43 41 37 36 36 33 31 30 29 30 32 35 36 37 38 38 39 41 44 44 46 45 43 41 35 29 25 22 21 22 22 23 23 23
42 45 48 49 49 48 46 45 44 43 42 39 36 34 33 30 28 26 26 26 28 31 33 36 37 38 38 39 43 44 46 47 45 39 31 26 21 18 19 20 21 22 23 24
46 47 48 47 46 45 43 41 39 37 36 33 30 29 28 26 25 24 24 25 26 28 30 33 34 35 36 37 39 40 42 45 41 34 27 21 18 17 17 19 20 23 24 26
42 39 38 37 35 33 30 26 23 23 22 21 21 21 21 20 20 20 20 21 23 25 27 29 29 30 32 34 36 37 36 36 33 27 21 17 16 16 18 20 22 23 26 28
34 31 28 25 21 18 14 12 11 11 13 13 14 13 12 12 13 14 15 15 16 18 22 23 24 23 23 22 22 23 21 19 17 15 14 13 14 16 19 21 23 25 27 28
29 25 24 21 18 15 12 8 4 0 3 6 7 7 4 4 4 5 6 7 9 11 12 12 13 13 10 6 9 11 10 9 9 9 10 11 14 17 19 22 24 25 26 26
28 26 23 21 20 19 17 13 9 8 6 4 4 3 2 0 1 2 1 2 1 3 4 3 3 2 4 7 9 9 6 4 5 8 10 13 16 19 21 22 23 23 23 22
30 28 27 25 24 21 20 16 14 12 10 8 6 5 4 2 2 2 3 4 5 4 4 4 4 5 6 6 6 5 3 5 8 11 13 15 17 19 20 20 20 19 19 19
30 29 28 26 25 23 22 19 16 14 13 10 8 8 7 6 5 5 5 5 6 6 6 6 4 4 4 4 3 3 6 8 11 13 15 16 18 18 17 17 16 15 17 18
29 28 27 26 25 24 22 20 17 14 13 12 11 10 9 8 6 6 6 6 5 5 5 4 2 1 2 3 4 6 8 11 13 14 15 16 17 16 16 16 17 17 18 19
27 27 26 25 23 23 22 20 17 15 14 14 13 13 12 10 9 8 7 5 5 4 3 1 1 2 4 5 7 8 10 11 12 13 14 15 15 16 17 18 18 19 20 20
25 26 25 24 22 22 22 20 18 16 16 16 15 15 14 12 10 10 9 9 8 7 6 4 3 3 4 6 7 8 8 10 11 12 13 15 17 18 19 19 20 20 21 21
23 23 23 22 21 20 20 19 17 16 15 15 15 15 14 14 13 13 12 12 11 10 9 7 6 6 6 6 7 8 9 10 12 13 15 17 18 19 20 20 20 21 21 22
22 21 20 20 19 17 17 17 16 15 14 13 13 13 13 14 14 13 13 13 12 11 10 9 8 7 7 7 8 9 10 12 13 15 16 18 19 20 21 21 22 22 22 22
23 21 19 18 16 15 14 14 14 13 13 12 12 12 13 13 13 12 12 12 11 10 10 9 9 9 9 9 10 10 12 13 14 16 17 19 20 20 21 22 22 22 21 21
27 23 21 18 15 14 13 11 12 11 10 11 11 11 11 11 11 11 11 11 11 11 10 10 11 11 11 12 12 13 14 15 16 17 18 19 20 20 20 20 20 19 19 19
30 28 24 20 16 14 12 10 9 8 7 8 9 9 9 9 9 9 10 11 11 12 12 13 13 13 14 15 16 17 17 17 17 17 18 18 18 18 17 17 17 16 16 16
31 32 29 23 18 15 12 9 8 7 5 5 6 6 6 6 7 8 9 10 12 13 14 14 14 15 15 16 17 18 18 18 17 17 17 17 16 16 16 15 15 14 14 15
30 33 32 28 23 17 13 9 7 5 4 3 4 4 5 6 6 7 9 10 11 13 14 14 15 15 16 16 17 17 17 17 17 17 17 16 16 16 15 14 14 14 14 14
27 31 32 30 27 22 16 10 6 5 4 3 4 4 5 5 6 7 8 9 11 12 13 14 15 15 16 16 16 16 16 17 17 18 18 17 17 16 16 16 15 15 15 15

GEFSCGP_500_meanwind_024.txt.gz
Wind_Speed
23 25 28 30 31 34 36 37 38 40 41 41 42 43 43 43 42 41 40 39 38 37 37 36 36 36 35 33 32 31 30 30 29 28 28 27 25 25 25 25 26 26 26 25
22 25 27 30 32 35 37 38 40 42 42 42 43 44 44 43 43 42 41 40 39 39 39 38 38 39 38 38 37 35 34 34 33 32 32 31 29 28 28 29 29 29 29 28
23 26 29 32 35 37 39 40 41 42 42 42 42 43 42 41 41 40 39 37 37 36 37 37 38 39 40 40 40 40 38 37 36 36 36 35 33 33 32 32 33 32 31 30
25 28 31 35 37 39 42 43 43 43 43 41 41 40 41 38 37 36 35 34 33 32 33 35 36 38 39 41 42 42 41 40 40 40 40 39 38 38 37 36 35 34 33 31
29 31 34 37 40 41 44 45 45 45 44 43 41 40 40 37 35 35 34 33 33 33 33 33 35 37 39 41 42 44 44 44 42 42 42 42 42 42 40 38 36 34 33 32
28 30 32 35 38 40 41 42 43 43 42 43 40 38 39 38 36 35 35 35 35 34 34 34 35 37 38 40 42 44 44 45 44 44 44 44 44 44 43 41 38 35 34 33
28 28 29 31 32 34 35 35 35 34 34 35 36 36 39 38 36 35 35 35 35 35 35 36 37 37 38 39 41 42 43 44 44 44 45 46 45 46 47 44 40 36 34 32
26 27 28 28 27 27 26 24 23 23 22 24 26 29 31 31 32 33 33 33 33 33 34 35 35 35 35 36 37 39 41 42 42 42 43 45 47 47 46 44 41 36 33 30
26 27 28 26 24 23 20 16 13 12 14 17 18 21 23 23 24 25 25 26 26 27 27 28 29 30 30 30 32 35 37 38 39 40 42 42 42 43 45 43 37 34 30 25
26 27 27 26 25 23 20 15 10 5 2 5 9 12 12 13 14 15 15 15 16 17 18 19 20 22 22 23 25 28 31 33 34 35 37 38 40 39 37 34 29 26 22 18
27 28 27 26 25 24 21 16 13 9 5 3 2 2 3 4 5 7 7 8 8 8 10 10 11 13 15 17 19 21 23 25 27 28 29 30 30 27 24 20 17 15 14 15
28 28 28 27 25 24 22 20 17 13 9 7 5 4 3 2 3 3 4 5 5 4 4 4 4 5 7 9 10 9 11 12 12 13 14 13 12 12 11 10 9 10 10 13
29 28 27 26 26 24 22 20 19 16 14 11 9 7 5 5 5 5 7 7 8 9 8 7 6 5 4 4 3 4 5 5 5 5 5 6 5 4 4 5 6 8 10 13
28 27 27 26 24 23 21 20 18 17 15 13 11 9 7 6 6 7 8 8 9 10 10 10 10 9 9 8 8 8 8 6 5 5 4 2 1 1 3 5 7 8 10 12
27 27 27 26 24 22 21 19 18 16 15 14 13 12 11 10 9 9 10 9 10 11 11 10 10 10 10 9 8 8 7 6 5 4 3 3 3 4 5 6 7 9 11 12
26 25 26 25 24 22 20 19 18 18 17 16 15 14 13 13 13 11 10 10 10 10 10 10 10 10 9 8 8 7 6 6 6 5 5 5 5 6 7 8 9 11 13 15
26 24 24 24 23 21 20 18 17 17 17 18 17 16 15 14 13 13 12 12 12 11 11 11 10 9 9 9 9 8 7 7 7 7 7 6 7 8 10 12 13 15 16 17
26 24 22 21 21 21 19 17 16 16 16 16 17 17 17 16 15 14 14 14 14 14 13 12 11 10 10 9 9 8 8 8 8 8 8 9 10 11 13 14 16 18 19 20
29 24 21 19 19 19 18 16 17 17 17 17 17 16 16 16 17 16 16 16 15 15 14 13 12 12 11 10 10 9 9 9 9 9 10 11 12 13 14 16 17 19 20 21
31 26 23 20 18 18 17 16 16 16 16 16 16 16 16 16 17 16 16 15 15 14 13 13 12 12 11 11 11 10 10 10 10 10 10 11 12 13 15 16 17 18 19 20
31 29 25 21 18 16 15 15 15 16 16 16 15 15 15 16 15 15 15 14 14 14 13 13 13 13 13 12 12 11 11 11 10 11 11 12 12 13 14 15 16 17 17 18
30 29 27 24 19 15 14 14 14 14 14 14 14 14 14 14 14 14 14 14 14 14 14 15 15 15 15 14 14 13 13 13 13 13 13 14 14 15 15 16 16 16 16 16
28 28 27 25 20 17 14 13 12 12 12 12 12 13 13 13 13 13 13 14 14 15 15 16 16 17 17 17 16 16 15 15 15 15 16 16 17 17 17 18 18 17 16 16
24 26 26 24 20 17 15 13 12 11 11 11 11 11 12 12 12 12 12 13 14 15 16 16 17 17 18 18 17 17 17 17 17 17 18 18 19 19 19 19 19 19 17 16
20 23 24 23 21 18 16 14 13 12 11 10 10 11 10 10 10 11 11 12 13 14 15 16 16 17 17 17 17 17 18 18 18 18 19 19 20 20 21 21 21 21 19 18
15 18 21 21 20 18 16 14 13 12 11 10 10 10 9 9 9 9 9 10 12 13 14 15 15 16 16 16 17 17 17 17 18 18 19 19 21 21 22 22 22 21 21 20

GEFSCGP_500_meanwind_030.txt.gz
Wind_Speed
17 20 22 24 26 28 29 31 33 34 36 38 40 40 41 42 43 43 43 42 42 42 42 40 38 38 37 37 36 36 35 33 32 32 31 31 31 30 28 26 25 26 26 26
19 21 22 24 26 29 31 33 35 37 40 42 43 44 46 45 44 45 44 44 44 43 42 41 40 39 39 38 38 37 37 36 35 35 35 35 35 33 32 30 28 28 28 28
18 21 22 24 27 29 29 33 36 38 40 42 44 44 43 42 42 45 44 44 43 41 40 39 38 37 36 37 36 36 36 36 36 36 36 37 37 36 34 33 31 30 30 30
16 18 20 23 25 27 28 31 34 36 38 40 39 39 34 34 38 39 39 40 40 38 37 35 34 33 33 33 33 34 34 35 36 37 38 38 39 38 36 36 35 34 33 33
17 18 20 23 25 28 29 31 33 34 35 34 32 32 31 32 37 38 36 34 33 33 33 32 31 30 30 30 31 32 33 34 36 37 37 38 38 39 38 38 38 37 36 36
16 18 21 25 27 28 30 30 31 30 28 24 22 23 29 33 37 38 35 32 30 30 30 31 31 31 31 31 31 32 33 34 36 37 38 38 39 40 40 41 40 39 38 37
20 21 24 26 27 28 28 28 28 24 18 17 17 20 28 32 35 38 39 39 35 33 33 32 32 32 33 33 33 34 35 36 37 38 39 39 39 40 41 42 42 40 40 39
21 24 25 25 25 26 25 26 24 21 14 11 14 18 22 27 31 34 36 38 36 35 34 33 33 33 34 34 34 35 36 37 38 38 38 38 38 39 40 40 41 40 40 40
21 23 23 24 24 24 24 22 20 17 13 8 11 14 16 17 21 26 29 30 31 31 30 31 31 32 32 33 33 34 35 36 36 36 35 36 36 37 38 38 39 39 39 39
21 22 22 23 24 25 24 21 17 15 13 9 8 11 14 16 16 17 18 20 22 23 23 25 26 27 28 29 30 31 32 32 31 31 31 31 32 33 35 35 34 36 36 36
21 22 22 22 23 24 22 20 17 15 14 11 10 11 13 13 13 12 11 13 15 15 16 17 18 19 21 22 23 23 23 24 24 24 25 26 26 27 29 29 30 30 31 32
20 21 21 20 21 22 21 20 18 16 14 13 12 12 12 12 11 9 5 4 6 7 9 9 8 9 11 12 12 14 14 14 15 15 16 17 18 20 21 23 23 24 24 23
19 21 23 23 22 22 21 20 19 18 16 15 14 15 15 13 12 10 9 7 4 1 1 3 3 2 2 2 3 4 3 4 5 7 7 8 9 10 10 11 11 11 11 11
18 20 21 21 20 19 19 20 20 20 18 16 15 16 15 14 14 14 12 12 12 9 8 7 6 5 4 4 5 5 5 5 4 3 1 0 0 0 1 1 2 3 4 5
20 20 19 19 19 18 18 19 20 21 21 19 17 17 18 17 16 17 16 15 16 16 14 14 12 12 10 10 11 10 10 9 9 8 7 7 6 5 4 3 2 3 5 6
22 20 19 19 20 19 18 19 20 20 21 21 20 19 19 20 20 21 21 21 20 19 18 18 17 16 15 14 13 12 11 11 10 9 9 8 7 6 5 5 5 6 7 9
24 22 21 20 19 19 20 19 19 19 20 21 20 20 20 21 22 22 22 22 22 22 21 20 19 17 16 15 14 13 12 11 10 9 9 8 7 6 7 7 8 9 11 12
24 23 20 19 19 20 19 18 17 18 18 19 19 20 19 19 19 20 21 21 21 20 20 19 18 17 16 15 14 13 12 12 11 11 10 10 10 10 10 10 10 11 13 14
25 23 21 20 18 18 17 16 16 16 17 17 18 18 17 17 18 20 21 20 20 20 19 19 18 17 17 16 16 15 14 14 13 13 12 12 12 12 12 12 12 13 14 16
24 23 22 21 19 18 17 16 15 15 16 16 17 17 17 17 19 20 20 20 20 20 19 19 18 18 18 17 17 16 16 16 16 16 15 15 15 14 14 14 14 14 14 15
23 23 22 21 20 18 17 16 16 15 16 15 15 16 16 17 17 18 19 19 19 19 19 19 19 19 19 18 18 18 18 18 18 18 18 18 17 17 17 17 17 17 16 16
21 22 22 20 19 18 17 16 16 16 15 14 14 14 14 15 16 16 17 17 18 18 18 18 19 19 19 19 19 19 19 19 20 20 20 20 20 20 20 20 20 19 18 17
18 20 21 20 19 18 17 16 15 15 15 14 13 12 12 13 14 15 15 16 16 17 17 17 18 18 19 19 20 20 20 20 20 21 22 22 22 22 22 21 22 21 20 18
15 17 18 19 18 17 17 17 16 15 15 14 12 11 11 12 12 13 14 14 15 15 16 16 17 17 18 18 18 19 19 20 20 21 22 22 23 23 23 22 23 24 22 21
11 14 16 17 17 17 17 17 16 15 15 14 13 11 10 10 11 11 12 12 13 14 14 15 16 16 16 17 17 18 19 19 20 20 21 22 22 23 24 24 24 25 25 23
8 10 12 14 15 16 16 16 16 16 15 14 13 11 10 9 9 9 10 11 11 12 13 14 14 15 15 16 17 17 18 19 19 20 21 21 22 23 24 24 25 26 26 26

GEFSCGP_500_meanwind_036.txt.gz
Wind_Speed
16 18 20 21 21 22 22 23 24 26 27 29 31 33 35 38 42 42 43 42 41 40 39 39 39 38 38 38 38 38 36 35 33 32 31 30 30 30 31 30 30 29 28 26
15 16 17 19 19 20 21 22 23 24 27 28 31 33 36 38 41 43 45 46 46 44 42 41 40 40 40 41 41 41 40 39 38 36 34 34 34 33 33 33 33 33 32 29
12 14 15 17 17 19 21 22 23 24 26 29 32 34 37 39 41 43 44 46 47 47 44 43 42 42 42 42 43 43 43 42 41 40 38 36 35 35 34 35 35 35 32 30
11 14 15 16 18 20 21 23 24 24 25 28 30 33 35 37 39 41 42 44 44 44 44 43 41 42 43 42 42 42 42 42 41 40 38 37 35 35 35 35 34 34 33 31
11 14 16 18 20 20 21 22 22 23 25 27 29 31 31 31 34 39 41 42 42 42 42 41 39 38 39 40 41 41 41 41 40 39 38 36 35 34 34 34 34 34 32 32
12 14 17 19 20 20 21 22 22 22 23 23 24 25 26 26 28 30 32 34 35 35 35 35 35 34 35 36 38 38 39 39 39 39 37 36 35 34 34 34 34 35 34 33
12 14 17 19 20 20 20 21 20 20 20 20 21 20 21 22 22 23 25 26 28 28 28 29 30 32 32 33 34 36 36 37 37 36 36 36 35 35 35 36 35 35 35 35
14 16 18 18 18 18 18 18 17 16 16 16 16 16 17 19 20 20 20 20 22 23 25 26 26 27 29 30 32 33 34 35 35 36 36 36 36 36 36 36 36 37 37 37
16 17 18 17 17 17 17 17 16 15 14 14 14 13 13 16 16 16 15 15 15 16 17 18 19 21 23 25 28 31 32 33 33 34 35 36 36 36 36 36 36 36 37 37
15 16 17 17 17 17 17 17 16 15 14 13 13 12 12 12 14 14 13 13 12 11 11 11 12 13 16 20 23 26 28 30 31 32 32 33 33 33 34 34 34 34 34 35
16 16 16 16 16 16 17 18 16 14 14 14 13 13 14 15 15 14 12 11 10 8 8 6 7 8 9 12 15 17 20 22 24 25 26 27 28 28 28 29 28 28 28 28
18 18 17 17 17 17 18 18 17 15 15 15 14 15 15 15 15 15 14 12 11 10 8 6 5 4 2 3 5 7 9 11 13 15 16 17 18 19 19 20 21 21 21 22
20 20 19 18 18 18 18 18 17 16 16 16 16 16 16 17 17 17 16 15 14 12 10 9 8 6 4 4 3 2 1 1 2 4 5 7 8 9 10 11 12 13 14 15
21 21 20 19 19 19 19 19 19 18 17 16 17 17 18 19 18 18 18 18 17 16 14 13 11 10 9 7 7 8 7 6 5 4 3 2 2 3 3 4 4 5 6 7
21 21 20 19 20 20 20 20 20 20 19 18 18 19 19 19 19 19 19 19 19 19 18 18 18 16 14 13 12 11 11 10 9 8 7 7 6 5 4 4 4 3 3 4
21 21 21 20 20 20 20 21 21 20 20 19 19 19 19 19 19 19 20 20 20 20 20 19 19 18 18 17 16 15 15 13 13 12 11 10 8 7 7 6 6 7 7 8
21 20 21 20 20 20 21 21 21 21 20 19 19 18 18 19 19 19 20 21 21 20 20 20 20 19 18 18 17 16 16 15 14 13 12 11 10 9 9 9 9 9 9 10
20 21 21 21 21 22 22 22 21 21 20 19 18 18 19 19 19 19 20 20 21 21 21 21 20 20 20 20 19 18 18 17 17 16 15 14 12 12 11 11 11 12 12 12
20 20 21 21 21 22 22 21 21 20 19 18 18 18 18 18 19 20 20 20 21 21 21 20 20 20 20 20 20 20 20 19 19 18 17 16 16 15 14 14 14 14 14 13
19 19 20 20 20 21 21 21 20 19 19 18 17 17 17 18 19 19 20 20 21 21 21 21 21 21 21 21 21 21 21 20 19 19 18 18 18 17 17 16 16 15 15 15
16 17 18 19 19 20 21 21 21 19 18 17 16 16 16 17 18 18 19 20 20 20 21 21 21 21 20 20 21 21 21 20 20 20 19 19 19 19 19 18 17 17 17 16
14 15 16 18 18 19 19 20 21 20 18 16 15 15 16 16 17 18 18 18 19 19 19 20 20 19 19 19 20 20 20 20 20 20 20 20 20 20 21 21 20 20 20 19
11 13 14 16 17 18 19 18 19 20 18 16 15 15 15 15 16 16 17 17 17 17 18 18 18 18 18 18 18 19 19 19 20 20 21 21 21 22 23 23 23 23 23 22
7 9 11 13 15 16 17 17 18 18 19 17 15 14 14 14 14 15 15 15 16 16 16 16 16 17 17 17 17 18 18 19 20 20 20 20 21 22 23 24 24 25 25 25
6 7 8 10 12 13 15 16 16 17 17 18 16 13 13 13 13 13 13 13 14 14 14 15 15 16 16 16 16 17 17 17 18 19 19 19 20 21 23 24 25 26 27 27
7 7 7 8 9 10 12 14 14 15 15 16 16 14 11 11 11 11 11 11 12 12 13 13 14 15 15 15 16 16 16 17 17 18 18 19 20 21 22 23 24 26 27 28

GEFSCGP_500_meanwind_042.txt.gz
Wind_Speed
19 21 23 24 25 25 26 27 28 28 28 29 30 31 32 33 34 35 36 37 39 41 42 44 46 46 45 44 43 44 43 42 40 39 37 36 34 32 30 30 30 29 29 28
19 20 22 22 22 23 24 25 26 27 27 28 29 30 31 33 34 35 37 39 41 43 45 46 48 49 49 49 49 47 46 45 44 42 41 39 38 36 34 32 31 31 32 31
17 19 19 20 21 22 23 24 26 27 28 29 30 31 32 33 34 36 37 39 41 42 44 46 48 48 48 48 50 49 47 46 46 45 43 42 40 38 37 36 35 34 34 34
16 17 18 19 20 22 23 23 24 26 28 29 29 31 31 32 34 35 36 38 39 40 41 43 43 45 46 46 47 48 47 46 44 45 44 42 41 40 38 38 37 36 36 36
14 16 17 18 19 20 21 21 23 24 25 26 27 28 28 29 30 31 33 34 36 37 38 38 37 38 39 41 42 43 43 44 43 43 43 41 39 39 39 39 39 38 38 36
13 14 15 16 18 19 20 21 22 22 23 23 24 25 25 25 25 27 28 29 30 31 31 31 31 31 32 33 35 36 37 37 37 39 40 39 39 38 37 37 37 37 37 37
11 13 15 16 17 18 19 20 21 21 20 20 20 21 21 22 23 23 23 23 24 24 23 23 23 24 23 24 25 27 29 30 31 33 35 36 37 36 36 35 35 35 35 34
11 13 14 16 17 18 19 19 20 19 18 18 17 17 18 19 20 20 20 20 21 20 19 16 15 16 16 16 18 20 23 24 25 27 29 31 31 32 32 31 32 32 32 32
12 13 14 16 17 17 17 17 17 16 16 15 15 16 16 18 19 19 18 18 17 17 16 13 11 11 11 11 12 13 15 18 20 22 24 26 27 27 28 28 29 29 30 31
12 13 15 16 16 17 17 17 16 15 15 14 14 15 16 16 17 17 18 17 16 16 15 13 10 10 8 8 7 7 9 12 14 16 18 20 22 23 24 25 26 27 28 30
14 15 16 17 17 17 17 16 15 14 14 14 15 15 16 16 17 18 18 17 17 17 15 13 11 10 8 6 5 5 5 6 9 11 13 15 16 18 19 21 23 25 26 27
16 16 17 18 18 17 17 16 16 15 15 15 15 16 17 18 18 19 19 19 18 18 18 16 14 13 12 10 8 7 6 4 3 3 5 6 8 11 13 15 16 18 20 22
17 17 18 18 19 18 18 17 17 16 15 15 16 16 18 19 19 20 21 21 20 20 20 19 19 17 16 15 14 13 11 10 8 7 5 3 3 4 6 9 11 12 14 16
18 18 18 19 19 19 18 18 17 17 16 16 17 17 18 19 20 20 21 22 22 22 22 22 21 21 20 18 17 16 15 13 12 10 8 7 6 5 5 6 6 7 9 10
19 19 19 19 20 19 18 18 17 17 17 17 17 18 18 19 20 20 22 22 23 22 22 22 22 21 21 20 19 19 18 17 15 14 13 11 10 9 8 7 7 7 7 7
19 20 20 20 20 19 18 18 17 17 17 17 17 18 18 19 20 20 22 22 23 22 22 22 22 22 21 21 20 20 20 19 18 17 16 15 13 12 11 10 10 9 8 8
19 20 20 19 19 19 18 18 17 17 17 17 18 18 18 18 19 19 20 21 22 22 23 23 23 23 22 22 22 21 21 20 20 19 18 18 17 15 14 13 13 12 11 11
17 18 19 19 19 19 18 17 17 16 16 16 17 17 17 17 18 18 19 19 20 20 21 22 23 22 22 22 22 22 21 21 21 20 20 19 18 18 17 16 15 14 13 13
16 17 17 18 18 18 18 17 16 16 15 16 16 16 16 17 17 17 18 18 19 19 20 20 21 21 22 22 22 22 22 22 22 21 21 20 20 20 20 19 19 17 16 15
13 15 16 16 17 17 17 17 15 15 14 15 15 16 16 16 16 16 17 17 18 18 19 19 19 20 21 21 21 21 21 21 22 22 22 21 21 21 22 22 21 20 20 18
10 12 14 15 16 16 16 16 15 14 13 13 14 14 14 15 15 16 16 16 16 17 17 18 18 18 19 19 20 20 20 21 21 21 22 22 23 23 23 23 23 23 22 21
8 9 11 12 13 14 15 15 15 13 12 11 12 12 13 13 13 13 14 14 15 15 16 17 17 17 17 18 18 19 20 20 20 21 21 22 23 24 24 24 25 25 24 23
6 7 8 10 11 12 13 13 13 13 12 11 10 10 10 11 11 11 12 13 14 15 15 16 16 16 16 17 17 18 19 19 19 20 21 22 23 24 24 25 26 26 26 25
7 7 7 7 8 10 10 11 11 10 11 10 9 8 9 9 9 10 11 12 13 14 15 15 16 16 16 16 16 17 18 18 19 19 21 22 22 23 24 25 26 26 27 26
9 8 7 7 7 7 8 9 9 8 8 9 8 7 7 7 7 8 9 10 12 13 14 14 15 15 15 15 15 16 17 18 18 19 20 21 22 23 23 24 25 26 27 27
11 10 9 8 7 7 6 6 7 7 6 6 7 7 6 7 6 6 7 8 10 11 12 13 13 14 14 15 15 15 16 17 18 19 20 21 22 22 23 24 25 25 25 26

GEFSCGP_500_meanwind_048.txt.gz
Wind_Speed
19 20 21 23 24 25 26 28 29 28 28 29 29 30 30 31 32 33 33 34 36 37 39 40 41 42 43 44 46 47 49 50 49 49 48 47 44 43 42 41 38 38 37 35
18 19 21 22 23 25 26 27 27 27 27 28 29 29 30 30 31 32 33 34 35 37 38 39 40 41 43 44 45 47 48 49 50 51 51 50 49 47 46 44 42 39 36 35
17 18 19 21 23 24 24 24 25 26 26 26 27 28 28 28 29 29 30 31 32 33 34 36 38 39 41 42 43 44 46 47 48 49 50 50 50 51 50 47 44 42 38 36
15 17 18 19 20 21 22 22 23 24 24 25 25 27 26 26 27 27 28 28 29 29 30 31 32 33 35 37 38 40 42 44 45 47 47 49 49 49 49 47 47 45 42 39
14 15 16 17 19 20 21 21 21 21 22 23 22 23 23 23 24 25 26 26 26 27 27 26 27 27 27 29 30 32 34 36 39 40 42 44 45 46 47 46 45 44 43 40
12 13 15 17 18 19 19 19 19 19 19 19 19 19 20 20 21 22 23 23 23 23 22 22 23 23 23 23 23 24 25 27 30 33 34 37 40 41 42 43 43 43 41 39
10 12 14 16 17 18 18 19 18 18 17 16 16 17 18 18 18 18 18 18 19 19 19 20 21 21 19 18 17 17 18 20 22 24 26 28 32 35 37 37 38 39 38 37
10 12 14 15 16 17 17 17 15 15 15 14 15 15 16 15 15 16 16 17 17 17 17 18 19 18 16 14 13 12 12 13 13 15 17 21 24 27 30 32 33 34 34 34
10 12 14 14 15 16 16 14 13 12 11 12 13 13 14 14 15 16 16 17 17 16 16 17 17 15 13 11 10 8 8 7 8 8 10 13 18 21 23 26 28 28 29 31
11 12 13 14 15 15 15 14 13 12 11 11 11 13 14 14 15 16 17 17 18 18 18 17 17 16 14 12 11 9 7 6 6 5 5 8 10 13 16 20 23 25 26 27
13 13 14 15 15 15 15 15 14 13 11 11 11 12 13 14 16 16 16 17 18 19 19 19 19 18 17 16 15 13 11 9 8 7 5 2 4 8 11 13 16 19 21 23
14 15 15 16 16 16 16 15 14 13 13 12 12 13 14 15 16 16 17 17 19 20 20 20 20 19 19 18 18 16 15 13 11 9 8 6 3 1 4 8 11 14 17 19
15 16 16 16 17 17 16 16 15 14 13 13 13 14 14 16 16 16 17 18 19 20 21 22 22 21 20 19 19 18 18 16 14 12 10 9 6 4 1 2 5 9 12 15
16 16 17 17 17 17 16 16 15 14 14 14 14 14 14 15 16 17 18 18 19 20 21 22 22 22 21 21 20 20 20 19 17 16 14 12 10 8 6 4 2 4 6 9
17 17 17 17 17 17 16 16 16 15 14 13 13 14 14 15 16 17 18 19 20 20 21 21 21 22 22 22 22 21 20 19 19 18 16 15 13 11 9 7 6 4 5 6
16 17 17 17 17 17 16 16 15 15 14 13 13 13 14 15 16 17 18 19 20 20 21 21 22 22 22 22 22 22 21 20 20 19 18 16 14 13 11 10 9 7 6 6
15 16 16 16 16 15 16 16 15 15 15 14 14 14 14 14 15 16 17 18 19 19 20 21 21 21 21 21 21 21 21 20 20 20 19 18 17 17 15 13 12 10 9 8
13 15 15 15 15 15 14 14 14 14 14 14 13 13 13 13 14 14 16 17 18 18 19 20 20 20 20 20 20 20 20 20 20 20 19 19 19 18 17 16 15 14 12 11
10 12 13 14 14 14 13 12 12 12 12 12 12 12 12 13 13 14 14 16 17 17 17 18 18 19 19 19 19 19 19 19 20 20 19 19 19 19 19 18 17 17 15 14
7 9 11 12 13 13 13 12 11 11 11 11 11 11 11 12 13 13 14 14 15 16 16 16 17 17 18 18 19 19 19 20 20 20 20 20 20 20 20 20 20 19 18 17
5 6 8 9 10 11 11 11 11 11 11 10 10 10 10 11 12 12 13 14 14 14 15 15 15 16 17 17 18 18 19 20 20 20 20 20 20 21 21 21 21 21 20 19
5 5 5 7 8 8 9 9 9 9 10 10 9 9 9 9 10 11 12 13 13 14 14 14 15 15 16 16 17 17 18 19 19 20 20 20 21 21 22 22 22 21 21 21
7 6 5 5 6 6 7 7 7 8 8 9 9 8 8 8 9 10 11 12 12 13 13 14 14 14 15 15 16 17 17 18 19 20 20 20 21 22 22 22 23 22 21 21
9 9 8 7 6 6 6 6 6 6 6 7 8 8 8 8 8 9 10 11 11 12 12 13 13 13 14 14 15 16 16 18 19 19 20 20 21 22 23 23 23 22 22 22
12 11 10 9 8 7 7 7 6 6 6 6 7 7 8 8 8 8 9 10 10 11 11 11 12 12 13 13 13 14 15 16 18 19 20 20 21 21 22 23 23 22 22 22
16 14 13 12 12 11 10 9 8 8 7 7 7 7 7 8 8 8 8 9 9 10 10 10 10 11 11 12 13 13 14 15 16 18 19 19 20 21 22 22 22 22 22 22

GEFSCGP_500_meanwind_054.txt.gz
Wind_Speed
16 18 20 21 21 23 24 26 27 33 33 33 33 32 31 30 31 31 32 33 34 34 35 35 35 35 36 37 38 40 41 43 44 45 46 46 47 47 47 46 45 44 41 38
17 19 19 21 22 23 25 26 27 30 29 30 31 30 29 28 28 29 30 32 33 33 33 34 34 34 34 35 36 37 38 40 41 43 45 46 46 47 48 47 46 44 43 41
18 18 19 21 23 23 24 24 25 28 29 28 27 28 27 25 26 26 27 28 29 29 29 30 31 31 32 32 32 33 35 36 37 39 40 42 44 46 46 46 45 45 44 44
16 17 19 21 22 21 24 24 24 25 25 25 23 25 26 25 25 25 26 26 26 25 26 27 27 28 28 29 31 32 32 32 33 33 35 37 40 42 44 44 44 45 45 44
14 15 17 19 20 21 22 22 22 21 20 20 20 22 25 24 25 25 25 24 24 24 24 24 25 25 25 26 27 28 28 28 28 28 29 31 34 37 39 41 42 43 43 42
13 14 16 18 19 20 20 19 18 17 17 17 18 20 24 23 24 23 23 23 23 23 22 22 22 22 22 22 22 22 22 23 23 24 25 27 28 31 34 36 39 40 40 40
10 12 14 15 17 17 17 17 16 15 16 17 18 19 21 21 21 21 21 22 21 21 21 20 20 20 20 18 18 18 18 18 18 19 20 21 23 25 27 30 33 35 37 37
11 11 12 14 15 16 15 14 13 9 7 13 15 16 18 19 19 20 20 20 20 20 19 19 19 19 19 17 16 16 15 14 13 14 15 15 16 17 19 22 25 28 31 33
8 10 12 13 14 14 13 12 11 10 8 8 13 15 15 17 18 19 19 20 20 20 20 20 20 19 19 18 17 15 15 13 12 11 11 12 11 12 14 16 19 22 25 26
6 8 10 11 12 12 12 12 11 10 10 8 11 15 17 18 18 19 19 20 20 21 21 21 20 20 20 19 18 17 16 15 14 12 11 11 10 8 9 11 13 16 20 22
6 8 9 11 13 14 13 13 12 11 11 11 11 14 16 17 18 18 18 19 20 21 21 21 20 21 21 20 20 19 18 17 16 15 14 13 11 9 7 5 7 10 13 16
8 10 11 12 14 14 14 13 13 13 12 12 13 14 15 17 17 18 19 19 20 20 21 21 22 22 22 21 21 21 21 19 18 18 17 16 14 12 9 7 6 6 7 11
9 10 12 13 14 14 14 14 14 14 13 13 14 14 15 16 17 19 19 20 20 20 20 21 21 22 22 22 22 22 22 22 21 20 19 18 17 15 12 9 8 7 7 7
11 11 13 14 15 16 16 15 15 15 14 15 14 14 15 16 17 18 19 19 20 20 20 20 21 21 22 22 23 22 23 23 22 21 20 19 18 17 16 13 11 9 8 7
11 11 13 13 13 15 15 15 15 15 15 15 15 14 15 16 17 18 18 19 19 20 20 20 20 21 21 22 22 22 22 22 22 22 22 21 19 18 17 16 14 12 10 9
11 11 12 12 12 13 14 15 15 15 15 15 15 15 15 16 16 17 18 18 19 19 20 20 21 21 22 22 22 22 22 22 22 22 22 21 21 20 19 17 16 15 13 11
9 10 10 11 11 12 13 14 15 15 15 15 15 15 15 15 16 17 18 18 19 19 20 20 21 21 22 22 22 23 23 22 22 22 22 22 21 21 20 19 18 17 15 13
8 9 9 10 11 11 13 13 14 14 14 14 14 14 14 15 15 17 18 18 19 19 19 20 20 20 21 22 23 23 23 23 22 22 22 22 22 23 22 21 20 19 18 15
6 7 8 8 9 10 11 11 12 13 13 14 14 14 14 14 15 16 17 18 18 19 19 19 19 19 20 21 22 22 23 23 23 23 23 24 24 24 24 23 22 21 19 17
6 6 7 7 8 8 9 10 11 12 12 13 13 13 14 14 15 16 16 17 18 18 19 18 18 18 19 20 20 21 22 22 23 23 24 24 25 25 25 24 23 22 21 19
8 8 8 8 8 8 8 8 9 10 12 12 12 13 13 14 15 16 16 17 17 18 18 18 18 18 18 19 20 21 22 22 23 23 24 24 25 26 26 25 24 23 22 21
10 10 10 10 10 9 9 9 9 10 10 11 12 12 13 13 14 15 16 16 17 17 17 17 17 17 18 18 19 20 21 22 22 23 24 24 25 26 26 26 25 24 24 22
12 13 13 13 12 12 11 11 11 10 10 10 11 12 12 13 13 14 15 16 16 16 16 17 17 17 17 18 19 19 20 21 21 22 23 24 25 25 26 26 25 24 24 23
15 15 15 15 15 15 14 14 14 13 13 12 12 12 12 13 13 13 14 15 15 15 16 16 16 16 16 17 18 19 20 20 21 22 22 23 24 25 26 26 25 24 24 24
17 17 17 18 18 17 17 17 16 16 16 15 15 14 14 13 13 13 14 14 14 15 15 15 15 15 15 16 17 18 18 19 20 20 21 22 23 24 24 25 25 24 24 24
21 21 21 20 21 20 19 19 19 19 19 18 18 17 16 15 15 14 14 14 14 14 14 14 14 14 14 15 15 16 17 17 18 19 20 21 22 22 23 24 24 24 24 23

GEFSCGP_500_meanwind_060.txt.gz
Wind_Speed
15 15 16 17 18 20 21 23 25 25 26 26 26 26 25 24 24 24 24 24 25 26 27 27 27 27 28 29 30 31 32 33 33 34 34 35 37 38 39 40 41 41 42 42
13 13 14 15 16 19 20 22 24 25 25 24 24 23 22 21 20 20 21 22 24 25 25 26 25 25 26 27 27 28 28 28 29 31 32 33 34 36 37 39 40 40 41 42
11 11 12 13 15 17 19 21 22 22 21 22 21 20 18 17 17 18 20 21 22 23 23 24 24 24 24 24 24 24 25 25 25 27 28 30 31 33 34 36 38 39 39 41
8 10 12 13 15 17 18 19 19 19 19 19 18 16 14 15 17 18 19 21 22 22 22 22 22 22 22 22 21 20 20 20 21 22 24 26 28 30 32 33 35 36 37 38
7 10 12 14 15 15 16 16 17 17 16 14 13 13 14 15 17 19 21 22 23 22 22 21 21 21 21 21 20 18 17 17 18 19 20 22 24 25 27 29 31 33 34 36
6 9 11 12 13 14 14 13 14 13 12 11 11 13 14 17 18 19 21 22 23 22 21 21 22 22 21 20 19 17 16 15 15 15 16 17 19 21 23 25 27 29 31 34
5 7 8 10 11 11 11 11 11 11 10 10 11 12 15 16 18 19 20 21 21 21 21 21 22 22 22 21 20 18 17 16 15 14 13 13 14 15 17 20 22 25 28 30
1 3 5 7 8 9 10 10 11 11 11 11 12 14 15 16 17 18 18 19 20 20 20 21 22 22 22 21 21 20 19 17 16 15 13 12 12 11 12 14 17 20 22 26
2 2 4 6 8 9 10 11 11 12 12 13 13 13 15 15 17 17 18 19 20 20 21 21 23 23 22 22 21 21 20 19 18 17 15 13 11 11 10 9 10 13 16 20
4 5 7 7 9 10 11 12 12 13 13 13 13 14 15 16 17 17 19 20 20 21 21 21 22 23 23 22 22 22 21 20 20 18 17 15 13 12 11 10 9 9 11 14
7 7 7 8 9 10 11 12 13 13 13 13 13 14 15 16 17 17 18 19 20 20 21 21 22 23 23 22 22 22 22 21 21 20 18 17 15 14 13 12 9 8 7 9
8 8 8 8 9 10 11 12 13 13 13 13 13 14 15 16 17 17 18 19 19 20 21 21 21 22 23 23 23 23 22 22 21 21 19 18 17 16 15 13 11 9 7 7
9 9 8 8 10 11 11 12 13 13 13 13 13 14 15 16 17 18 18 19 19 20 20 21 22 22 23 23 23 23 23 22 22 21 21 20 19 17 16 15 12 11 9 8
9 8 9 9 10 11 11 11 12 13 13 13 13 13 14 15 16 18 18 19 19 19 20 20 21 22 23 23 23 23 23 23 22 22 22 21 20 19 18 17 15 13 11 10
7 7 7 7 8 9 10 11 12 12 13 13 13 13 14 15 16 18 19 19 19 19 19 20 21 21 22 23 23 23 23 23 23 23 22 22 21 20 19 18 16 15 13 11
6 6 6 6 6 7 9 10 11 12 12 13 13 14 14 14 15 17 18 19 19 19 19 19 20 21 22 23 23 23 24 24 24 24 23 23 22 22 21 20 18 16 14 12
5 5 5 5 6 7 7 8 9 10 12 12 13 14 14 15 15 17 17 18 19 20 19 19 20 21 21 22 23 23 24 24 24 24 24 24 24 24 23 21 19 18 16 14
3 3 3 3 4 4 6 7 8 9 10 11 12 12 13 14 16 17 17 18 18 19 19 20 20 20 21 22 22 23 23 24 25 25 25 25 25 25 24 23 21 20 18 15
1 0 0 1 2 3 5 6 7 8 9 10 11 11 12 14 15 16 17 18 18 18 19 19 20 20 21 22 22 23 23 24 25 25 26 26 26 26 26 24 23 22 20 18
4 4 3 3 3 4 5 6 7 8 9 10 11 11 12 13 14 15 16 17 17 17 18 18 19 20 20 21 22 23 23 24 24 25 26 26 26 26 26 25 24 23 22 20
7 6 6 6 6 6 6 7 7 7 8 10 10 11 12 13 14 15 16 16 17 17 17 18 18 19 19 20 21 22 23 23 24 25 25 26 26 25 25 25 25 24 23 22
9 9 9 9 9 9 9 9 9 10 10 11 11 12 12 13 14 15 16 16 16 17 17 18 18 18 19 19 20 21 21 22 23 24 25 25 25 25 25 25 25 25 24 23
13 13 12 12 11 11 11 12 12 12 12 13 13 13 14 14 15 15 15 16 16 17 17 17 18 18 18 18 19 20 20 21 21 23 24 24 24 24 24 25 25 25 24 23
16 16 16 15 14 13 14 14 15 15 15 15 16 16 16 16 16 16 16 16 16 17 17 17 17 17 17 17 18 18 19 19 20 21 22 23 23 23 23 24 24 24 24 23
19 18 17 18 17 16 16 17 17 18 18 18 18 18 18 18 18 17 17 17 17 17 17 17 17 17 17 17 17 17 18 18 18 19 19 20 21 22 22 22 23 23 23 22
21 19 18 19 19 19 19 20 20 20 21 21 21 21 21 20 20 19 19 19 19 19 18 18 17 17 17 17 16 16 16 17 17 17 17 18 19 19 20 20 21 21 22 21

GEFSCGP_500_meanwind_066.txt.gz
Wind_Speed
20 19 19 19 19 20 21 21 22 21 21 20 20 21 21 21 21 21 21 22 22 23 22 22 23 23 24 24 23 23 24 25 27 28 29 30 31 32 33 35 37 39 41 42
19 18 17 18 18 19 20 21 20 19 19 19 19 18 18 18 18 19 19 20 20 20 21 21 22 22 22 22 22 22 21 21 21 22 23 24 26 27 29 31 33 35 38 40
17 16 16 16 16 17 18 18 18 18 17 16 15 15 15 15 16 17 17 18 19 20 20 20 21 22 22 22 22 21 20 19 19 18 19 20 21 23 25 27 30 33 35 38
15 14 14 14 15 16 16 15 15 14 14 13 13 12 13 13 14 15 17 18 19 19 19 20 21 22 22 22 21 20 20 19 17 16 16 17 17 19 21 24 26 29 32 35
13 12 12 12 12 12 12 12 12 12 11 11 11 11 11 11 13 15 16 17 19 20 20 20 22 23 22 22 21 20 20 18 17 16 15 15 15 17 19 21 23 25 28 30
11 10 9 8 9 9 9 9 9 9 9 9 10 10 10 12 14 15 16 18 19 20 20 21 22 23 22 22 21 21 20 19 18 17 16 15 15 15 16 18 20 23 24 27
8 7 5 5 6 6 7 7 8 8 9 9 10 10 11 13 14 15 16 18 19 20 21 21 22 23 23 22 23 22 21 20 19 18 17 16 15 14 14 15 16 18 21 24
7 4 2 3 3 4 5 6 7 8 9 9 10 11 12 13 14 15 17 18 19 20 21 21 22 23 23 23 23 23 22 21 20 19 18 17 16 16 15 14 15 15 17 20
5 2 1 1 2 3 4 6 7 7 8 9 10 11 12 13 14 15 17 18 20 20 21 22 22 23 24 24 24 24 23 22 21 20 20 19 18 17 16 15 14 14 14 16
5 3 3 3 3 3 4 5 6 7 8 9 10 11 12 14 15 16 17 18 19 21 21 21 22 23 24 24 24 24 23 23 22 21 21 20 19 19 17 16 15 14 14 13
6 5 4 4 3 3 3 5 6 7 8 9 10 11 12 14 15 16 17 19 19 20 21 21 22 23 24 24 25 25 24 24 24 23 23 22 21 20 19 18 16 15 14 13
7 6 5 4 4 4 4 5 6 7 8 9 10 11 12 13 15 16 18 19 19 19 20 21 22 23 23 24 24 25 25 25 24 24 24 23 23 22 21 19 17 16 15 13
7 6 5 5 4 4 4 5 6 7 8 9 9 11 12 13 15 16 17 18 19 19 20 21 22 23 24 24 25 25 25 25 25 25 25 25 24 23 22 21 19 17 16 14
7 6 5 5 4 4 3 4 6 7 7 8 9 10 12 13 15 16 17 18 19 20 20 21 21 22 23 24 25 26 26 26 26 26 26 26 25 24 23 22 20 19 18 16
6 5 4 4 3 3 3 4 5 6 7 8 9 10 11 13 14 16 17 18 19 20 20 21 22 22 23 24 25 25 26 27 27 27 27 26 26 26 25 23 21 20 19 18
5 4 3 2 2 2 3 4 5 6 7 8 9 10 12 13 14 15 17 18 19 20 21 21 22 22 23 23 24 25 26 27 27 27 27 27 27 27 26 25 23 21 20 18
4 4 3 2 1 0 2 3 4 6 7 8 9 10 11 13 14 15 17 18 19 20 20 21 22 22 23 23 24 25 26 26 27 28 28 28 28 27 27 26 25 23 21 19
4 4 4 3 2 2 3 4 5 6 7 8 9 10 11 13 14 15 17 18 19 19 20 20 21 22 23 23 24 24 25 26 27 28 28 28 28 28 28 27 26 25 23 21
6 6 6 6 5 5 5 6 6 8 9 9 10 11 12 13 15 15 17 17 18 19 19 20 20 21 22 23 23 24 25 26 27 28 28 28 28 28 29 28 27 26 24 23
8 8 9 9 9 9 9 9 9 10 11 11 12 13 14 14 15 16 17 17 18 19 20 20 21 21 21 22 23 23 24 25 26 27 28 28 28 28 28 28 27 26 26 24
11 11 11 12 12 12 12 12 13 13 14 14 15 15 16 16 17 17 18 18 19 19 20 21 21 21 21 22 22 23 23 24 25 26 27 28 28 28 28 28 27 27 27 26
14 14 14 14 14 14 14 14 15 16 16 17 17 18 18 18 19 19 19 20 20 20 21 21 21 22 22 22 23 23 23 24 24 25 26 27 27 28 28 28 27 27 27 26
16 16 16 16 16 16 16 17 17 18 18 19 19 20 20 21 21 21 22 22 22 22 22 22 22 22 23 23 23 23 23 24 24 24 25 25 26 26 27 27 27 26 26 26
18 18 18 18 18 18 19 20 20 21 21 21 21 21 22 22 23 23 24 24 24 24 24 24 24 24 24 24 24 24 24 24 24 24 25 25 25 25 26 26 25 25 25 25
19 20 20 20 20 20 21 22 23 23 24 24 23 23 23 24 24 25 25 25 25 26 26 25 25 25 26 25 25 25 25 25 24 24 24 24 24 24 24 24 24 24 24 23
19 20 21 20 21 22 23 24 24 25 25 25 26 26 26 26 26 27 27 28 28 28 28 28 28 27 27 27 27 27 26 25 25 25 24 24 24 24 23 23 23 22 22 21

GEFSCGP_500_meanwind_072.txt.gz
Wind_Speed
21 21 20 19 18 18 17 18 18 17 17 16 15 14 13 13 13 14 15 17 18 18 19 20 21 21 21 21 21 21 20 19 18 18 18 18 20 21 24 26 29 32 36 38
21 21 19 18 17 17 16 16 16 15 14 13 12 11 10 11 12 13 15 16 17 19 19 20 21 21 22 21 21 21 20 19 18 17 17 17 17 18 20 22 24 28 31 34
22 20 18 16 16 15 14 13 13 12 10 9 9 8 9 10 11 13 14 16 17 18 19 20 21 21 21 21 21 21 20 19 18 17 16 16 16 16 17 18 20 23 26 29
21 18 16 15 14 13 12 10 9 8 7 7 7 7 9 10 11 12 14 15 17 18 19 20 20 21 21 22 22 21 21 20 19 18 16 16 15 15 15 15 16 19 22 25
18 16 14 13 11 10 8 7 6 5 4 4 6 7 8 9 10 12 13 15 17 18 19 20 20 21 21 21 22 22 22 21 19 18 17 17 16 15 14 14 14 16 18 21
16 14 13 11 9 7 5 3 2 2 3 4 5 6 7 9 10 11 13 15 16 18 19 19 20 21 22 22 22 23 22 21 20 19 18 17 17 16 15 14 14 14 15 18
14 13 10 9 7 5 3 1 1 2 3 4 5 6 7 8 10 12 13 15 16 17 18 19 20 21 22 23 23 23 23 22 22 21 20 19 18 17 16 15 14 14 14 16
13 11 9 7 6 4 4 3 3 3 3 4 5 6 7 8 10 12 13 14 16 17 18 19 21 22 22 23 23 23 23 23 23 22 21 20 19 18 17 16 15 14 14 15
12 10 9 7 6 6 5 5 4 4 4 5 5 7 8 9 11 12 14 15 16 17 18 19 20 21 23 23 24 24 24 24 23 23 23 22 21 21 19 17 16 15 15 15
11 9 8 8 8 7 6 6 5 5 5 5 6 7 8 9 10 12 14 15 16 17 18 19 20 22 23 24 24 24 24 24 24 24 24 23 22 22 21 19 18 17 16 15
11 9 9 9 9 8 7 6 6 5 5 5 5 6 8 9 10 12 13 15 16 17 18 19 20 22 23 23 24 25 25 25 25 25 25 24 23 23 22 21 20 18 17 16
11 10 9 9 8 7 7 6 5 5 4 4 5 6 7 9 10 12 13 15 16 17 18 19 20 21 22 23 24 25 25 25 26 26 26 25 24 23 23 22 22 20 19 18
11 11 11 9 8 8 7 6 5 5 4 4 5 6 7 9 10 12 13 14 16 16 17 18 20 21 22 23 24 25 25 26 26 27 27 26 26 25 24 23 23 22 21 20
11 11 11 10 8 7 6 6 5 4 4 4 4 5 7 8 10 11 13 14 16 16 17 18 19 20 21 22 23 24 25 25 26 27 27 27 27 26 25 25 24 24 23 21
12 11 10 9 8 6 5 5 4 3 2 2 3 5 6 8 10 11 13 14 15 17 18 18 19 20 21 22 22 23 24 25 25 26 27 27 27 27 27 26 25 25 24 23
11 10 9 8 7 6 5 4 3 2 1 1 2 4 6 8 10 11 13 14 15 16 17 18 19 19 20 21 22 23 23 24 25 26 26 27 27 28 28 27 26 26 25 24
11 10 8 7 6 5 4 3 2 1 1 2 4 5 7 9 10 12 13 15 16 16 17 18 19 19 20 20 21 22 23 24 25 25 26 27 27 28 28 28 28 27 26 25
10 9 8 7 6 6 5 4 4 3 4 5 6 8 9 11 12 13 15 16 16 17 18 18 19 20 20 21 21 22 23 23 24 25 26 27 27 28 28 28 28 28 27 26
9 9 8 8 7 7 6 6 6 7 7 8 9 10 11 12 14 15 16 16 17 18 18 19 19 20 21 21 22 22 23 24 24 25 26 27 27 28 28 28 28 29 28 27
10 10 10 9 9 9 9 9 9 10 10 10 11 12 13 14 15 16 17 17 17 18 18 19 20 20 21 21 22 22 23 23 24 25 26 26 27 27 28 28 28 28 28 28
11 11 11 12 12 11 11 12 12 13 12 13 13 14 15 16 16 17 17 18 18 19 19 20 20 21 21 22 22 23 23 24 24 25 25 26 26 26 27 27 27 28 28 27
14 14 14 14 14 14 14 14 15 15 15 15 15 16 16 17 18 18 18 18 19 19 20 21 21 22 22 23 23 24 24 24 24 24 25 25 25 26 26 26 26 27 27 27
16 16 16 16 17 16 16 16 16 17 17 17 17 17 18 19 19 19 19 20 20 21 21 22 23 24 24 24 24 24 24 24 24 25 25 25 25 25 25 25 25 25 25 25
18 18 18 18 18 18 18 18 18 18 18 18 18 19 19 20 20 21 21 22 22 23 24 25 25 26 26 26 26 26 25 25 25 25 25 25 25 25 25 24 25 25 24 24
19 19 19 19 20 20 20 20 20 20 20 20 20 20 20 21 22 23 23 24 25 26 27 27 28 28 28 28 28 27 27 26 26 26 25 25 25 25 24 24 24 24 24 23
21 21 21 21 21 21 21 21 21 21 21 21 21 22 22 24 24 25 26 27 28 28 29 30 30 30 30 30 30 29 28 27 27 27 27 26 26 25 25 24 24 23 23 23

GEFSCGP_500_meanwind_078.txt.gz
Wind_Speed
21 20 17 16 16 16 14 15 15 20 21 19 17 15 14 14 13 14 15 16 17 18 19 19 20 21 22 22 22 23 23 23 22 21 19 19 18 17 16 16 17 19 20 21
21 19 18 18 17 17 14 14 16 18 18 15 13 12 11 11 12 13 14 16 17 17 18 19 20 20 21 22 22 23 23 23 22 21 20 19 18 17 16 15 15 16 18 19
19 18 18 18 17 17 15 17 16 16 15 12 10 9 8 8 10 12 13 14 15 17 18 19 19 20 22 22 23 23 23 23 22 21 20 19 18 17 16 15 14 15 16 17
21 20 19 18 17 16 16 15 13 12 11 8 7 8 8 9 10 11 12 13 14 16 17 18 19 20 21 22 23 24 24 23 22 22 20 19 19 18 17 15 14 14 14 15
21 21 19 18 18 15 15 12 10 9 7 5 5 6 8 9 9 10 11 12 14 15 16 18 19 20 21 22 23 24 24 23 23 22 21 21 20 19 18 17 15 15 14 14
21 19 18 18 15 13 12 10 7 5 4 3 4 6 8 8 8 10 11 12 13 14 16 17 19 20 21 22 23 23 23 23 23 23 22 21 21 20 19 18 17 16 15 14
18 17 16 15 14 12 11 9 6 1 4 5 6 6 6 6 7 9 10 11 12 14 15 17 18 19 21 22 22 23 23 23 23 24 23 22 22 21 20 19 18 17 15 15
10 13 13 14 13 11 10 10 9 7 4 8 6 5 4 5 6 7 9 10 12 13 15 16 17 19 20 21 22 23 23 24 24 24 24 23 23 22 21 20 20 18 17 16
8 14 12 12 12 11 11 11 10 9 8 6 5 3 2 4 5 6 8 10 11 13 14 16 17 19 20 21 22 23 23 24 25 25 25 24 24 23 23 22 21 20 19 18
13 15 12 11 11 11 11 10 10 10 8 5 5 5 3 3 4 6 8 10 11 13 14 15 17 18 19 20 21 22 23 24 25 25 25 25 25 25 24 24 23 22 21 20
13 9 9 10 11 11 11 11 10 9 7 7 7 4 2 3 4 6 8 10 11 13 14 15 16 17 19 20 21 22 23 24 25 25 26 26 26 26 26 25 25 24 23 22
18 13 8 9 9 10 11 11 10 10 9 7 5 2 2 2 4 6 8 10 11 13 14 15 16 18 18 19 20 21 22 23 24 25 25 26 26 26 26 26 27 26 26 24
17 15 10 7 9 11 11 11 10 9 8 7 6 3 2 2 4 6 8 9 11 13 14 16 17 18 19 19 20 20 21 22 23 24 25 25 26 26 26 27 27 27 27 26
14 15 15 13 13 13 12 12 11 10 9 8 6 4 3 4 5 7 8 10 12 13 14 16 17 18 19 19 20 20 21 21 22 23 24 25 25 26 26 27 27 28 28 26
14 14 15 13 12 12 12 12 11 10 9 8 6 4 4 5 6 7 9 11 12 14 15 16 17 18 19 19 20 21 21 22 22 23 24 24 25 26 26 26 27 27 28 27
13 13 13 12 12 12 12 11 10 9 9 8 7 6 6 6 7 9 10 12 13 14 16 17 18 19 20 20 20 21 22 22 23 23 24 24 25 25 26 26 27 27 27 27
13 13 13 13 12 12 12 11 10 9 9 9 8 7 7 8 9 10 11 13 14 15 17 18 19 19 20 21 21 22 22 23 23 23 24 24 25 25 26 26 27 27 27 27
13 14 13 13 13 13 11 10 10 10 10 10 9 9 10 11 11 12 13 14 15 16 18 18 19 20 21 21 22 22 23 23 24 24 24 24 25 25 25 26 26 27 27 27
14 14 14 14 13 12 11 11 12 12 12 11 11 12 12 13 13 13 14 15 16 17 18 19 20 21 22 22 23 23 24 24 25 25 25 25 25 26 26 26 26 26 27 27
15 15 15 15 14 14 13 12 14 13 13 13 14 14 14 15 15 14 15 16 17 18 19 20 21 22 23 23 24 25 25 25 26 26 26 26 26 26 26 26 26 26 26 26
16 17 17 16 17 17 14 13 15 16 15 14 16 16 16 17 17 17 17 17 18 19 21 22 23 24 24 25 26 26 26 26 27 27 27 27 27 27 26 26 26 26 26 26
18 18 18 19 20 19 16 17 17 18 17 17 18 18 18 18 18 18 19 19 20 21 22 23 24 25 26 26 27 27 27 27 28 28 27 27 27 27 27 26 26 26 26 26
20 19 20 21 21 20 19 20 20 20 20 20 20 20 20 20 20 20 20 20 21 22 23 25 26 27 27 27 28 29 29 29 29 28 28 27 27 27 27 27 27 26 26 25
22 22 22 23 22 22 22 22 22 23 22 22 22 22 22 22 22 22 22 22 23 24 25 27 28 29 30 30 30 30 30 30 30 29 28 28 28 27 28 28 27 27 27 26
25 25 24 25 25 25 24 24 24 24 24 24 24 24 24 24 23 23 23 24 24 25 27 29 30 31 32 32 32 31 31 31 30 29 29 29 29 28 28 28 28 28 28 27
26 27 27 26 27 27 26 25 26 26 26 26 26 25 25 25 25 25 25 26 27 28 29 31 32 33 33 33 32 32 32 31 30 29 29 29 29 29 29 29 28 29 29 29

GEFSCGP_500_meanwind_084.txt.gz
Wind_Speed
28 26 22 18 18 15 14 13 13 13 11 10 8 8 8 8 8 8 10 11 11 13 14 15 16 17 18 19 20 21 22 22 21 21 20 19 17 16 15 13 12 11 11 11
27 24 21 20 18 15 14 13 12 11 11 10 8 7 6 6 6 7 9 10 11 12 14 15 16 17 18 19 20 21 21 22 22 21 21 20 18 17 15 14 13 12 10 10
23 21 22 20 17 15 13 12 12 12 10 10 8 6 4 3 3 6 8 10 11 12 13 14 16 17 18 19 20 20 21 22 22 22 21 21 19 17 16 15 14 13 11 10
24 23 21 19 17 14 12 11 11 11 10 9 7 4 2 1 2 4 6 8 9 11 13 14 16 17 18 19 20 21 21 22 22 22 22 22 21 19 18 16 15 14 12 10
22 21 19 17 15 14 11 11 11 11 9 8 6 4 2 2 1 3 4 6 8 10 12 14 15 16 17 19 20 21 22 22 22 22 22 22 21 20 19 18 17 15 14 12
20 19 17 15 14 13 11 11 11 10 9 8 6 4 3 4 3 3 4 5 8 9 11 12 14 15 17 18 19 20 21 22 22 22 22 22 22 21 20 19 18 17 16 14
20 18 16 15 13 13 12 12 12 11 10 9 6 5 5 4 3 3 4 5 7 8 10 11 13 15 16 17 18 20 21 22 22 22 22 22 22 22 21 20 19 19 18 17
19 17 16 14 13 12 12 12 12 12 12 9 7 6 5 4 3 3 3 5 6 8 9 11 13 14 16 17 18 19 20 21 22 22 22 22 22 22 22 21 21 20 19 19
18 16 15 13 12 12 12 12 12 12 12 10 9 7 6 4 3 2 3 4 5 7 9 11 13 14 16 17 18 19 19 20 21 22 22 23 22 22 22 22 22 21 20 19
14 14 14 12 12 12 12 12 12 13 12 11 9 8 7 5 3 1 1 3 5 7 9 11 13 14 15 17 17 18 19 20 21 21 22 23 23 23 23 23 23 22 21 21
14 14 13 12 12 12 11 12 12 12 12 11 9 8 7 5 4 2 1 2 4 6 9 11 13 14 15 17 17 18 19 20 21 21 22 22 23 23 23 23 23 23 22 22
14 14 13 12 11 11 11 12 12 12 12 10 9 8 7 6 5 3 1 2 5 7 9 11 13 14 15 16 17 18 19 20 21 21 22 22 22 23 23 23 23 23 22 22
15 14 13 12 12 12 12 12 12 12 12 10 9 8 8 6 5 3 2 4 6 8 10 12 13 14 15 16 17 18 19 20 21 22 22 22 22 23 23 23 23 23 22 22
16 15 14 14 13 13 13 13 13 13 12 11 9 8 8 6 5 4 4 5 6 8 10 12 13 15 16 17 18 18 19 20 21 22 22 22 22 23 23 23 23 23 23 23
16 16 16 15 14 13 14 14 14 13 12 11 9 8 8 8 7 6 5 6 7 9 10 12 13 15 16 17 18 19 19 20 21 21 22 22 23 23 23 23 23 23 23 23
16 16 16 15 14 14 15 15 15 14 13 11 10 9 9 8 7 6 6 7 9 10 11 12 14 15 16 17 18 19 20 20 21 22 22 23 23 23 23 23 23 23 23 23
15 15 15 15 15 13 13 14 15 14 13 12 10 10 10 9 8 7 8 9 10 11 12 13 14 15 16 17 18 19 20 21 22 23 23 23 23 23 23 23 23 23 23 23
14 15 15 15 15 14 12 15 15 15 14 13 11 11 10 10 9 10 10 11 12 12 13 14 15 16 17 18 19 20 21 22 22 23 24 24 24 24 23 23 23 23 23 23
15 15 16 16 15 13 14 14 15 15 14 14 13 13 12 11 12 12 12 12 13 14 14 15 16 17 18 19 20 21 22 23 24 24 25 25 24 24 24 23 23 23 23 23
16 16 16 16 16 14 14 16 17 16 15 15 15 15 14 13 14 14 14 14 15 15 16 16 17 18 19 20 21 23 24 25 25 25 26 26 25 24 24 23 23 23 23 23
18 17 17 17 17 15 15 16 17 17 16 16 16 16 16 15 16 16 16 17 17 17 17 18 18 19 20 22 23 24 25 26 26 26 26 26 26 25 24 23 23 23 23 23
19 19 19 19 18 15 17 17 18 18 18 18 18 17 17 17 17 17 18 18 18 19 19 19 19 20 21 23 24 25 26 27 27 27 27 27 26 26 25 24 24 23 23 23
20 21 21 21 20 19 20 19 19 19 19 19 19 19 19 19 19 19 19 19 20 20 20 20 21 21 22 24 25 26 27 28 28 28 28 27 27 26 26 25 25 24 24 23
23 23 23 23 21 21 21 21 21 21 21 21 21 20 20 20 20 20 20 21 21 21 21 21 22 23 24 25 26 27 28 29 29 29 29 28 27 27 27 26 25 25 24 24
26 26 26 25 23 23 23 23 23 23 22 22 22 22 22 22 22 22 22 22 22 22 22 23 23 24 26 27 28 29 30 30 31 30 30 29 28 28 27 27 26 26 25 24
28 29 29 27 26 26 25 25 25 24 24 24 24 23 23 23 23 23 23 23 23 23 24 24 25 26 27 28 29 30 31 32 32 31 31 30 30 29 28 28 27 26 26 25

GEFSCGP_500_meanwind_090.txt.gz
Wind_Speed
30 27 22 19 19 19 17 14 12 12 11 10 10 11 10 9 7 6 5 3 2 4 6 8 10 12 13 15 16 18 19 20 21 21 21 21 21 20 19 18 16 14 12 11
27 24 21 21 20 18 16 14 14 12 11 11 10 10 10 8 7 6 4 3 1 3 5 7 9 11 13 15 16 18 19 21 21 21 22 22 21 20 19 18 17 15 13 11
23 21 21 20 18 16 14 14 14 13 12 12 11 10 10 8 7 5 5 4 2 2 4 6 8 11 13 14 16 18 19 20 21 21 22 22 21 20 19 18 17 16 14 13
22 22 21 19 17 15 15 15 15 14 13 12 12 10 10 9 7 6 5 4 2 2 3 5 8 10 12 14 16 17 19 20 21 21 22 22 22 21 20 19 18 17 15 13
20 20 19 17 16 16 16 16 15 14 14 12 11 11 10 9 8 6 6 5 3 1 2 5 8 10 12 14 15 17 18 19 20 21 22 22 22 22 21 20 19 18 16 14
20 19 18 17 17 16 16 15 15 14 13 12 11 10 9 9 8 7 6 5 2 0 2 5 8 10 12 14 15 16 17 18 19 20 21 22 22 22 21 21 19 19 17 15
19 18 18 18 17 16 15 15 15 14 13 11 11 10 9 9 9 7 6 5 2 1 2 5 8 10 12 13 15 16 17 18 19 20 21 21 21 21 21 21 20 19 18 17
17 17 16 17 16 15 15 15 15 14 13 12 11 10 10 10 10 8 7 5 3 2 3 5 8 10 12 13 14 15 16 17 18 19 20 21 21 21 21 21 20 19 19 18
16 16 15 16 15 15 15 15 15 15 14 13 11 10 10 11 10 9 7 5 3 2 3 6 8 10 12 13 14 15 16 17 18 18 19 20 20 20 20 20 20 20 19 18
15 15 15 15 15 15 14 14 15 16 15 13 11 10 10 11 10 9 8 6 4 3 4 6 8 10 11 13 13 14 15 16 17 18 19 19 20 20 20 20 20 19 19 19
13 14 14 15 15 14 14 15 16 16 15 14 12 11 12 12 11 10 8 6 5 4 5 6 8 10 11 12 13 14 15 16 17 18 19 19 20 20 20 20 20 19 19 19
11 12 12 13 14 14 14 15 15 16 16 14 12 11 13 12 11 10 9 7 6 5 6 7 8 9 11 12 13 14 15 16 16 17 18 19 20 20 20 20 19 19 19 19
11 12 12 13 14 15 15 15 15 16 16 14 12 11 14 13 12 11 10 8 7 6 7 7 8 9 10 12 13 14 15 16 16 17 19 19 20 20 20 20 19 19 20 20
12 13 14 14 15 16 16 16 16 16 15 14 13 13 15 15 14 13 11 10 9 8 8 8 8 9 10 12 13 14 15 16 17 18 19 20 20 20 20 20 20 19 19 19
14 15 15 16 17 17 17 16 16 16 15 14 13 14 15 16 15 14 12 11 10 9 9 8 9 9 10 12 13 14 15 16 17 18 19 20 20 20 20 20 20 19 19 19
15 16 16 17 17 18 17 16 17 16 15 15 14 14 16 16 15 14 13 12 11 10 10 9 9 10 11 12 13 15 16 16 17 18 19 20 20 20 20 20 20 20 20 19
16 17 17 17 17 17 15 15 17 16 15 15 14 15 17 16 16 15 14 13 12 12 11 10 10 11 11 12 14 15 16 17 18 18 19 20 20 20 21 21 21 21 20 20
16 17 17 17 17 16 13 16 16 16 15 15 15 16 16 17 16 15 15 14 14 13 12 12 12 12 12 13 14 15 16 17 18 18 19 20 20 21 21 21 21 21 21 20
17 18 18 17 17 14 14 15 16 15 14 15 16 16 17 18 17 17 17 16 15 14 14 13 13 13 13 14 15 16 17 17 18 19 20 20 21 22 21 21 21 21 21 20
19 19 19 18 17 14 13 16 16 16 14 16 17 17 18 18 18 18 18 17 17 16 16 15 15 15 15 15 16 17 17 18 18 19 20 21 22 22 22 22 22 22 21 21
20 21 20 20 19 16 16 17 18 17 16 18 19 19 19 19 20 20 19 19 18 18 17 17 16 16 16 17 17 18 18 19 19 20 21 22 23 23 23 23 23 22 22 22
23 23 22 22 21 18 19 19 19 19 20 20 21 21 21 21 21 21 20 20 20 19 19 19 18 18 18 18 18 19 19 20 20 21 22 23 24 24 24 23 23 23 23 22
27 26 26 25 23 22 22 22 22 22 22 22 23 23 23 23 23 22 22 22 22 21 21 20 20 20 20 20 20 20 20 21 21 22 23 24 24 25 25 24 24 24 23 23
30 30 30 29 26 26 26 25 25 25 25 25 25 25 25 25 24 24 24 24 24 23 23 23 22 22 22 21 21 21 21 22 23 23 24 25 25 26 26 25 25 25 24 23
33 34 34 33 30 30 29 29 29 29 28 28 28 27 27 27 26 26 26 26 26 25 25 24 24 24 23 23 23 23 23 23 24 25 26 26 27 27 27 26 26 26 25 24
36 37 38 37 35 36 34 33 33 33 31 31 30 30 29 29 29 29 29 28 27 27 27 26 26 25 25 24 24 24 25 25 26 26 27 28 28 28 28 28 27 26 26 25

GEFSCGP_500_meanwind_096.txt.gz
Wind_Speed
25 24 21 20 19 19 17 16 15 15 14 13 13 13 13 11 10 9 8 7 6 6 5 5 5 5 6 7 8 9 10 12 13 14 15 16 17 16 15 14 14 13 12 10
22 21 20 20 19 18 16 15 14 14 13 13 12 12 13 12 11 9 9 8 7 6 6 6 5 5 6 7 8 9 10 12 13 14 16 16 17 17 16 15 14 14 12 10
19 20 21 19 18 17 15 14 14 13 12 13 12 12 13 12 11 10 9 8 7 7 6 6 5 5 6 7 8 10 11 12 13 14 15 16 17 17 16 15 14 14 13 11
20 20 20 19 17 16 15 14 14 13 12 12 12 12 12 12 11 10 9 9 8 7 6 6 5 5 6 7 8 10 11 12 13 14 15 16 16 16 16 15 14 14 13 12
18 18 18 17 17 17 15 14 14 13 12 12 12 12 11 12 11 10 9 9 8 7 6 6 6 6 6 7 8 9 10 11 12 13 14 15 16 16 16 15 15 14 13 13
17 17 17 17 16 15 14 14 13 12 12 12 12 12 10 11 11 10 10 9 9 8 6 6 6 6 6 7 8 9 10 11 12 13 14 15 15 16 16 15 15 14 14 13
15 15 15 15 14 14 14 13 12 12 12 13 12 12 11 11 10 10 10 10 9 8 7 6 6 6 6 7 8 9 10 11 12 12 13 14 15 16 16 15 15 14 14 13
13 13 14 14 13 13 13 12 12 12 12 13 12 12 12 11 11 10 10 10 10 9 8 7 6 6 6 7 8 8 9 10 11 12 13 14 15 16 16 15 15 14 14 14
12 12 13 13 13 13 13 13 13 13 13 12 12 11 12 12 11 11 11 11 10 9 8 7 7 6 6 7 8 8 9 10 11 12 13 14 15 15 15 15 15 15 14 14
10 11 11 11 12 11 12 13 13 13 14 13 11 11 12 12 12 12 12 12 11 10 9 8 7 6 6 7 7 8 9 10 11 12 13 14 14 15 15 15 15 15 14 14
8 9 10 10 11 12 12 13 13 14 15 14 13 12 13 13 13 13 13 13 13 11 10 9 8 7 6 7 7 8 9 10 10 11 12 13 14 15 15 15 15 14 14 14
6 7 9 10 11 12 13 13 14 15 15 14 14 12 15 15 15 15 15 15 14 13 11 10 9 7 7 7 7 8 9 10 10 11 12 13 14 14 14 15 15 14 14 14
6 7 8 10 12 13 14 14 15 16 16 16 15 13 16 16 16 16 17 16 15 14 13 11 9 8 8 7 7 8 9 9 10 11 12 13 13 14 14 15 15 15 15 15
7 8 9 11 13 15 15 16 17 18 18 17 16 15 17 18 18 18 17 17 16 15 14 12 11 9 9 8 8 8 9 9 10 11 11 12 13 14 15 15 15 15 15 16
9 10 12 13 14 15 16 17 18 19 19 19 16 17 17 19 19 18 18 18 17 16 15 14 12 11 10 9 9 9 9 9 10 11 11 12 13 14 15 15 15 15 15 15
11 12 13 15 16 17 17 17 19 20 19 19 18 16 18 20 19 19 18 18 18 17 16 15 14 12 11 11 10 10 10 10 10 11 11 12 13 14 15 15 16 15 15 15
13 14 15 15 17 18 17 17 19 19 19 19 19 18 20 20 19 19 19 18 18 18 17 16 15 14 13 12 12 11 11 11 11 11 12 13 13 14 15 16 16 16 16 16
16 17 18 17 18 19 16 17 18 19 18 19 19 19 20 20 20 19 19 19 18 19 18 17 16 15 15 14 14 13 12 12 12 12 13 13 14 14 15 16 16 16 16 16
19 19 20 20 20 19 18 18 18 19 18 20 20 20 21 21 20 20 20 20 19 20 19 18 18 17 16 16 15 15 14 14 13 13 13 14 14 15 15 16 17 17 17 17
21 22 23 23 23 22 20 20 20 20 20 21 21 21 21 21 20 21 22 21 20 20 20 20 19 18 18 18 17 17 16 15 15 15 14 15 15 16 16 17 17 18 18 18
24 25 25 26 26 25 23 22 22 22 23 22 23 23 22 22 23 23 23 22 22 22 22 21 21 20 20 19 19 19 18 17 17 16 16 16 16 17 17 18 18 18 18 19
27 27 27 28 28 28 26 26 26 26 25 24 25 25 24 24 25 25 25 24 24 24 23 23 23 22 22 21 21 21 20 19 19 18 18 17 18 18 18 18 19 19 19 19
31 31 31 30 31 31 30 30 30 29 28 27 27 27 27 26 27 27 27 26 26 26 26 25 25 24 24 23 23 23 22 21 21 20 19 19 19 19 19 20 20 20 20 20
35 35 35 34 33 33 33 34 34 33 33 32 31 30 30 30 29 29 29 28 28 28 27 27 27 26 26 25 25 25 24 23 23 22 21 21 21 21 21 21 22 22 21 21
39 39 39 39 37 37 37 38 38 37 37 36 35 34 34 33 32 32 32 31 30 30 29 29 29 28 28 28 27 27 26 25 25 24 23 23 22 22 22 23 23 23 23 23
41 42 43 43 42 43 41 41 41 41 41 40 39 38 38 37 36 35 34 34 33 32 31 31 30 30 30 30 29 29 28 27 27 26 25 25 24 24 24 24 24 24 24 24

GEFSCGP_500_meanwind_102.txt.gz
Wind_Speed
19 19 18 17 16 14 14 15 15 15 13 12 13 13 13 13 11 11 11 10 10 9 8 8 8 9 9 10 11 12 14 15 16 17 18 19 19 20 19 19 18 17 17 16
16 16 16 17 16 15 15 15 15 15 13 13 12 12 11 12 11 10 10 10 10 10 9 8 9 9 9 10 11 12 13 15 16 17 17 18 19 19 19 19 18 17 16 15
14 15 16 17 17 16 16 15 14 14 12 11 10 9 10 10 10 11 10 11 11 11 10 8 9 9 9 10 11 12 13 15 15 16 17 18 19 19 19 19 17 17 16 15
14 15 15 16 16 15 15 15 13 11 10 8 8 8 9 11 11 11 10 11 11 11 11 9 9 9 9 10 10 12 13 14 15 15 17 18 18 19 19 18 17 16 16 15
12 13 14 14 14 15 14 12 10 8 7 7 7 7 9 13 13 12 11 11 11 11 11 10 9 9 9 10 10 11 12 13 14 15 16 17 18 18 18 18 17 16 16 15
10 10 11 12 12 11 9 8 7 6 5 5 6 8 10 14 14 13 11 11 11 11 11 10 10 9 9 10 10 11 12 12 13 14 15 16 17 18 18 18 17 16 15 15
8 8 8 8 9 8 7 7 6 4 4 5 7 11 12 15 14 14 12 11 11 11 11 11 10 10 10 10 10 11 11 12 12 14 15 16 17 17 18 18 17 16 15 14
3 3 5 6 7 6 7 7 6 6 5 7 8 10 14 16 15 14 13 12 12 12 11 11 11 10 10 10 10 11 11 12 12 13 14 15 16 17 18 17 17 16 15 14
3 3 4 5 6 7 6 7 7 9 8 9 7 9 15 17 15 13 13 13 13 13 12 12 11 11 11 10 10 11 11 11 12 12 13 15 16 16 17 17 17 16 15 15
3 4 5 5 5 6 7 8 9 10 10 9 8 8 14 18 17 14 14 14 14 13 13 13 12 12 11 11 11 11 11 11 11 12 13 14 15 16 16 16 16 16 15 15
3 3 4 5 6 7 8 9 10 11 11 11 11 11 16 19 18 17 16 15 14 14 14 14 13 13 12 11 11 11 11 11 11 11 12 13 14 15 16 16 16 16 16 15
3 2 3 6 7 9 10 11 12 13 13 14 16 15 17 20 20 18 17 16 16 15 15 15 14 14 13 12 12 11 11 11 11 11 12 12 13 15 15 16 16 15 15 15
3 3 4 6 9 11 12 12 14 15 16 15 16 16 17 20 21 20 19 17 16 16 16 16 15 15 14 14 13 12 11 11 11 11 11 12 13 14 15 15 15 15 16 15
4 5 6 9 11 13 14 15 16 17 17 17 17 18 18 21 22 22 21 19 18 17 17 17 17 16 16 15 14 13 12 12 11 11 12 12 13 14 14 14 15 16 16 15
7 7 9 12 13 15 16 17 18 18 18 20 19 20 21 23 24 23 22 21 19 19 19 18 18 18 17 16 16 15 14 13 12 12 12 12 13 13 13 14 15 15 16 16
10 11 12 13 14 16 17 17 18 19 20 21 21 21 21 23 23 24 23 21 20 20 20 20 19 19 19 18 17 16 16 15 14 13 13 13 13 13 14 14 15 15 16 16
13 14 15 15 16 18 17 18 20 21 21 23 23 23 23 22 22 23 23 22 22 21 22 21 21 21 20 20 19 18 17 17 16 15 14 14 14 14 14 14 15 15 15 16
16 17 18 18 18 19 17 20 22 23 23 24 25 24 23 22 22 23 24 23 23 22 22 23 22 22 22 21 20 20 19 18 18 17 16 16 15 15 15 15 15 15 15 16
18 20 21 21 22 21 21 22 23 23 25 26 26 26 24 23 23 25 25 24 23 23 23 23 24 24 23 23 22 21 21 20 20 19 18 17 17 16 16 16 15 16 16 16
22 22 23 23 24 24 24 25 25 26 28 28 28 27 25 24 24 25 26 25 24 25 24 24 25 25 25 25 25 24 23 22 21 21 20 19 19 18 17 17 17 16 17 17
27 26 26 26 26 26 28 28 28 28 30 31 31 30 29 27 27 27 27 27 26 26 26 26 26 26 26 26 26 26 25 24 23 23 22 22 21 20 19 19 18 18 18 18
29 29 29 30 30 31 32 32 32 33 33 34 34 33 32 31 31 30 29 29 29 29 29 29 28 28 28 28 28 28 27 26 26 25 24 24 23 22 21 21 20 20 19 19
32 32 32 33 33 35 36 37 37 37 37 37 38 38 36 35 34 34 33 32 32 31 31 32 31 30 30 30 30 30 29 29 28 27 27 26 25 24 23 23 22 21 21 20
35 37 37 37 36 39 40 41 41 41 41 42 42 42 41 40 38 38 37 36 35 34 34 34 34 33 33 32 32 32 32 31 30 29 29 28 27 26 26 25 24 23 23 22
38 40 40 41 41 42 44 45 45 45 45 45 45 45 45 44 42 41 40 39 39 38 37 37 36 36 35 35 34 34 34 33 32 32 31 30 29 28 27 27 26 25 24 24
41 42 44 45 45 46 47 48 48 48 48 48 48 47 46 46 45 44 43 42 42 41 40 40 39 39 38 37 36 36 35 35 34 33 33 32 31 30 29 28 28 27 26 25

GEFSCGP_500_meanwind_108.txt.gz
Wind_Speed
17 17 15 14 14 14 12 11 8 7 7 6 6 6 5 6 6 7 6 5 5 6 6 7 6 5 6 6 8 9 10 11 12 13 14 16 17 18 18 18 18 17 17 16
16 16 15 14 14 14 11 7 6 6 4 3 4 5 5 5 5 5 6 5 5 6 6 7 6 6 6 6 8 9 10 11 12 13 14 15 16 17 18 18 18 18 17 16
15 15 15 14 13 12 9 5 3 3 3 4 4 4 4 3 3 4 5 5 5 5 6 6 6 5 6 6 8 9 10 11 11 12 13 14 15 17 17 18 18 18 16 15
16 15 14 12 9 7 5 4 2 2 3 3 3 2 2 1 2 3 4 5 5 5 6 6 6 6 6 7 8 9 10 11 11 11 12 13 15 16 17 18 18 17 16 15
14 12 11 9 7 5 5 4 3 3 3 1 1 2 1 1 3 4 5 5 5 5 5 5 5 6 6 7 8 9 10 10 10 10 11 13 14 16 16 17 17 17 16 14
12 11 9 8 7 6 5 4 3 2 2 0 1 2 2 2 4 6 6 6 5 5 5 5 6 7 7 7 8 9 9 10 10 10 11 12 14 15 16 16 17 17 16 14
13 10 9 8 7 5 4 3 2 1 1 1 2 3 3 4 5 6 7 7 6 6 6 6 7 7 8 8 8 9 9 10 10 10 11 12 13 14 15 15 16 16 15 14
11 10 9 8 6 5 3 2 1 1 1 1 3 4 5 6 7 8 8 8 7 7 7 7 8 8 9 9 9 9 9 9 9 10 10 11 12 13 14 14 15 15 15 14
11 10 8 7 5 4 2 1 0 1 1 2 4 6 6 7 8 9 9 8 8 8 8 8 9 9 10 10 10 10 10 10 10 10 10 11 12 13 13 13 14 14 15 14
9 8 8 6 4 3 1 1 1 2 3 4 5 7 9 10 10 10 10 10 9 9 9 9 10 10 11 11 11 10 10 10 10 10 10 10 11 12 13 13 13 14 14 13
7 6 5 4 3 1 1 2 3 4 6 6 6 7 10 12 12 12 12 12 12 11 10 10 11 12 12 12 12 11 11 11 11 10 10 10 11 11 12 12 12 13 13 13
5 5 3 2 2 1 3 4 5 6 8 9 9 8 12 14 14 14 14 13 13 13 12 12 12 13 13 13 13 13 12 12 11 11 11 10 11 11 11 12 12 12 12 12
5 4 3 3 3 4 5 6 7 8 9 10 12 11 13 15 15 15 14 14 13 14 14 14 14 14 14 15 14 14 14 13 13 12 11 11 11 11 11 11 11 11 11 11
5 5 5 5 5 6 7 8 9 10 11 12 12 13 14 15 16 16 16 16 15 15 15 15 15 15 15 16 16 16 16 15 14 14 13 12 12 11 11 11 11 11 11 11
6 6 7 7 8 9 9 9 10 11 11 13 13 14 15 16 17 17 17 17 17 16 15 15 16 17 17 17 17 17 17 17 16 16 15 14 13 12 12 11 11 11 11 11
7 8 9 10 11 12 11 12 13 13 14 14 15 15 16 17 17 18 18 18 18 17 17 17 17 18 19 19 19 19 19 19 18 18 17 17 16 15 14 13 12 12 11 11
10 11 11 12 13 13 13 14 16 16 16 16 17 17 18 18 19 19 19 19 18 19 19 19 19 20 21 21 21 21 21 21 20 20 19 19 18 17 16 15 14 13 12 12
12 13 13 14 14 14 14 16 16 17 17 18 19 20 20 20 21 21 21 21 20 20 20 20 21 21 22 22 22 23 23 23 23 22 21 21 20 19 18 17 16 15 14 13
15 16 16 17 17 16 17 18 19 19 19 20 21 22 22 23 24 24 24 23 23 24 24 23 23 23 23 24 24 24 25 25 24 24 23 23 22 22 21 19 18 17 16 15
18 19 20 20 20 21 21 21 22 24 24 24 24 25 25 26 26 26 27 26 26 26 27 27 26 25 26 26 26 26 27 26 26 26 26 25 24 24 23 22 21 19 18 17
21 22 23 24 24 25 25 25 26 27 28 28 29 29 29 29 30 30 29 29 29 29 29 29 29 29 29 29 29 28 29 29 29 29 28 28 27 26 25 24 23 22 21 20
24 25 26 27 28 28 28 29 30 31 32 32 32 33 33 34 34 34 34 33 33 33 33 33 33 32 32 33 32 31 31 31 32 31 30 30 29 29 28 26 26 25 23 22
27 28 29 30 30 31 32 32 33 34 35 35 36 36 37 37 38 38 38 38 37 37 37 37 36 35 36 36 35 34 34 34 34 33 33 32 32 31 30 29 28 27 26 24
30 32 32 33 33 34 35 36 37 37 38 39 39 40 41 42 42 42 41 41 41 40 40 40 40 39 38 38 38 37 37 36 36 35 35 35 34 33 32 31 30 29 28 26
33 35 36 37 37 38 39 40 40 40 41 42 43 43 44 45 45 46 45 45 44 43 43 43 42 41 40 40 40 40 40 39 38 38 37 37 36 36 34 33 32 31 30 29
37 38 39 39 40 42 42 43 44 44 45 45 46 46 47 47 48 48 48 47 47 46 45 45 44 43 42 42 42 42 42 41 41 40 39 39 39 38 37 35 34 33 32 31

GEFSCGP_500_meanwind_114.txt.gz
Wind_Speed
17 17 17 16 15 14 13 11 10 9 8 7 6 5 5 5 6 7 7 8 8 8 9 9 8 8 8 8 7 7 8 9 10 11 11 12 13 14 15 16 16 17 16 16
17 17 16 14 13 12 11 9 8 8 7 6 5 4 4 5 5 6 6 7 8 8 8 8 8 8 8 8 7 8 8 9 10 10 11 12 13 14 15 16 16 17 16 16
16 15 14 13 12 10 10 9 8 7 6 6 5 4 4 4 4 5 6 8 8 8 8 8 7 7 8 8 8 8 8 9 9 10 11 12 12 13 14 15 16 17 17 16
16 14 12 12 12 10 10 9 7 7 6 5 4 3 3 3 3 5 6 7 8 8 8 7 7 8 8 8 8 8 8 9 9 10 11 11 12 13 14 15 16 17 17 16
15 14 14 13 11 10 8 8 7 6 6 5 4 3 2 3 3 4 6 6 7 7 8 7 8 8 8 8 8 8 9 9 9 10 11 11 12 13 14 15 16 17 17 17
16 15 14 13 11 10 8 8 7 6 5 5 3 2 2 2 3 4 5 5 6 7 7 7 7 8 8 8 8 9 9 10 9 10 11 11 12 13 13 14 15 17 17 17
15 14 13 12 11 9 8 7 6 6 5 3 2 2 2 2 3 4 5 6 6 7 8 7 8 8 9 9 9 9 10 10 10 10 11 11 12 12 13 14 15 16 17 16
13 13 12 11 10 9 7 6 5 4 3 3 2 1 2 3 3 4 5 6 6 7 8 8 8 9 9 9 10 10 10 10 11 11 11 11 12 12 13 14 14 15 16 15
11 11 10 9 8 7 5 4 3 2 2 2 1 1 2 4 4 5 6 6 7 8 8 9 9 9 10 10 10 11 11 11 12 12 12 12 12 12 13 13 14 14 15 15
9 8 8 7 6 5 4 3 1 1 1 1 2 2 3 4 6 6 7 7 8 8 9 9 10 10 10 11 11 12 12 13 13 13 13 13 13 12 13 13 13 14 14 14
8 6 6 5 4 3 3 1 1 1 2 2 3 4 5 6 6 7 7 8 8 9 9 10 10 11 11 12 12 13 13 14 14 14 14 14 14 13 13 13 14 14 14 13
7 6 5 4 3 3 2 2 2 3 3 4 5 5 7 7 8 8 9 9 10 10 11 11 12 12 13 13 14 14 14 15 15 15 15 15 15 15 14 14 14 14 13 13
5 5 4 4 3 3 3 4 4 4 5 5 6 7 8 9 10 10 11 12 12 12 13 13 14 14 14 15 15 16 16 16 16 17 17 17 17 16 16 15 15 15 14 13
4 4 4 3 4 4 5 5 5 6 6 7 7 8 9 10 11 12 12 13 14 14 15 16 16 16 16 17 17 18 18 18 18 18 18 18 18 18 18 17 17 16 15 14
4 4 4 4 5 5 6 7 8 8 8 8 9 10 11 12 13 14 14 15 16 16 17 17 18 18 18 19 19 20 20 20 20 20 20 20 20 20 20 19 19 18 17 16
3 4 4 5 6 6 7 8 9 9 10 10 11 12 14 15 15 16 17 17 17 18 19 19 20 20 21 21 21 22 22 22 22 22 22 23 23 22 22 22 21 20 19 18
4 5 5 6 8 9 9 10 11 11 12 13 14 15 16 17 18 19 19 20 19 20 21 22 22 23 23 23 24 24 24 24 25 25 25 25 25 25 25 24 24 23 22 21
5 6 7 8 10 10 11 12 12 13 14 14 16 17 18 19 20 21 22 22 23 23 23 24 25 25 26 26 26 26 27 27 27 27 27 27 27 27 27 27 26 26 24 23
7 8 9 10 12 12 14 14 14 15 16 17 18 19 21 22 23 24 24 25 26 26 26 27 27 28 28 29 29 29 30 30 30 30 30 30 30 30 30 29 28 28 27 26
10 11 12 13 15 15 16 17 17 18 18 20 21 22 24 25 26 26 28 28 29 30 31 31 31 31 31 32 32 32 32 33 33 33 33 33 32 32 32 32 31 30 30 29
14 14 15 17 18 19 19 20 21 22 22 24 24 25 27 28 29 30 31 32 33 34 34 34 35 36 36 36 36 36 36 36 36 36 36 35 35 35 34 34 34 33 32 31
17 18 18 20 21 22 23 23 24 25 27 27 28 30 31 32 33 34 35 36 37 38 39 39 39 40 40 40 40 40 40 40 39 39 39 39 38 38 37 36 36 35 35 34
20 21 22 23 24 25 26 26 27 28 30 31 32 33 35 36 37 38 39 40 41 42 43 43 43 43 44 44 44 43 43 43 42 42 42 42 41 40 39 38 37 37 37 36
24 25 26 27 27 28 29 29 31 32 33 34 35 37 38 40 41 43 43 44 45 46 47 48 48 47 47 47 46 46 46 45 45 45 44 44 43 42 41 40 40 39 38 38
27 29 29 29 30 31 32 33 34 35 36 38 39 41 42 43 45 46 47 48 48 49 50 50 51 50 49 49 48 48 48 48 47 46 46 45 45 45 44 42 41 41 40 40
31 32 32 32 33 34 35 36 37 39 40 41 43 44 45 47 48 49 50 50 50 50 51 51 51 52 51 50 49 49 49 49 48 47 47 47 47 47 47 46 44 44 43 42

GEFSCGP_500_meanwind_120.txt.gz
Wind_Speed
19 19 18 18 17 16 15 13 13 12 11 9 8 9 8 7 6 6 5 5 6 6 6 7 8 8 9 9 9 10 10 10 10 11 11 12 13 13 13 14 14 15 15 16
19 18 18 17 16 15 14 12 12 11 10 9 8 7 7 6 5 5 6 6 5 5 6 7 7 8 8 9 9 9 9 10 10 11 11 12 13 13 13 14 14 15 16 16
18 18 17 17 16 14 13 11 10 9 9 8 8 7 6 5 4 4 5 6 5 5 5 6 7 8 8 9 9 9 10 10 11 11 11 12 13 13 13 14 15 15 16 16
18 17 16 15 13 13 12 10 10 9 9 8 8 6 5 4 3 4 4 4 5 5 5 6 7 7 8 9 9 9 10 11 11 11 11 12 13 13 14 14 15 15 16 16
17 16 15 14 13 13 11 10 10 9 9 8 8 6 4 3 3 3 3 4 4 5 5 6 6 7 8 9 9 9 10 11 11 11 12 13 13 14 14 15 15 16 16 16
16 15 15 13 13 12 11 11 9 9 8 8 7 6 4 3 3 3 4 4 4 5 6 6 6 7 8 8 9 10 10 11 12 12 12 13 14 14 15 15 16 16 16 17
15 14 13 13 13 13 12 11 10 9 8 8 7 5 4 3 2 3 4 4 5 5 6 6 7 7 8 9 9 10 11 11 12 12 13 13 14 15 15 16 16 16 16 16
14 14 13 13 13 12 11 11 11 9 8 7 6 5 4 3 3 3 4 4 5 6 6 7 7 8 8 9 10 11 12 12 13 13 14 14 14 15 16 16 16 17 16 16
13 12 12 12 11 10 10 9 8 8 7 5 5 4 4 3 4 4 5 5 5 6 6 7 8 8 9 10 11 12 13 13 13 14 15 15 15 15 16 16 17 17 17 16
12 11 11 10 9 9 8 7 7 6 5 4 4 5 4 5 4 5 5 6 7 7 7 8 8 8 9 10 11 13 13 14 14 15 16 16 16 17 17 17 17 17 17 17
11 10 9 9 8 7 6 5 4 4 4 4 4 5 4 5 5 6 6 6 7 8 8 9 9 10 10 11 12 13 14 14 15 16 17 17 18 18 18 18 18 18 18 18
10 9 8 7 6 6 5 4 4 3 3 3 4 4 4 5 6 6 7 8 9 9 10 10 11 12 12 13 14 15 15 16 17 17 18 18 19 19 19 19 20 20 19 19
8 8 7 6 5 4 3 3 3 2 2 3 4 4 5 6 7 8 8 9 10 10 11 11 12 13 14 15 15 16 17 18 19 19 19 20 20 21 21 21 21 21 21 20
7 7 7 6 5 4 3 3 2 1 2 3 3 5 5 7 8 9 10 11 11 12 13 12 13 14 15 16 17 18 19 20 20 21 21 22 22 23 23 23 23 22 22 22
7 6 6 5 4 4 3 2 2 1 2 3 5 5 7 8 9 11 12 12 13 14 14 15 15 16 17 18 19 20 21 22 22 23 23 24 24 25 25 25 25 25 24 24
6 6 5 5 4 4 3 2 2 3 4 5 6 7 8 10 11 12 12 13 14 15 16 17 18 18 19 20 21 22 23 24 24 25 26 26 27 27 27 27 28 27 27 26
6 5 5 5 4 4 3 3 4 5 6 7 8 9 10 11 12 13 14 14 15 16 17 18 20 20 21 22 24 25 26 26 27 28 29 29 29 30 30 30 30 30 30 29
6 6 6 6 6 6 5 6 6 7 8 9 10 11 12 13 14 15 16 17 18 19 19 20 21 22 23 24 26 27 28 29 30 31 32 32 32 32 33 33 33 32 32 32
7 7 7 7 8 7 7 8 9 9 9 10 12 13 14 15 16 18 19 20 21 21 22 24 25 26 27 28 29 30 32 33 34 35 35 36 36 35 36 36 35 35 35 34
9 9 10 10 10 10 10 10 11 12 12 13 14 16 17 18 19 20 21 23 24 25 26 27 29 30 30 31 32 34 35 36 38 39 39 39 39 39 39 39 38 38 37 37
12 12 12 13 13 13 13 13 14 15 15 16 17 19 20 21 23 24 25 26 27 28 30 31 32 33 34 35 36 38 39 40 40 41 41 41 41 41 41 41 41 41 40 40
15 15 15 15 16 16 16 16 17 18 19 19 20 21 22 24 25 26 28 29 31 32 33 34 35 36 38 39 40 40 41 42 43 43 43 43 43 43 43 43 43 42 42 42
18 18 18 18 18 18 19 19 20 21 21 22 23 24 25 27 28 30 31 32 34 35 36 37 39 40 41 42 42 43 44 45 45 45 45 45 45 45 45 44 44 43 43 42
22 21 22 21 21 22 22 22 23 23 24 25 25 27 28 29 31 33 34 35 36 37 39 40 41 43 44 44 44 46 46 47 47 47 46 46 46 45 45 44 44 43 43 43
24 24 25 25 25 25 25 25 26 26 27 27 28 30 31 33 34 36 36 37 39 40 41 42 43 45 46 47 47 48 48 48 48 48 47 47 47 47 46 45 44 44 43 44
27 28 29 28 28 28 28 28 29 29 30 31 32 33 34 35 36 38 39 40 41 42 43 44 46 47 48 49 49 49 49 49 50 49 49 48 48 48 48 47 46 45 44 44

GEFSCGP_500_meanwind_126.txt.gz
Wind_Speed
18 19 19 18 18 16 14 12 11 9 8 8 6 6 6 5 5 6 5 5 6 5 5 5 6 6 6 6 6 7 7 8 9 10 10 10 11 12 14 15 16 17 18 18
18 18 19 19 18 16 13 12 9 8 8 7 5 5 5 6 6 4 4 4 4 4 4 4 5 5 6 6 6 7 7 8 9 9 10 10 11 12 14 15 16 17 18 18
17 16 17 17 16 15 14 13 10 8 6 6 5 4 5 5 4 3 3 4 4 4 4 4 5 5 6 6 6 6 7 8 9 10 10 10 11 13 14 15 16 17 18 18
16 16 16 16 15 15 13 10 8 7 7 6 4 3 4 3 3 3 3 3 4 4 4 4 5 5 5 6 6 6 7 8 9 9 10 11 12 13 14 15 16 17 18 18
14 15 15 14 14 14 12 10 9 8 8 7 6 4 3 3 3 3 3 3 3 3 4 4 5 5 5 6 6 6 7 9 10 10 11 12 12 13 14 15 16 17 18 18
13 13 13 13 12 11 11 11 10 10 10 9 5 4 3 4 4 4 3 3 3 3 4 4 4 5 5 5 6 6 7 9 10 11 11 12 13 14 14 15 16 17 18 18
11 12 12 12 13 13 13 12 11 11 9 7 4 6 6 6 6 5 4 4 3 3 3 4 4 4 5 5 6 6 8 9 10 11 12 12 13 14 15 16 16 17 18 18
10 10 11 12 13 13 13 12 11 10 8 7 7 8 7 6 6 5 5 4 4 4 4 4 5 5 5 6 6 7 8 9 11 12 12 13 14 15 16 16 17 17 18 19
8 8 9 11 12 14 13 9 9 9 7 6 7 7 7 6 6 5 5 5 5 5 5 5 5 5 6 7 7 8 9 10 12 13 13 14 15 16 17 17 18 18 18 19
9 7 9 10 12 11 11 12 8 6 6 6 7 7 6 6 6 6 5 5 5 5 6 5 5 6 7 8 8 9 10 11 12 13 14 15 16 17 18 19 19 19 19 20
10 8 8 10 11 11 10 11 8 7 6 5 7 7 7 6 6 6 6 6 6 6 6 6 7 7 8 9 9 10 11 12 13 14 15 16 17 18 19 20 20 20 21 21
10 9 6 6 8 9 10 10 10 9 8 7 8 8 7 7 7 7 8 7 7 7 7 8 8 9 10 10 11 12 12 14 15 16 17 18 18 20 21 21 22 22 23 23
11 9 5 3 5 7 8 9 9 7 7 7 8 8 8 8 8 8 8 8 8 9 9 10 10 11 11 11 12 13 14 15 16 18 19 20 20 21 22 23 24 24 25 25
10 9 7 6 6 6 7 8 9 8 7 7 9 8 8 8 9 8 8 9 9 10 11 11 12 12 12 12 13 15 16 17 18 19 21 22 23 24 25 25 26 26 27 27
11 9 8 8 8 8 7 8 8 8 8 8 9 8 8 9 9 9 10 10 10 11 11 12 12 13 14 14 15 17 18 19 20 22 23 24 25 26 27 28 28 29 29 29
10 9 9 9 9 9 8 8 8 9 9 9 10 9 9 9 9 10 10 11 11 12 12 12 13 15 16 16 17 19 20 21 23 24 25 26 27 28 29 30 31 31 31 31
11 10 9 8 9 9 8 8 9 9 10 10 10 10 9 10 10 11 11 12 12 13 13 14 15 16 17 18 19 20 22 23 24 25 27 27 28 30 31 32 33 33 33 34
11 11 11 10 10 10 8 9 10 10 10 11 11 11 11 12 13 13 13 14 14 14 14 15 16 18 19 20 21 22 24 26 27 28 29 31 32 33 34 35 35 35 36 36
13 13 13 12 12 11 10 10 11 12 12 12 13 13 13 14 14 15 15 16 16 16 17 18 19 20 21 23 24 25 26 28 29 31 32 34 35 36 36 37 38 38 38 38
14 15 15 14 14 15 12 12 13 14 14 14 15 16 16 17 17 17 18 18 19 19 20 21 22 23 24 25 27 28 29 31 32 33 35 36 37 38 38 39 40 41 41 41
17 17 17 17 17 18 15 14 16 16 15 16 17 18 19 19 20 20 20 21 22 23 23 24 25 26 27 28 30 31 33 34 35 37 38 39 40 41 41 42 42 43 43 42
20 20 20 20 21 20 18 18 19 19 19 19 20 21 21 22 22 23 23 24 25 26 27 28 28 29 30 32 33 34 35 36 38 39 41 42 42 43 43 44 44 44 44 43
23 23 23 23 23 22 21 21 21 22 22 22 23 23 24 25 25 26 26 27 28 28 29 30 31 32 34 35 36 37 38 39 40 42 43 43 44 44 44 45 45 45 45 45
26 26 26 27 26 25 25 25 25 25 25 25 26 27 27 28 28 29 29 30 30 31 32 33 34 35 37 38 39 40 41 42 43 44 44 45 45 45 45 46 46 46 46 46
29 28 29 30 29 29 28 28 28 28 28 29 29 30 30 31 31 32 32 33 33 34 35 36 37 38 39 40 41 42 44 45 45 46 45 46 46 47 47 47 47 47 47 47
32 32 32 33 33 33 32 31 31 32 32 32 32 32 33 34 34 35 35 35 36 37 38 39 40 41 41 42 43 44 45 47 47 47 47 48 48 48 49 49 48 48 49 49

GEFSCGP_500_meanwind_132.txt.gz
Wind_Speed
20 19 19 18 17 16 16 16 14 12 11 9 7 7 6 5 4 4 4 4 4 3 3 3 4 3 3 2 2 2 2 2 3 4 4 4 5 6 7 8 9 10 11 13
20 19 19 19 18 17 16 16 14 13 11 9 7 6 6 5 5 3 3 3 4 3 4 3 3 2 2 2 1 1 2 2 3 4 4 5 6 7 8 9 10 11 12 13
18 19 19 18 18 18 15 14 13 12 10 9 8 7 7 5 4 3 3 3 3 3 3 3 3 3 3 3 2 1 1 2 3 4 4 5 6 7 8 9 9 10 11 12
18 18 18 17 17 16 14 12 11 11 10 10 9 8 7 5 4 3 3 3 3 3 3 3 3 3 3 3 2 2 2 2 3 4 5 5 6 7 8 9 10 10 11 12
16 17 17 16 16 15 14 13 11 11 10 10 9 7 7 5 3 3 2 2 2 2 3 3 3 3 3 3 2 2 2 3 3 4 5 5 6 7 8 8 9 10 11 12
14 14 14 14 14 15 14 13 12 11 10 10 9 7 6 5 4 2 1 2 2 2 3 2 2 2 2 2 2 2 3 3 3 4 4 5 6 8 9 9 10 11 12 13
14 14 14 14 14 14 14 14 13 12 12 10 9 8 6 5 3 2 1 1 2 2 2 2 2 2 2 2 3 3 2 3 3 4 5 6 7 8 9 10 11 12 12 13
13 14 13 14 14 13 13 14 13 13 12 11 10 8 6 4 2 1 1 1 2 2 2 2 2 2 2 2 3 3 3 3 4 5 6 7 8 9 9 10 11 12 13 14
12 12 13 13 14 13 13 13 13 12 11 10 9 7 5 4 2 1 1 2 2 3 3 3 3 3 2 3 3 3 3 4 4 5 7 8 8 9 10 11 12 13 14 15
11 12 13 13 13 12 12 12 13 12 11 9 8 6 4 3 2 2 2 2 3 4 4 4 4 4 3 4 4 4 4 5 5 6 7 8 9 10 12 12 13 14 15 16
11 12 12 12 11 11 11 11 11 11 10 8 6 5 4 3 2 2 3 3 4 4 5 5 4 4 4 5 5 5 6 6 7 8 8 10 11 12 13 14 15 16 17 18
11 12 11 12 12 11 11 11 10 10 9 8 6 5 5 4 4 4 4 4 4 5 5 5 5 5 6 6 6 7 8 8 8 9 10 11 13 14 15 16 17 17 18 19
10 10 11 12 11 11 11 11 11 11 10 9 7 5 5 5 5 5 6 6 5 6 6 6 6 7 7 7 7 8 9 10 10 11 12 14 15 16 16 17 18 19 21 22
9 9 10 10 10 10 10 10 11 11 10 9 8 7 6 7 7 7 6 6 6 7 7 8 8 8 8 8 9 9 10 12 12 13 14 16 17 18 19 19 21 22 23 24
9 9 9 10 10 11 11 11 11 11 10 9 8 8 7 7 7 7 7 6 7 8 9 9 9 10 10 10 11 11 12 13 14 15 17 18 19 20 21 22 23 25 26 27
10 11 10 9 10 11 11 10 11 11 10 9 9 8 7 7 7 7 7 7 8 9 9 10 10 11 12 12 13 13 15 16 17 18 19 20 21 22 23 25 26 28 28 29
12 12 12 11 12 11 10 9 10 11 10 10 9 9 9 8 7 7 8 8 9 10 11 11 12 13 13 14 15 16 17 18 19 20 21 22 24 25 26 28 29 30 31 32
12 13 13 13 13 12 9 10 11 11 11 11 10 10 9 8 9 9 9 10 10 11 12 12 13 14 15 16 17 18 19 20 21 22 23 25 26 28 29 31 32 33 34 35
15 15 15 15 15 13 11 11 12 12 11 11 11 10 10 11 11 10 11 12 12 13 13 14 15 16 17 19 19 20 21 22 24 25 26 28 29 31 32 33 34 35 36 37
17 17 17 16 16 14 12 13 13 13 12 12 12 12 12 12 12 12 14 14 14 15 16 16 17 18 19 21 22 23 24 25 26 28 29 30 32 33 34 35 36 38 39 40
18 18 18 17 17 15 14 14 14 14 12 13 14 14 14 14 15 16 16 17 17 17 18 19 20 22 23 24 25 26 28 28 29 30 32 33 35 36 36 38 39 40 41 42
19 19 19 19 18 15 15 16 15 16 16 16 16 16 17 17 18 18 18 19 20 21 22 22 23 24 25 27 28 29 30 31 32 34 35 36 37 38 39 40 42 43 43 43
22 21 21 21 19 19 19 18 19 19 19 19 18 19 19 20 20 21 21 22 23 24 25 26 26 27 28 29 31 31 32 33 34 36 37 38 39 41 42 43 44 44 44 45
24 24 23 23 22 21 21 21 21 22 22 22 22 22 23 23 23 24 24 25 26 27 27 28 29 30 31 32 33 34 35 36 37 38 39 40 41 43 44 44 45 45 46 46
27 27 27 27 25 25 25 24 25 25 25 25 25 26 26 27 27 27 28 28 29 30 30 31 32 33 34 35 35 36 37 38 39 40 41 42 44 45 45 46 46 47 48 48
28 28 29 29 28 29 28 28 28 28 28 28 29 29 29 30 30 30 31 31 32 32 33 34 35 35 36 37 38 38 39 40 41 42 44 45 46 47 47 48 48 49 49 49

GEFSCGP_500_meanwind_138.txt.gz
Wind_Speed
16 16 17 17 18 16 15 14 13 13 13 12 11 10 10 9 8 8 8 7 7 6 6 6 5 5 5 5 4 4 4 4 4 5 5 5 6 7 7 8 9 10 11 12
15 16 16 16 17 15 15 14 13 12 12 13 12 11 9 9 9 9 8 8 7 7 6 5 5 5 5 4 4 4 4 4 4 5 5 5 6 7 8 9 10 11 12 12
14 15 15 15 15 14 13 13 12 12 11 11 11 10 9 9 9 9 9 9 8 7 6 5 5 5 5 5 4 4 4 4 4 4 4 5 6 7 7 9 10 11 12 12
13 14 14 14 14 13 12 13 13 13 12 11 11 10 10 10 10 9 8 8 7 7 6 6 5 5 5 5 5 4 4 4 4 4 4 4 5 6 7 8 10 10 11 12
12 13 13 13 13 13 12 13 13 13 12 11 11 11 10 10 9 8 8 7 7 6 5 5 5 5 5 5 5 4 4 3 4 4 4 4 5 6 7 8 9 10 11 13
12 11 12 13 13 12 12 12 13 13 12 11 11 11 11 10 9 8 8 8 7 6 6 5 5 5 5 5 5 4 4 4 4 4 4 4 5 6 7 8 9 11 11 12
10 11 12 12 13 13 13 12 12 12 12 11 10 11 10 9 9 8 7 7 7 6 6 6 5 5 5 5 5 5 4 4 3 3 4 4 5 6 8 9 10 11 12 13
9 10 11 11 12 12 12 12 12 11 9 9 10 9 8 8 8 7 7 7 6 6 6 6 6 6 5 5 5 5 4 4 4 4 4 5 5 6 8 9 10 11 12 13
9 10 10 10 10 11 11 12 12 12 10 10 9 8 8 8 7 7 7 7 6 6 6 6 6 5 5 5 5 5 5 4 4 4 5 5 6 7 8 9 10 12 13 14
8 9 10 10 10 10 11 11 11 11 10 9 8 7 7 8 8 8 7 7 6 6 6 6 5 5 5 5 5 5 5 5 5 5 5 6 7 8 9 10 12 13 14 15
8 9 9 10 10 10 10 10 11 10 10 9 8 7 8 8 9 8 7 7 7 7 6 6 6 6 6 5 5 5 5 5 5 6 7 8 9 10 11 13 13 14 15 16
7 8 9 9 9 9 9 10 11 11 10 9 8 7 8 8 8 8 8 7 7 8 7 7 7 6 7 6 6 6 6 6 6 7 8 9 10 12 13 14 15 16 17 18
8 8 8 8 8 9 10 10 10 11 10 10 9 7 9 9 9 9 9 9 9 8 8 8 7 7 7 7 7 7 7 7 7 9 10 11 12 13 14 15 17 18 19 20
9 9 8 8 7 8 9 9 10 10 9 9 8 9 9 10 10 10 10 10 9 9 9 8 8 8 8 8 7 8 8 8 9 10 11 12 14 15 16 17 18 19 20 21
10 10 10 10 9 9 9 10 11 11 10 10 9 10 10 11 11 11 11 10 10 9 9 9 8 9 9 9 9 9 10 11 11 12 13 14 15 17 17 19 20 21 22 24
12 11 11 11 12 11 11 10 11 11 11 11 11 10 11 12 12 11 11 11 10 10 10 9 10 10 10 10 10 10 11 13 13 14 15 16 17 18 20 21 23 23 24 25
13 13 12 12 13 13 11 10 11 11 11 12 12 11 11 12 12 12 12 11 10 10 10 10 11 11 11 11 11 12 13 14 15 15 17 18 19 20 22 23 24 26 26 27
13 14 14 14 15 15 11 12 13 13 13 13 12 12 12 13 13 12 12 12 11 11 11 11 12 12 13 13 14 14 15 16 17 18 19 20 21 23 24 26 27 28 28 29
16 16 16 15 15 13 12 14 15 15 13 14 14 13 14 13 12 12 12 12 12 12 13 13 13 14 15 15 16 17 17 18 19 20 21 22 24 25 27 28 29 30 31 32
18 18 18 17 16 14 13 15 16 16 14 15 15 15 14 14 13 13 14 14 14 14 15 15 16 16 17 18 19 20 20 21 22 22 23 25 27 28 29 30 31 32 33 34
19 19 19 18 17 15 14 16 16 16 14 15 15 15 15 15 15 15 15 16 16 16 16 17 18 19 20 21 21 22 23 23 24 25 26 28 29 30 32 33 33 35 35 36
20 20 19 19 19 16 17 17 17 16 17 17 17 17 17 17 17 17 17 18 18 18 19 19 20 21 22 23 24 25 25 26 26 28 29 31 32 33 34 35 36 37 38 38
22 22 21 20 20 20 19 19 19 19 19 19 19 19 19 20 20 20 20 20 20 21 21 22 22 23 24 25 26 27 28 29 29 31 32 34 34 35 36 37 38 39 40 41
24 23 23 22 22 22 22 22 22 23 22 22 22 22 22 22 22 22 22 22 23 23 24 24 25 25 26 27 28 29 30 31 32 34 35 35 36 37 38 39 40 41 42 43
24 24 25 24 23 24 24 25 25 25 25 25 25 25 25 25 25 25 25 26 26 27 27 27 27 28 29 29 31 32 33 34 35 35 36 37 38 39 40 40 41 43 44 44
25 26 26 26 25 26 26 26 27 27 27 27 28 28 28 28 28 28 28 28 29 29 29 30 30 31 31 32 32 34 35 36 37 37 38 39 39 40 41 42 43 45 45 46

GEFSCGP_500_meanwind_144.txt.gz
Wind_Speed
16 16 16 17 16 15 16 16 14 13 13 14 14 13 13 12 11 10 9 9 8 8 7 6 6 4 4 3 2 2 2 2 2 2 2 3 4 4 5 6 7 8 8 9
15 16 16 15 14 13 14 15 14 13 13 13 12 12 12 11 10 9 9 9 8 8 7 6 6 5 4 3 3 2 2 2 2 2 2 3 3 4 5 6 7 8 8 9
14 15 15 14 13 13 13 13 12 12 12 12 11 11 10 10 10 9 9 8 8 7 7 6 6 5 4 4 3 3 2 2 2 2 2 3 3 4 4 5 6 7 8 9
13 14 14 13 13 12 11 13 12 11 12 11 10 10 10 10 10 10 9 8 7 7 7 6 6 6 5 5 4 4 3 3 3 3 3 3 3 3 4 5 5 6 7 8
11 12 12 12 12 12 11 11 11 10 10 10 10 10 10 11 11 10 9 8 7 7 7 7 7 6 6 6 5 5 4 4 4 4 3 3 3 3 4 4 5 6 7 8
9 10 11 11 11 12 11 10 10 10 9 9 10 10 11 11 11 10 8 8 8 8 8 7 7 6 6 6 6 6 5 5 5 4 4 3 3 3 3 4 4 5 6 7
9 9 10 10 10 11 11 11 10 9 9 9 9 9 9 10 10 10 8 8 8 8 8 7 7 7 7 7 7 6 6 6 5 5 4 4 3 3 4 4 4 5 6 7
8 9 9 10 10 11 11 11 11 9 9 8 8 8 8 9 9 9 8 8 8 8 8 8 7 7 7 7 6 6 6 6 6 6 5 4 4 4 4 4 4 5 6 7
8 8 8 8 9 10 10 10 10 9 8 7 7 8 8 9 9 8 8 8 8 8 8 8 8 7 7 6 6 6 6 6 6 6 5 5 4 4 4 4 4 5 6 8
9 9 8 8 8 8 10 10 10 9 8 7 7 7 8 9 9 9 8 8 8 9 8 8 8 7 7 6 6 6 6 6 6 6 5 5 4 4 4 4 5 6 7 8
9 8 8 9 8 8 9 10 9 9 9 8 7 7 8 9 10 9 9 9 8 8 8 7 7 6 6 6 6 6 6 5 6 6 6 6 5 4 4 5 6 7 8 10
8 9 9 8 9 9 10 9 9 9 9 9 9 8 9 10 9 10 10 10 9 9 8 8 7 7 7 7 7 7 7 6 5 5 6 6 5 5 6 7 8 9 10 11
8 8 8 8 8 8 9 10 9 9 9 9 9 8 9 10 10 11 10 10 10 9 9 9 9 8 9 8 8 8 7 7 6 6 7 7 7 7 8 9 10 11 12 13
8 9 8 8 8 9 9 9 10 10 10 9 9 10 11 11 12 12 11 11 10 10 10 10 10 10 10 10 9 8 8 8 7 7 8 8 8 8 9 10 11 12 14 15
9 9 9 9 9 10 10 10 10 11 11 12 11 11 12 12 12 12 12 12 11 11 11 11 11 11 11 11 11 10 10 9 9 9 9 9 10 10 11 11 13 14 15 16
11 11 10 10 10 10 10 11 11 11 12 13 13 12 13 14 13 13 13 12 12 12 12 12 13 12 12 12 12 12 12 11 11 11 11 12 12 13 13 14 15 16 17 18
12 12 12 12 12 11 10 11 12 12 12 13 13 13 14 15 14 15 14 13 13 13 13 13 13 13 13 13 13 13 13 13 13 12 13 14 14 15 15 16 17 18 19 19
13 13 13 13 14 13 12 13 13 13 14 14 14 13 14 15 15 15 15 14 14 14 14 14 13 14 13 14 14 14 14 14 14 15 14 15 16 16 17 18 19 20 22 23
15 15 15 15 15 13 13 14 14 15 14 15 15 15 15 15 15 15 15 14 14 14 14 14 14 14 14 14 14 15 15 15 16 16 17 17 18 18 20 21 22 23 24 26
17 17 17 16 16 15 14 16 16 16 15 16 16 16 16 16 15 15 15 15 15 14 14 14 14 14 15 15 16 16 16 17 18 18 18 19 20 21 23 24 25 26 27 28
19 19 19 18 18 16 16 17 17 17 17 17 17 16 16 16 16 17 17 16 16 16 16 16 16 16 16 17 17 18 19 19 20 21 22 22 23 25 26 27 28 29 30 31
21 21 20 20 19 17 18 18 17 17 18 18 18 18 17 18 18 18 18 18 18 18 17 18 18 18 19 19 20 20 21 22 23 24 25 26 27 28 29 30 31 32 32 33
23 22 22 21 20 20 20 19 19 19 18 18 18 18 18 19 19 19 20 20 20 19 19 19 20 20 21 21 22 23 24 25 25 26 28 28 29 30 31 32 33 33 34 35
23 23 23 22 21 21 21 21 21 20 20 19 19 19 19 20 20 21 21 21 21 20 21 21 22 22 23 24 25 25 26 27 28 29 30 31 32 33 34 34 35 36 36 37
23 24 24 23 23 23 23 22 22 22 21 21 21 21 21 21 21 22 22 22 23 23 23 23 23 24 25 26 27 28 28 29 30 31 32 33 34 35 36 37 37 38 38 39
25 25 25 24 25 25 24 24 23 23 23 23 23 22 23 23 23 23 24 24 25 25 25 25 25 26 27 28 29 30 31 32 33 33 34 35 36 37 38 38 38 39 40 41

GEFSCGP_500_meanwind_150.txt.gz
Wind_Speed
12 13 13 13 13 12 11 12 11 12 12 12 12 12 12 11 12 11 10 10 9 8 7 7 6 5 3 3 2 2 2 1 1 1 2 3 3 4 5 5 7 7 8 9
11 12 11 12 12 13 12 10 9 9 11 11 11 11 12 11 11 12 11 10 10 10 9 8 7 5 5 4 3 3 2 2 2 2 2 2 3 3 4 5 6 7 8 8
8 10 10 11 11 11 11 10 10 8 8 8 8 9 10 11 11 11 11 11 11 10 10 8 7 7 6 5 4 4 3 3 3 3 3 2 3 3 4 5 6 7 7 7
7 8 9 10 11 10 9 10 9 7 7 7 7 7 9 9 10 11 11 11 10 10 9 8 7 7 6 6 5 5 4 3 3 3 3 3 3 4 5 6 6 6 7 7
6 7 8 9 9 9 8 8 7 6 6 6 6 7 6 7 7 9 9 10 9 9 8 8 8 7 6 7 6 6 5 5 4 4 4 4 4 4 5 5 5 6 6 7
5 6 7 8 8 7 6 7 7 6 6 5 6 7 7 7 7 8 9 9 8 8 8 8 8 7 7 8 7 7 6 5 5 5 5 5 5 4 4 4 4 5 5 6
5 5 6 7 8 7 7 7 6 5 4 4 5 6 7 8 9 9 10 9 9 8 8 8 7 7 8 8 8 7 7 6 6 6 6 5 5 5 5 4 4 5 5 6
4 4 5 6 7 7 8 8 6 5 3 4 4 5 5 7 8 9 9 9 9 9 8 8 8 8 8 8 8 8 8 7 7 6 6 6 6 6 5 5 5 5 5 6
4 3 4 5 7 8 8 8 5 3 1 3 5 5 6 7 7 9 9 9 9 9 9 9 9 9 8 8 8 8 8 7 7 7 7 7 7 7 6 6 5 5 5 6
4 4 4 5 6 8 8 8 7 5 3 2 3 5 6 6 7 8 10 10 10 9 9 9 9 9 9 8 8 8 7 7 7 7 7 8 8 8 7 7 6 6 6 7
6 4 4 4 5 6 8 8 8 7 5 4 3 5 7 7 7 8 10 10 10 9 9 9 9 8 8 8 7 7 7 8 8 8 8 8 8 8 8 8 7 7 7 7
7 6 5 4 5 5 7 8 9 8 7 6 7 7 7 9 9 9 10 10 10 10 10 9 9 9 9 8 8 8 8 8 9 9 9 9 9 8 8 8 7 7 8 8
8 7 5 5 6 6 7 8 9 9 9 8 7 8 9 10 11 11 11 11 11 11 10 9 9 9 9 10 10 9 9 9 10 10 10 10 9 9 9 8 8 9 9 10
9 8 6 6 7 7 7 8 9 9 9 9 9 10 10 10 11 11 11 11 11 11 11 11 11 11 11 11 10 10 10 10 10 10 10 9 9 9 8 9 9 10 10 10
10 9 9 9 8 8 9 9 10 10 10 10 11 12 12 12 11 12 12 11 11 12 12 12 12 12 12 12 11 11 11 11 11 11 10 10 10 10 10 10 10 11 12 12
12 11 10 10 10 9 10 10 10 11 11 12 13 14 14 14 14 14 13 12 12 12 12 12 12 12 12 12 12 12 12 12 12 12 12 11 11 12 12 12 13 14 14 14
13 13 12 11 11 11 10 10 11 12 12 13 13 14 15 15 15 15 14 13 13 13 13 13 13 13 13 13 13 13 13 14 13 13 13 13 13 13 14 15 15 15 16 16
14 14 14 13 12 12 11 12 13 13 13 13 14 15 15 16 16 15 15 14 14 13 14 14 14 14 14 14 14 14 14 14 14 14 14 14 15 16 16 17 17 17 18 19
17 16 16 15 14 14 13 14 14 14 14 14 14 14 15 15 16 16 15 15 15 14 14 15 15 15 15 15 15 16 16 16 15 15 15 16 16 17 18 18 18 19 20 20
18 18 18 17 16 15 15 16 15 15 15 16 15 15 15 15 16 16 15 16 16 16 15 16 16 16 17 17 17 17 17 17 16 17 17 18 18 19 20 20 20 21 22 22
18 19 19 18 18 17 18 18 16 16 17 17 16 16 16 17 17 16 16 17 16 16 16 16 16 17 17 17 17 17 17 18 19 19 19 20 20 21 21 22 23 24 24 25
20 20 20 20 20 20 21 20 19 19 19 19 18 18 18 18 18 18 18 18 17 17 18 18 18 18 18 18 18 19 19 20 21 21 21 22 22 23 24 24 25 26 26 27
23 23 23 22 23 23 22 22 21 20 21 20 20 19 19 20 19 19 19 19 19 19 19 19 19 19 20 20 20 21 22 22 22 23 23 23 24 25 26 26 27 27 28 29
24 24 24 24 24 24 24 24 23 22 22 21 20 20 20 20 20 19 19 19 19 19 20 20 20 20 21 21 22 23 23 24 24 24 25 26 26 27 27 28 29 29 30 31
26 25 25 25 25 26 26 26 25 24 23 23 22 22 21 21 21 20 20 20 21 21 21 21 22 22 22 22 23 24 25 25 26 26 27 28 28 29 30 30 31 32 33 35
27 28 28 27 27 28 28 27 26 25 25 24 24 23 23 23 22 22 22 22 22 22 22 23 23 24 24 25 25 26 27 28 28 29 29 30 31 31 32 33 34 35 36 37

GEFSCGP_500_meanwind_156.txt.gz
Wind_Speed
8 9 10 9 10 11 11 10 11 12 12 11 10 10 10 11 11 11 11 11 11 11 10 9 7 7 6 5 5 4 3 2 1 1 0 0 1 2 3 4 5 6 6 7
7 8 8 8 8 10 10 10 10 10 11 10 10 11 11 11 11 11 11 11 11 10 10 9 8 7 6 5 5 4 3 2 2 1 1 1 1 2 2 3 4 5 6 6
6 7 7 7 7 8 8 8 8 8 9 10 10 10 11 10 10 11 12 12 12 11 10 10 9 8 7 6 6 5 4 3 2 2 2 2 2 1 2 3 4 5 5 6
6 6 6 6 7 7 6 7 7 6 7 9 10 10 10 10 9 10 11 12 13 12 11 10 9 8 7 7 7 6 5 4 4 3 3 3 3 2 1 2 3 4 5 5
5 5 5 6 6 7 6 7 7 6 7 8 8 8 8 9 9 9 9 11 12 12 11 10 9 8 8 8 7 6 6 6 5 4 4 3 4 3 2 2 2 3 4 5
5 5 6 6 7 7 7 7 8 8 7 7 7 7 7 7 8 9 9 10 11 12 11 10 10 9 8 8 8 7 7 6 6 5 4 4 4 4 3 3 2 2 3 3
5 6 7 7 6 6 6 6 7 7 7 6 6 6 5 5 6 7 8 9 11 11 11 10 10 9 9 8 8 7 7 6 6 6 5 5 4 4 4 4 4 3 3 3
6 6 6 6 6 5 6 7 7 6 6 6 6 6 5 5 4 6 8 9 10 10 11 11 10 9 8 8 8 7 7 7 7 6 6 5 5 5 5 5 5 5 4 4
6 6 6 6 6 6 6 7 6 6 5 5 6 6 5 5 5 6 6 9 9 9 10 10 9 8 8 8 8 7 7 7 7 7 7 6 6 6 6 6 6 5 5 5
5 6 6 6 6 7 7 7 7 6 5 6 6 6 6 5 5 5 6 7 8 8 8 9 9 9 8 8 8 8 8 7 8 8 7 7 7 7 7 7 7 6 6 6
4 5 6 6 7 7 9 7 7 6 5 5 4 5 5 5 5 4 5 7 7 8 8 9 9 9 9 9 9 9 8 8 8 8 8 8 8 8 8 8 8 8 7 7
5 5 5 6 7 7 8 7 6 6 5 5 4 4 5 5 5 5 6 7 7 8 8 9 9 9 9 10 10 10 9 9 9 9 9 9 9 9 9 8 8 9 9 8
6 5 6 7 7 7 8 7 6 7 7 6 6 5 5 5 5 5 6 7 8 8 9 9 10 10 11 11 11 11 10 10 9 9 10 10 10 10 9 9 8 9 9 9
7 7 7 7 7 7 8 8 8 8 7 7 7 7 7 6 6 6 6 6 7 8 9 10 11 11 11 12 12 11 11 11 10 10 10 10 10 10 9 9 9 9 9 9
9 8 8 8 8 8 8 8 8 8 7 7 7 8 8 8 7 7 7 7 7 8 10 11 11 12 12 12 12 12 12 11 11 11 10 10 10 10 10 10 10 10 10 11
11 10 9 9 9 9 9 8 9 9 8 9 9 10 10 9 9 8 8 8 8 9 10 10 11 12 12 13 13 13 13 12 12 12 11 11 12 12 11 11 11 11 11 12
12 12 11 11 11 11 10 10 10 10 10 10 10 10 11 10 9 9 9 9 9 9 9 10 12 13 13 13 13 13 13 13 13 13 12 12 12 12 13 13 12 12 13 13
13 14 14 14 13 13 11 11 11 11 10 11 10 10 10 10 10 10 11 11 11 11 10 11 12 13 14 14 14 14 14 13 14 14 14 13 13 14 14 15 15 15 15 15
16 16 16 16 16 14 13 13 13 12 12 12 11 11 11 11 12 12 12 12 12 12 12 12 13 13 14 14 14 14 14 14 14 15 15 15 15 15 15 16 16 17 17 17
18 18 18 18 18 16 14 14 15 15 14 12 11 11 11 12 13 13 13 13 13 13 13 13 13 13 14 14 14 15 15 15 16 16 17 17 17 17 17 18 18 18 19 19
20 20 20 19 19 17 16 16 15 15 13 12 12 12 12 12 13 14 14 14 14 14 14 14 14 14 14 15 15 16 16 17 17 18 18 18 18 19 19 19 20 20 20 21
21 21 20 20 20 18 17 17 17 15 15 14 14 13 13 13 14 15 15 16 16 16 15 15 15 15 15 15 16 16 17 18 18 19 19 19 20 20 21 21 21 22 23 23
23 22 22 22 20 19 18 18 18 17 17 16 15 15 15 16 16 16 16 16 17 17 17 17 16 16 16 16 17 17 18 19 20 21 21 21 22 22 23 23 24 24 25 25
24 24 24 23 22 22 21 21 20 19 18 17 17 17 17 17 17 17 17 18 18 19 19 19 18 19 19 19 20 20 20 21 22 22 23 24 24 25 25 26 27 27 28 28
25 25 25 25 24 24 24 23 22 21 20 20 20 20 20 20 20 20 19 19 20 20 20 20 20 20 21 21 21 21 22 23 23 24 25 25 26 27 28 28 29 30 31 32
26 27 27 27 26 26 26 25 25 24 24 23 22 22 22 22 22 22 21 21 21 22 22 23 23 23 23 23 23 24 24 25 25 26 27 28 28 29 30 31 32 33 34 35

GEFSCGP_500_meanwind_162.txt.gz
Wind_Speed
3 4 5 7 7 8 9 10 11 11 11 12 12 12 11 12 13 14 14 14 13 12 11 10 9 8 8 7 6 5 4 3 2 1 1 0 1 2 3 4 4 5 6 7
2 4 4 5 5 6 7 9 9 9 11 12 12 11 12 12 13 14 15 14 13 12 12 11 10 9 8 7 6 5 4 4 3 2 1 1 1 2 3 3 4 4 5 6
2 3 3 4 4 5 6 8 9 9 10 11 11 10 11 12 13 14 14 14 14 13 13 12 11 10 9 8 7 6 5 5 4 3 2 2 2 2 2 3 3 3 3 4
2 3 3 3 3 3 5 7 9 8 9 10 10 10 10 10 11 13 14 14 14 13 13 12 11 10 9 8 7 7 5 5 5 4 3 2 2 1 2 2 2 3 3 3
2 2 3 3 3 4 5 5 7 7 9 9 9 10 10 10 10 12 13 13 14 13 13 13 12 10 9 9 8 7 5 5 5 5 4 4 3 3 2 2 2 3 2 2
2 2 3 3 4 4 5 6 6 7 7 8 8 9 10 9 10 11 12 13 14 13 13 12 12 11 10 9 8 7 6 6 6 6 5 5 4 4 3 3 3 3 3 3
2 2 2 4 5 5 6 7 7 7 7 6 7 8 9 9 9 10 12 12 13 13 12 12 11 10 10 9 9 8 7 7 7 7 7 6 6 5 5 4 4 4 4 4
3 3 3 4 6 5 6 6 7 7 7 6 6 7 8 9 9 9 10 11 12 12 12 11 11 10 10 10 9 8 8 8 8 8 8 7 6 6 6 6 5 5 5 5
4 5 5 6 6 6 6 6 6 6 6 5 5 6 7 8 8 9 9 10 11 11 11 12 12 11 10 9 9 8 8 9 9 9 9 8 7 7 7 7 7 7 7 7
5 6 6 6 6 6 6 6 6 6 5 5 5 6 7 8 8 8 9 9 10 11 11 11 12 11 10 10 9 9 9 9 9 9 9 9 9 8 8 8 7 8 8 8
5 6 5 5 6 6 7 6 6 6 6 5 6 6 8 8 7 7 8 8 9 10 11 11 11 11 11 10 10 9 9 9 9 9 9 9 9 9 9 9 9 9 9 9
6 6 6 6 6 7 7 8 8 7 7 6 6 6 7 7 6 7 8 8 9 10 11 11 11 11 11 11 11 10 9 9 9 9 10 10 10 10 10 10 10 10 10 10
7 7 7 7 7 7 8 8 8 8 7 7 7 7 7 7 6 6 7 8 9 10 11 11 11 11 11 11 10 10 10 10 10 10 11 11 11 11 11 11 10 10 10 10
9 8 8 7 7 8 8 8 8 7 7 7 7 8 8 8 7 7 8 8 9 10 10 11 11 11 11 11 11 11 11 11 11 11 11 12 12 11 11 11 11 11 11 11
10 9 8 8 8 8 8 8 9 8 8 8 7 8 8 9 9 9 9 9 10 10 11 11 11 12 11 11 12 12 12 12 13 12 12 12 12 12 12 12 12 12 12 12
11 11 10 10 9 8 8 9 9 9 9 8 8 8 9 10 10 10 10 10 11 11 11 12 12 12 12 12 12 12 13 13 13 13 13 13 13 13 13 13 13 13 13 13
13 13 12 11 10 10 9 9 9 9 9 9 9 9 9 10 11 11 11 11 12 12 12 13 12 12 13 13 13 13 13 13 14 14 14 14 14 14 14 14 14 14 15 14
15 15 15 14 13 13 10 11 11 11 11 10 10 10 11 11 12 12 13 12 13 13 13 14 14 14 14 14 14 14 14 14 14 14 15 14 14 15 15 15 16 16 16 16
17 17 17 17 16 14 13 13 13 13 12 11 11 12 12 12 13 13 13 13 13 13 13 14 15 15 15 15 15 15 15 15 15 16 16 16 16 16 17 17 17 18 18 18
19 19 19 18 17 15 13 14 15 14 12 12 12 12 13 13 13 13 14 14 14 14 14 14 15 15 16 16 16 16 16 16 17 17 17 18 18 18 18 18 19 19 19 19
21 21 20 19 18 16 15 16 16 15 13 14 14 14 14 14 14 14 14 15 15 16 16 15 16 16 16 17 17 17 17 17 18 18 18 19 19 19 19 20 20 20 20 20
22 22 21 21 20 16 16 17 17 16 16 16 15 16 15 15 15 15 15 16 16 16 17 17 17 17 17 18 18 18 19 19 18 19 19 20 21 21 21 22 22 22 22 23
24 23 23 22 20 18 18 19 18 18 17 17 17 17 17 17 17 17 17 17 17 17 18 18 18 18 18 18 19 20 20 20 19 20 21 21 22 23 23 23 24 24 25 25
25 25 25 24 22 21 20 20 20 20 20 20 20 19 19 19 19 18 18 18 18 18 18 19 19 19 19 20 20 20 21 21 21 21 22 23 24 25 25 26 26 26 27 27
27 26 26 25 23 22 22 22 22 22 22 22 22 22 22 22 21 21 20 20 19 19 19 19 19 20 20 21 21 21 22 23 23 24 24 25 26 26 27 28 28 29 29 30
27 27 27 27 26 25 24 24 24 24 24 24 24 24 24 23 23 23 22 22 21 21 21 21 21 21 22 22 22 23 24 24 25 26 27 27 28 29 29 30 30 31 32 32

GEFSCGP_500_meanwind_168.txt.gz
Wind_Speed
2 2 4 5 5 7 7 8 10 11 11 12 12 12 12 13 13 13 13 13 12 12 12 12 11 10 10 9 8 7 6 6 5 4 3 2 1 1 2 2 3 3 4 4
1 1 2 2 3 5 6 7 8 10 10 10 10 11 12 13 13 13 14 13 13 12 12 11 11 10 10 9 8 7 7 6 5 4 4 3 2 2 2 2 2 2 3 4
1 2 1 0 2 4 5 7 8 7 8 9 9 10 11 12 13 13 14 14 13 13 12 11 12 11 10 9 8 8 7 7 6 5 5 4 3 3 3 2 2 2 2 3
0 1 1 1 1 4 5 5 6 6 7 8 8 9 10 11 12 12 14 13 13 14 13 12 12 11 11 10 9 8 7 7 6 6 6 5 4 4 3 3 2 2 2 3
1 1 2 1 1 3 5 5 5 5 6 7 8 8 9 9 9 10 12 12 13 14 13 13 12 11 11 10 9 8 8 7 7 7 6 5 5 4 4 4 3 3 2 3
1 2 2 2 2 3 4 5 5 5 5 6 7 8 8 9 9 10 11 12 12 13 13 13 12 11 11 11 10 9 9 8 8 7 7 6 6 5 5 4 3 3 3 3
1 1 2 3 2 3 4 5 5 4 5 5 6 8 8 9 9 9 10 12 11 12 12 12 12 11 11 11 11 10 10 9 9 8 8 7 7 6 6 5 4 4 4 3
1 1 2 3 3 3 4 5 5 5 4 4 5 6 7 8 8 8 9 10 11 10 11 11 11 12 12 11 11 11 11 10 10 9 9 9 8 8 7 6 6 5 4 4
3 3 3 3 3 4 4 5 5 5 4 4 5 5 5 6 7 7 8 9 10 10 11 11 11 12 12 12 11 11 11 11 11 11 11 10 10 8 8 7 7 6 6 6
5 4 4 4 4 4 5 5 5 5 5 4 5 6 6 6 7 8 9 9 10 11 11 11 12 12 12 12 11 11 11 11 12 12 11 10 10 9 9 8 8 7 7 7
5 5 5 4 6 6 5 5 5 5 6 5 5 6 6 6 6 7 9 10 10 10 11 11 12 11 11 11 11 11 11 11 11 12 11 10 10 10 9 9 9 9 8 8
6 6 6 5 6 6 6 6 6 6 6 6 5 6 6 6 6 7 7 8 9 10 10 11 12 11 11 11 11 11 11 10 10 10 10 10 10 9 10 9 10 10 10 10
7 6 6 6 6 6 7 6 7 7 7 6 6 6 6 6 6 6 7 8 8 9 9 10 11 11 11 11 11 10 10 10 10 10 11 11 11 10 10 10 10 10 11 11
8 8 7 7 7 7 7 8 7 7 8 7 7 7 7 7 7 7 8 8 8 8 9 10 11 12 12 11 11 11 10 11 11 11 11 11 11 11 11 11 11 11 12 12
9 9 8 8 8 8 9 8 9 8 8 9 8 8 8 9 8 8 9 9 8 8 9 11 11 12 12 11 11 11 11 11 11 12 12 13 12 12 13 13 13 13 13 13
11 10 10 9 9 9 9 9 10 9 9 9 9 9 9 10 9 9 9 9 9 9 9 10 11 13 13 12 12 12 12 12 13 14 14 13 13 13 13 13 14 14 14 14
13 12 11 11 11 10 9 10 10 10 10 10 10 10 9 9 10 10 10 10 10 11 11 11 12 12 13 13 13 13 13 14 14 14 14 14 14 13 14 14 15 15 15 15
15 14 14 13 12 12 10 11 11 11 10 11 11 11 11 10 10 11 11 11 11 11 12 13 13 13 14 15 15 15 14 14 15 15 15 15 15 15 15 15 16 16 16 16
17 16 15 15 15 13 12 12 12 12 11 12 12 12 11 11 11 11 11 12 12 12 12 13 13 14 14 15 16 16 15 15 16 16 16 16 16 16 16 17 17 17 17 17
19 18 18 17 16 15 13 13 14 13 13 13 14 14 13 12 12 12 12 12 12 13 13 13 13 13 14 15 17 17 17 17 17 17 17 17 17 18 18 18 18 18 18 17
21 21 20 19 18 17 15 15 15 14 13 14 15 15 14 14 14 14 14 13 13 13 14 14 14 14 14 14 15 16 17 17 18 18 18 18 18 18 19 20 19 19 19 19
23 22 22 21 20 18 16 16 16 15 16 16 16 16 15 16 16 16 16 15 14 14 15 15 15 15 16 16 16 17 17 17 17 17 18 18 19 20 20 21 21 20 20 21
24 23 23 22 21 19 18 18 18 18 18 18 17 17 17 17 18 18 17 17 16 16 16 16 17 17 17 18 18 18 18 18 18 18 19 19 20 20 20 20 20 21 22 23
25 25 25 24 22 21 20 20 19 19 19 20 19 19 19 19 19 19 19 18 18 18 18 18 18 18 18 18 18 19 18 18 19 19 20 21 21 21 21 21 22 23 23 24
27 26 26 25 23 23 22 22 22 21 21 21 21 21 21 21 20 20 20 20 20 20 19 19 19 19 19 19 19 19 19 20 20 21 21 22 22 22 22 23 24 24 25 26
27 27 26 26 25 25 24 24 24 23 23 22 22 22 22 22 22 21 21 21 21 21 21 21 20 20 20 20 21 21 21 21 22 22 23 23 24 24 25 25 26 26 27 28

GEFSCGP_500_meanwind_174.txt.gz
Wind_Speed
3 4 5 5 6 6 7 7 8 7 7 8 9 9 10 11 12 12 12 11 10 10 9 8 8 9 9 8 8 7 6 5 4 4 3 3 3 3 3 4 5 5 5 5
3 4 4 4 5 5 6 7 7 7 7 8 9 9 9 9 11 12 12 11 11 10 9 8 8 7 8 8 7 6 6 5 5 4 3 3 3 2 3 3 4 5 5 5
4 4 4 3 4 4 4 5 5 6 7 8 8 8 9 9 10 11 11 12 12 10 8 8 8 8 8 8 7 6 6 6 5 4 3 4 3 2 2 3 4 4 4 4
4 4 3 3 3 3 3 3 4 5 6 6 6 6 7 8 9 10 10 11 11 10 9 8 8 8 8 8 8 7 6 6 5 4 4 4 4 3 3 3 4 4 4 4
4 4 3 3 2 3 3 3 3 3 4 4 5 6 6 7 8 9 10 10 11 10 9 9 9 9 9 8 8 7 7 6 5 5 5 5 5 4 3 3 3 4 4 4
4 4 4 3 3 3 3 3 2 2 3 3 3 5 5 5 6 8 9 9 9 10 9 10 10 10 9 9 8 7 7 7 6 5 5 5 5 5 5 4 4 4 4 4
4 4 4 4 4 3 3 2 1 0 1 2 3 5 5 5 6 7 8 8 8 9 9 10 10 10 10 9 9 8 8 8 7 6 6 6 6 6 6 5 5 5 5 5
4 4 4 4 4 4 3 3 2 1 1 2 3 5 4 4 5 7 7 7 7 8 9 10 10 11 11 10 9 9 9 8 7 7 7 7 7 7 7 6 6 5 6 6
5 6 5 4 4 4 4 4 3 3 2 2 3 5 5 4 5 5 6 7 7 8 8 9 9 10 10 10 10 10 10 9 8 8 8 9 8 8 7 7 6 6 6 7
7 6 5 4 4 5 5 4 5 5 4 4 4 5 5 5 5 5 6 7 8 8 9 9 9 10 10 10 10 10 9 9 8 9 9 8 8 8 7 7 7 7 7 7
7 7 5 5 5 5 5 6 6 6 5 5 5 6 6 5 6 6 6 7 8 8 9 8 9 9 9 9 9 9 9 9 9 8 8 9 8 8 8 8 8 8 8 8
8 7 6 5 6 6 6 7 7 8 7 7 7 7 6 6 7 7 7 8 8 8 8 9 9 9 9 9 9 9 8 9 9 10 10 10 9 9 9 9 10 10 9 9
9 9 7 7 8 7 7 8 8 8 8 8 7 6 7 8 7 7 7 8 7 8 8 8 9 9 8 8 8 8 8 8 9 9 10 10 10 10 11 11 11 11 11 11
11 10 9 9 9 9 9 9 9 9 8 9 9 8 8 8 8 7 7 7 7 8 8 8 9 9 8 8 9 8 8 8 9 10 10 10 11 12 12 12 13 13 13 13
13 12 11 11 10 10 10 10 10 10 10 10 11 11 9 8 8 8 8 7 8 9 9 9 9 9 9 10 10 10 10 10 10 10 11 11 12 12 12 13 13 14 14 15
15 13 13 12 11 11 10 10 11 11 11 12 12 12 11 10 9 8 8 8 8 9 10 10 11 10 10 11 11 11 11 11 11 12 12 12 12 13 13 13 13 14 15 15
15 14 14 12 11 11 10 10 11 11 11 12 13 12 12 11 10 9 9 9 9 10 11 11 11 11 11 12 13 13 13 13 13 13 13 13 13 14 14 14 15 15 16 16
16 15 15 14 13 13 11 12 12 12 12 12 13 13 13 11 11 10 10 10 10 10 11 11 12 12 12 13 14 14 14 14 14 14 14 14 14 15 15 16 16 16 16 16
18 17 17 16 15 15 13 13 13 13 12 13 13 13 13 12 12 11 10 10 10 10 11 12 12 12 13 13 14 15 15 16 16 16 16 16 16 16 17 17 16 16 17 17
20 19 19 18 17 17 14 15 14 14 13 13 14 13 13 12 13 12 11 11 11 11 12 12 13 13 14 14 15 15 16 17 17 17 17 18 18 17 17 17 17 18 18 19
21 21 20 19 19 18 16 17 16 15 14 15 14 14 14 13 14 13 13 12 12 12 12 12 13 13 13 14 15 15 16 17 17 17 18 18 18 18 18 18 19 19 20 20
23 23 22 21 21 20 18 18 17 16 16 17 17 16 16 15 15 15 14 14 14 14 14 14 14 14 14 15 15 15 16 17 17 17 17 18 18 19 19 20 20 20 20 20
26 24 23 24 22 20 20 20 18 18 18 18 18 18 17 17 16 15 15 15 15 15 16 16 16 16 16 16 16 16 16 17 18 18 18 19 19 20 20 20 21 21 21 22
27 25 25 25 24 23 22 21 21 22 21 21 20 19 18 18 17 17 16 16 17 17 17 18 18 18 18 18 17 18 18 18 18 19 20 20 20 21 21 21 22 22 22 23
27 27 27 27 26 26 26 25 24 22 22 23 22 21 20 20 19 19 18 18 18 18 18 18 19 19 19 19 19 19 20 20 21 21 21 22 22 22 22 23 23 23 24 24
29 29 29 29 28 28 28 26 25 24 24 24 23 22 22 22 21 21 21 20 20 20 20 20 20 20 20 20 21 21 21 22 22 22 23 23 24 24 24 24 25 25 26 26

GEFSCGP_500_meanwind_180.txt.gz
Wind_Speed
3 3 4 5 5 6 6 5 4 5 6 6 7 8 8 8 8 9 9 9 9 9 9 9 9 8 8 8 8 7 7 6 5 4 3 2 2 1 1 1 2 3 3 3
3 3 3 4 5 5 5 5 4 5 5 6 7 8 8 8 8 8 9 9 10 10 10 10 10 9 9 8 8 7 7 6 6 5 4 3 3 2 1 1 2 2 2 3
3 2 2 3 4 4 4 5 4 3 5 6 6 7 7 7 7 8 8 9 10 9 10 11 10 10 9 8 8 6 7 7 6 6 5 4 4 3 2 1 1 1 2 3
3 2 2 2 3 3 4 4 4 3 4 5 5 5 5 6 6 6 8 9 9 10 10 10 10 10 10 9 8 7 7 7 7 6 5 5 4 3 2 1 1 2 2 3
4 3 3 3 2 3 3 3 4 3 3 3 4 4 4 4 5 5 7 8 9 9 10 9 10 9 9 10 9 8 8 8 8 7 6 5 5 4 3 2 2 2 2 2
4 4 4 3 2 3 3 3 3 4 4 3 3 3 4 4 5 6 7 8 8 9 10 10 10 9 10 11 10 9 8 8 8 7 6 5 5 5 4 4 3 4 3 3
5 5 4 4 3 3 4 4 4 4 4 3 3 3 2 4 5 6 7 8 8 9 10 10 10 9 10 11 11 10 9 8 8 8 6 5 5 5 4 4 4 4 3 3
6 6 5 5 4 4 5 4 4 4 4 4 4 3 3 3 4 5 6 7 8 9 10 10 10 9 10 12 12 11 10 9 9 8 7 6 6 5 5 5 4 4 3 3
6 6 6 6 5 5 6 6 6 5 4 4 4 4 4 4 4 4 5 7 8 9 9 9 10 10 11 12 12 11 10 9 10 9 7 7 7 7 6 5 5 5 5 4
7 7 7 7 7 6 7 7 6 6 5 5 5 4 4 4 4 4 4 6 7 8 9 9 10 10 11 11 11 11 10 10 9 10 9 8 7 7 7 7 6 6 6 6
8 8 8 7 7 6 7 8 7 6 6 6 5 4 4 4 4 5 5 5 7 8 9 10 10 9 10 11 11 11 11 10 10 10 10 9 9 9 9 8 7 7 7 7
9 9 9 8 7 7 7 8 8 7 6 6 6 5 5 5 4 4 4 5 7 8 9 9 9 9 9 10 10 11 11 11 11 11 11 11 10 10 9 9 9 8 8 8
11 10 10 10 9 9 8 9 9 9 9 8 7 6 5 4 4 4 4 5 7 8 8 8 9 10 10 10 10 11 11 11 12 12 12 12 11 10 10 9 9 9 10 10
13 12 12 11 9 9 9 9 9 9 9 9 8 7 5 5 4 4 4 5 7 8 8 9 10 10 9 9 10 10 11 11 12 12 12 12 12 11 11 11 11 11 11 12
14 13 13 12 11 11 10 10 9 9 9 10 8 7 6 6 5 5 5 6 7 7 8 9 10 10 9 9 10 10 10 11 11 12 12 12 12 12 11 12 12 12 13 13
16 15 14 13 13 12 12 11 10 10 9 9 9 7 7 7 6 6 6 6 7 7 8 9 10 10 10 10 10 10 10 11 11 11 12 13 13 13 12 12 13 14 14 14
18 17 16 15 14 14 13 11 11 10 9 9 9 8 7 7 7 7 6 6 7 7 8 9 10 10 10 10 10 11 11 11 11 11 12 13 14 14 14 14 14 15 15 15
18 18 18 17 16 16 13 12 12 12 11 10 9 9 9 8 9 8 7 7 7 8 8 9 10 11 11 11 10 11 11 12 12 12 13 13 14 15 15 15 15 15 16 16
20 20 19 19 18 17 15 14 13 13 12 12 11 10 9 9 9 8 8 8 9 9 9 10 10 11 11 11 11 11 12 13 13 14 14 14 15 15 16 16 16 16 17 17
23 22 21 20 19 19 16 15 14 14 14 12 12 12 10 9 8 8 9 10 10 10 10 10 10 10 11 11 11 12 12 13 14 14 15 15 15 15 15 16 17 18 18 18
25 24 23 22 21 19 17 16 16 16 13 13 12 12 11 10 9 10 10 10 10 10 10 10 10 10 11 11 11 12 12 13 14 14 15 15 16 16 17 17 18 19 19 19
26 25 24 24 23 20 17 17 16 15 13 13 13 12 12 11 12 11 11 11 12 12 12 12 12 12 12 12 13 13 13 14 14 15 15 16 17 18 18 19 19 19 19 20
28 27 26 25 23 21 19 18 17 16 15 15 14 13 13 12 13 13 13 13 13 13 13 13 14 14 14 14 14 15 15 15 15 15 16 17 18 19 20 20 20 20 20 21
28 27 27 27 25 23 21 20 18 17 16 15 15 15 14 14 14 14 14 14 14 14 15 15 15 15 15 15 15 16 16 17 17 17 17 18 19 20 20 20 21 21 21 22
29 29 29 28 26 24 23 21 20 19 18 17 17 17 16 16 16 16 15 15 15 15 16 16 16 16 17 17 17 17 18 18 19 19 19 19 20 21 21 21 21 22 22 23
29 30 30 28 26 26 24 22 21 21 20 19 18 18 18 17 18 18 17 17 17 17 17 17 17 18 18 18 18 18 18 19 19 20 20 20 21 21 22 22 23 23 24 24

GEFSCGP_500_meanwind_186.txt.gz
Wind_Speed
7 7 7 7 7 8 9 9 10 9 8 8 9 8 8 9 9 10 10 10 11 11 10 9 10 10 10 10 9 9 9 8 7 6 6 5 3 3 2 2 2 2 3 3
7 7 7 7 7 7 8 8 9 9 9 9 9 9 8 9 9 10 10 10 11 11 11 10 10 10 10 10 9 9 8 8 7 7 6 5 4 4 3 2 2 2 3 3
8 7 7 7 7 7 8 8 8 8 8 8 8 9 9 8 9 9 10 10 11 11 11 10 11 10 9 9 9 9 9 8 7 7 6 6 5 4 3 2 1 1 2 3
7 7 7 7 7 7 6 7 7 7 8 8 8 8 8 8 8 9 9 9 10 10 10 10 10 10 9 8 8 8 8 8 7 7 6 5 5 4 4 3 2 1 2 3
7 6 6 6 6 7 7 7 7 7 7 7 7 7 8 8 8 8 9 10 10 10 10 10 10 10 10 9 9 9 9 8 7 7 6 6 5 5 4 3 2 2 2 3
8 7 7 6 6 7 7 8 7 7 7 7 7 8 8 8 8 8 9 10 11 11 12 12 11 10 10 10 10 9 9 8 8 7 7 7 6 5 5 4 3 3 3 3
8 8 8 7 6 6 7 8 8 7 7 6 7 8 7 7 7 7 8 9 10 12 12 13 13 12 12 12 11 10 9 9 9 8 8 7 6 6 6 5 5 4 3 4
9 8 8 7 7 6 6 7 7 7 7 6 6 6 5 6 6 6 7 8 9 10 11 11 12 12 11 12 12 11 11 11 10 9 8 8 8 7 7 6 5 5 4 5
9 9 9 9 8 7 7 7 7 8 7 6 6 6 5 5 6 6 6 7 9 10 11 11 11 11 11 12 12 12 12 11 11 10 9 9 9 8 8 7 7 6 6 6
10 10 10 9 9 8 8 8 8 8 7 6 6 6 5 6 6 6 6 7 9 10 11 11 10 11 11 12 12 12 12 13 12 11 11 11 10 9 9 9 8 8 8 7
12 11 10 10 9 9 9 9 9 8 8 7 7 6 6 7 7 7 7 7 9 9 10 11 10 11 12 12 12 12 13 13 12 11 12 11 11 11 11 11 10 10 9 8
13 12 11 10 10 10 10 10 10 9 9 8 8 7 7 7 7 7 7 8 9 10 10 10 10 10 11 11 12 12 12 13 12 12 12 12 12 12 12 12 11 11 10 10
14 13 13 12 12 11 11 11 11 10 10 9 8 7 7 8 8 7 7 7 7 9 9 9 10 10 11 11 12 12 12 12 12 12 12 13 13 12 12 12 12 11 11 11
15 14 13 12 12 12 12 11 11 11 11 10 8 7 6 7 8 7 7 7 6 7 9 9 10 10 10 11 12 12 11 11 11 11 12 12 13 13 13 13 13 13 13 12
17 16 15 14 14 13 13 12 12 12 11 10 8 8 7 6 7 7 7 7 7 7 8 9 10 10 10 10 10 11 11 11 11 11 12 12 13 13 13 14 14 14 14 14
19 18 17 16 15 15 14 13 13 12 11 10 9 8 8 8 8 8 8 8 8 8 8 9 9 10 10 11 10 10 11 12 12 12 12 12 13 13 14 14 15 15 15 15
20 19 19 17 16 16 15 15 14 13 12 11 10 9 10 10 9 9 9 9 9 9 9 9 10 11 11 11 11 11 12 12 12 12 13 13 13 13 14 15 15 16 16 17
22 20 20 19 18 18 15 14 15 14 13 12 11 11 11 10 10 10 10 10 10 10 10 11 11 11 12 12 12 12 12 12 12 12 13 13 14 15 15 15 16 17 17 18
23 23 22 21 20 18 16 15 15 15 13 12 12 11 11 11 11 11 11 10 11 11 12 12 12 12 12 12 12 13 13 12 12 13 14 14 15 15 16 16 17 17 17 18
24 24 24 23 22 20 16 16 16 15 14 14 13 12 12 12 11 11 11 11 11 11 12 12 12 12 12 12 12 12 13 13 13 13 14 14 15 15 16 16 17 16 17 17
25 25 25 23 22 20 18 17 16 16 14 14 14 14 13 12 12 12 12 11 12 12 11 12 13 13 13 13 13 13 13 13 13 14 14 14 15 15 16 16 16 16 16 17
26 26 25 24 23 21 20 19 18 17 16 15 15 15 14 13 13 13 13 12 12 12 12 12 12 13 13 13 13 13 13 14 14 14 14 14 15 15 16 16 16 17 17 18
29 27 26 25 24 22 22 21 19 18 18 17 16 15 15 14 14 14 14 13 13 13 13 13 13 13 14 14 14 14 14 14 15 15 15 16 16 16 17 17 17 18 19 20
29 29 28 27 25 25 24 23 21 20 20 18 17 16 16 15 15 16 15 15 15 14 14 14 14 14 14 14 15 15 15 15 16 16 16 16 16 17 17 17 18 19 20 21
30 30 29 28 27 27 25 24 23 23 22 20 18 18 17 17 16 17 17 16 16 15 15 15 15 16 16 16 16 16 17 17 17 17 17 17 17 18 18 19 19 20 21 22
31 31 30 29 27 27 27 25 25 24 23 23 22 20 19 18 18 18 18 18 17 17 17 17 17 17 17 18 18 18 18 18 19 18 18 18 18 19 20 20 21 22 22 23

GEFSCGP_500_meanwind_192.txt.gz
Wind_Speed
5 5 6 6 6 6 6 7 7 8 8 8 7 8 9 9 9 9 9 9 9 10 10 11 10 10 10 9 9 9 9 8 7 7 7 6 6 5 4 3 2 2 1 2
5 6 7 7 6 6 7 7 7 7 7 7 7 7 8 8 8 9 9 9 10 10 10 10 10 10 9 9 9 8 8 8 7 7 7 7 6 5 4 3 3 2 1 2
6 6 6 7 7 6 6 6 6 7 7 7 6 7 7 7 8 9 9 9 9 10 10 10 10 10 10 9 9 8 8 8 7 7 8 7 7 6 5 4 3 2 2 1
6 7 6 6 6 5 6 6 6 6 6 6 6 7 7 7 8 8 8 8 9 9 9 9 9 9 9 9 9 9 8 9 8 7 8 8 7 6 5 4 3 2 2 1
7 7 6 6 6 5 5 5 6 6 6 6 6 7 8 8 7 7 8 8 8 9 9 9 9 9 9 9 9 9 8 8 8 8 8 8 7 6 5 5 4 3 2 2
8 7 7 7 7 6 6 6 6 6 6 6 6 6 7 7 7 7 7 8 8 9 9 9 9 10 10 10 11 10 9 8 8 8 8 8 7 6 6 6 5 4 3 3
8 8 8 7 7 7 6 6 6 5 6 6 6 5 5 6 6 7 7 8 8 9 9 9 9 10 11 11 11 11 10 9 8 7 8 8 7 7 6 6 6 5 5 4
9 9 8 7 8 7 6 6 6 6 6 6 5 5 5 5 6 6 7 8 8 9 9 9 9 10 10 10 10 10 10 8 8 8 8 8 8 7 7 7 7 7 6 5
10 10 9 8 7 7 7 6 6 6 6 5 5 5 5 6 6 6 7 8 9 9 9 9 9 9 10 10 10 10 10 9 9 9 9 9 8 8 8 8 8 9 8 8
11 10 10 9 8 8 7 6 6 5 5 6 5 5 6 6 6 7 7 8 8 9 9 9 10 9 9 10 10 11 11 10 10 10 10 10 10 10 9 9 9 9 9 9
12 11 11 10 10 9 8 7 7 7 7 6 6 7 7 7 7 7 7 7 8 8 8 9 10 10 10 10 11 10 11 11 11 11 11 11 11 11 11 11 11 10 9 9
13 12 12 11 10 10 9 8 8 8 8 7 7 8 7 7 7 7 7 7 7 8 8 9 9 10 11 11 11 11 11 11 11 11 11 11 11 11 11 11 11 10 10 10
15 14 12 12 11 11 10 9 9 9 9 8 8 8 9 8 7 7 7 7 7 8 9 9 9 10 9 10 10 11 11 12 12 12 12 11 11 11 11 10 10 10 10 10
16 15 14 13 12 12 12 11 10 10 9 8 8 8 8 8 7 7 7 7 7 8 8 8 8 8 9 9 10 11 12 11 12 12 12 12 12 11 11 11 11 11 11 11
18 17 16 15 15 14 13 13 11 11 10 9 8 8 8 7 7 7 7 7 7 7 8 8 9 9 9 9 10 11 11 11 12 11 11 11 12 12 12 12 12 12 13 13
20 19 18 17 16 16 15 13 13 12 11 9 9 8 8 8 8 8 8 8 8 8 9 10 10 9 9 10 10 11 11 11 11 11 11 12 12 12 12 13 13 13 13 14
21 21 20 19 18 18 17 15 14 13 12 11 10 9 10 10 9 9 9 9 9 9 9 9 10 10 10 10 10 10 11 11 11 11 11 12 12 12 13 14 14 14 14 14
23 22 22 21 20 20 17 17 16 15 13 13 12 11 12 11 11 10 10 10 10 10 10 11 10 10 10 11 11 11 12 12 11 11 12 12 13 14 14 14 14 14 15 15
23 23 23 22 22 21 18 17 17 16 15 14 13 13 13 13 12 12 11 11 11 11 11 11 11 11 11 11 11 11 12 12 12 12 12 13 13 14 13 14 14 14 14 14
25 24 24 23 23 22 19 18 17 17 16 15 14 14 14 14 14 13 12 12 13 12 12 11 11 12 12 12 12 12 12 12 13 13 12 12 12 13 13 14 15 15 15 15
26 26 25 24 24 23 21 20 19 19 17 16 15 14 14 14 14 13 14 14 14 13 13 12 12 12 12 13 13 13 13 13 13 13 13 13 13 13 14 14 15 15 15 15
27 28 27 26 25 23 22 22 21 20 19 17 16 15 15 14 14 14 14 14 14 14 14 13 13 13 13 13 13 13 14 14 14 14 13 13 13 14 14 15 15 15 15 15
28 27 27 27 26 24 23 23 22 21 20 19 18 17 17 16 15 15 15 15 16 15 15 14 14 14 14 13 14 14 14 14 14 14 14 14 14 14 14 14 15 15 15 16
27 27 27 27 26 24 24 25 24 23 22 21 20 20 19 18 17 17 16 17 17 16 15 15 15 15 15 15 14 14 14 14 14 14 14 14 14 14 14 14 15 16 16 17
28 27 27 27 26 26 25 25 25 25 24 23 22 22 21 21 20 19 18 18 18 17 17 16 16 16 16 16 16 16 16 16 15 15 15 15 15 15 16 16 17 17 17 18
29 29 28 27 27 28 27 26 26 25 25 25 24 24 22 21 21 21 20 20 19 19 18 17 17 17 17 17 17 17 17 17 17 16 16 16 16 17 17 17 18 18 18 19

GEFSCGP_500_meanwind_198.txt.gz
Wind_Speed
6 6 6 7 8 8 8 8 7 8 8 9 9 9 9 10 10 10 10 10 10 10 10 9 8 8 8 8 7 6 6 6 6 6 6 6 5 5 4 4 4 3 3 4
7 7 7 8 8 8 7 7 7 8 8 8 8 8 9 9 9 9 9 10 10 10 10 9 8 8 7 7 7 6 6 5 5 5 5 5 5 5 5 4 3 3 3 3
8 8 8 8 8 8 8 8 7 7 7 7 8 8 8 8 8 8 8 9 9 9 9 9 8 7 6 6 6 7 6 5 5 5 6 6 5 6 5 4 3 2 2 2
8 8 8 8 7 8 8 8 8 8 8 8 8 8 8 8 7 7 8 8 8 8 8 8 7 7 7 7 7 7 7 6 6 6 6 7 6 5 5 4 3 2 2 2
9 9 8 8 7 8 7 7 7 8 8 7 7 8 8 9 8 8 8 8 8 7 8 7 7 7 7 7 7 7 8 7 6 7 7 6 5 5 5 4 3 2 2 2
9 9 9 8 8 8 7 7 6 7 8 7 7 9 9 10 9 8 8 7 8 8 7 7 7 7 7 6 7 7 8 7 7 8 7 6 6 5 5 4 3 3 3 2
9 9 9 9 8 8 8 8 7 7 7 8 9 10 9 9 8 8 7 7 7 7 7 7 7 7 6 7 7 8 8 8 8 7 6 7 7 6 6 5 4 4 4 3
9 10 9 10 10 9 9 9 7 7 7 8 9 9 9 9 8 8 8 8 8 8 8 8 8 8 7 8 8 8 7 7 7 6 6 6 6 6 6 5 5 5 5 4
10 11 10 10 10 10 9 9 9 8 8 9 9 8 8 8 8 8 8 8 8 9 9 9 9 9 9 9 8 8 7 7 7 6 6 7 6 6 7 6 6 6 6 6
12 12 12 11 11 10 10 10 9 9 8 9 9 9 10 9 9 9 9 9 9 9 9 9 9 9 9 8 8 7 7 7 7 7 7 7 7 7 7 7 7 7 7 7
14 14 13 13 12 11 10 10 11 11 10 9 9 9 10 9 9 9 9 9 9 9 8 8 8 9 8 8 8 7 7 8 7 7 7 7 8 8 9 9 8 8 8 8
16 16 15 14 13 13 12 12 12 11 11 11 11 10 10 10 10 10 10 9 9 8 8 8 8 9 8 8 8 8 8 8 8 8 8 9 9 9 9 9 9 9 9 8
18 17 16 15 15 14 13 13 12 12 12 12 11 11 11 11 11 11 10 10 9 8 8 8 8 9 9 9 9 8 8 8 8 8 8 8 8 9 9 9 9 9 9 9
21 19 18 17 16 16 15 14 13 13 13 12 12 12 12 12 11 11 10 10 9 9 9 9 9 9 9 9 10 9 9 9 9 8 8 9 9 9 9 9 9 9 10 10
23 21 20 19 18 18 17 16 15 14 14 14 12 12 12 12 12 11 11 10 10 9 9 9 9 9 10 9 9 9 10 9 9 9 9 9 9 9 9 10 10 10 10 11
24 23 21 20 19 19 19 18 17 15 15 14 13 12 12 12 12 11 11 11 10 10 10 9 9 10 10 10 10 10 10 10 10 10 10 10 10 10 10 10 11 11 12 12
23 24 23 22 21 21 21 18 17 17 16 15 14 13 13 13 13 11 11 11 11 10 10 10 10 10 10 10 10 10 10 10 10 10 11 11 11 11 10 11 12 12 12 13
25 25 24 23 22 23 21 19 19 18 17 16 15 14 14 14 13 12 12 12 11 11 11 11 10 11 11 10 10 10 10 10 10 10 11 11 11 11 11 12 13 12 13 13
26 26 25 24 24 24 22 19 19 19 17 16 16 15 14 14 14 14 12 12 12 12 12 12 12 12 12 11 11 10 10 10 10 11 11 11 12 12 13 13 13 13 13 14
27 27 27 26 26 26 23 20 20 20 19 18 17 16 15 15 15 14 13 12 12 13 13 13 13 13 12 13 12 11 11 11 11 11 11 11 12 12 13 14 14 14 14 14
29 29 29 28 27 27 23 21 21 21 19 19 19 18 16 16 16 15 14 14 13 13 13 13 13 13 13 13 13 13 12 12 12 12 12 12 12 12 13 14 14 15 15 15
30 30 30 28 28 27 24 24 23 22 21 21 20 19 18 17 17 16 15 15 15 15 14 14 14 13 13 13 13 13 13 13 14 14 13 13 14 14 14 14 14 14 15 15
30 30 29 30 28 25 25 26 25 25 24 22 21 21 20 19 19 18 17 17 17 16 16 15 14 14 14 14 14 14 14 15 15 15 15 15 16 15 15 15 15 15 15 15
30 29 29 29 28 27 27 27 26 26 25 24 22 23 22 21 21 20 19 19 18 17 17 17 16 16 15 15 15 15 16 16 16 16 16 17 16 16 16 16 16 16 16 16
30 30 30 31 30 29 29 28 27 27 26 25 25 24 23 22 21 21 21 20 19 18 18 17 17 17 17 17 17 17 17 17 17 17 17 17 17 17 17 17 17 17 17 17
32 32 32 31 31 30 30 30 29 29 28 26 25 24 24 23 22 22 22 21 20 20 19 19 18 18 18 18 18 18 18 19 18 18 18 18 18 18 18 18 18 18 18 18

GEFSCGP_500_meanwind_204.txt.gz
Wind_Speed
5 5 5 5 5 6 6 5 4 4 5 5 5 6 6 6 7 7 6 6 5 5 6 7 7 7 6 6 6 6 6 6 6 5 5 5 5 4 4 3 3 3 3 2
5 5 5 5 6 6 5 4 4 4 5 5 5 6 6 6 6 5 4 4 4 5 6 7 7 6 6 6 5 6 6 5 5 5 5 5 5 4 3 4 3 3 3 2
6 5 6 5 6 5 5 5 5 5 4 5 5 5 5 4 4 4 4 4 4 4 5 7 7 6 6 6 5 6 6 6 6 6 5 5 4 4 4 4 3 3 3 2
6 6 6 6 6 6 6 6 5 5 5 6 6 6 4 4 4 4 4 4 4 4 5 6 6 6 6 6 6 6 6 6 6 6 6 5 4 3 4 4 3 3 3 3
6 6 6 6 6 6 7 7 6 6 6 7 6 6 4 4 4 4 4 4 3 4 5 5 5 6 6 6 6 5 6 6 6 7 6 6 5 4 4 4 4 3 3 3
8 7 7 6 6 7 7 8 8 8 7 6 5 5 4 4 4 4 5 4 3 3 4 5 5 5 6 6 6 6 6 6 7 7 7 7 6 6 6 6 4 4 4 3
8 7 7 7 7 7 7 8 8 8 7 6 6 6 6 5 4 4 4 4 4 4 4 5 5 4 5 6 6 6 6 6 6 7 7 7 6 6 7 6 5 5 5 4
9 8 7 7 7 8 8 8 8 8 8 7 7 6 6 5 5 5 5 4 3 4 5 5 5 5 5 5 6 6 6 6 6 7 8 7 7 6 6 6 6 6 5 5
10 10 9 9 8 8 8 8 8 8 8 8 8 7 7 5 5 5 5 5 4 4 4 5 5 6 5 5 5 6 6 6 6 7 7 7 7 7 6 7 7 6 6 6
12 12 11 10 10 10 10 9 8 9 9 9 9 8 7 6 6 6 6 6 5 4 4 4 5 6 6 6 6 6 6 6 6 7 7 7 7 7 7 7 7 7 7 7
14 14 12 12 11 11 11 10 10 9 9 10 10 9 8 7 7 6 6 5 5 5 5 5 5 5 6 6 6 6 7 7 7 8 7 8 8 8 8 7 7 7 7 7
16 15 14 13 12 12 12 12 11 11 10 10 10 9 8 7 7 7 6 6 5 5 5 5 5 5 6 7 7 7 7 7 7 8 8 8 9 9 8 7 7 7 7 7
18 17 16 15 14 14 13 13 13 12 12 11 11 10 9 8 8 7 6 6 5 5 5 5 5 5 6 7 7 7 7 7 7 7 7 8 9 9 9 9 8 8 8 8
20 20 18 17 16 15 15 14 14 14 13 12 12 11 10 10 9 8 8 7 6 6 6 6 6 5 6 6 6 7 7 7 7 7 8 8 9 9 9 10 10 10 9 9
22 22 21 19 18 17 16 16 15 15 14 14 12 11 11 11 10 9 8 7 7 7 7 6 6 6 6 7 7 7 8 8 8 8 9 9 9 10 10 10 10 10 10 10
24 24 23 21 20 19 19 17 17 16 15 14 13 12 11 11 10 9 8 8 8 7 7 7 7 7 7 8 8 8 8 8 8 9 9 9 9 10 10 10 11 11 11 11
26 26 25 24 23 22 21 18 18 17 16 15 13 12 12 12 11 11 10 9 9 8 7 7 7 7 8 9 9 9 9 9 9 10 10 10 10 10 10 11 11 11 11 11
27 27 27 26 25 25 21 19 19 18 17 16 15 14 13 13 12 12 11 10 9 8 8 8 8 8 8 9 9 9 9 9 10 10 11 11 11 11 11 12 12 12 12 12
28 29 29 28 27 25 22 20 20 20 19 17 17 15 14 13 13 12 11 11 10 10 10 10 9 9 8 9 9 9 9 9 9 10 11 12 12 13 13 13 13 13 13 13
29 29 30 29 28 26 22 20 20 21 21 19 18 17 16 15 14 13 13 12 11 11 11 11 10 10 10 10 10 10 10 10 10 11 11 12 12 12 13 13 14 14 14 14
30 31 31 31 28 26 23 22 22 23 20 20 19 18 17 16 16 15 14 13 12 13 13 12 12 11 11 11 11 11 11 11 11 12 12 13 13 13 13 14 14 14 15 15
30 31 31 30 30 26 23 24 23 21 21 21 20 19 18 18 17 17 16 14 14 14 14 14 13 13 13 13 12 12 13 13 13 13 13 14 14 14 14 14 14 14 14 14
31 31 30 30 28 26 24 24 23 22 22 21 21 21 20 20 19 18 17 17 16 15 15 15 15 14 14 14 14 13 14 15 15 15 15 15 15 16 16 16 16 16 15 15
30 30 30 29 27 26 26 26 24 23 23 22 22 22 22 21 21 20 19 18 18 18 17 17 16 16 15 15 15 15 16 16 16 16 16 16 17 17 18 18 18 18 17 17
29 30 29 29 27 27 27 27 25 24 24 23 23 23 23 22 22 22 21 20 20 20 19 18 17 17 17 17 17 17 17 17 17 17 18 18 18 18 18 19 19 19 19 20
28 29 31 29 27 26 27 28 27 26 25 24 24 24 24 24 24 23 22 22 22 21 21 20 19 19 19 19 18 19 19 18 18 18 19 19 19 19 19 20 20 21 21 21

GEFSCGP_500_meanwind_210.txt.gz
Wind_Speed
6 6 5 6 6 6 6 6 6 7 7 7 7 6 6 6 7 7 7 7 6 7 8 7 7 7 7 6 6 6 7 7 7 7 6 6 6 6 6 6 6 6 5 6
7 6 6 6 6 6 6 7 7 8 8 7 6 7 6 7 7 7 7 7 7 7 6 6 7 7 7 7 6 6 6 5 6 6 6 6 6 5 5 5 5 5 5 5
7 6 6 6 7 7 7 7 8 8 8 8 7 7 7 8 8 8 7 7 6 6 6 5 6 7 7 8 7 6 5 5 5 6 6 6 6 5 5 6 5 5 4 3
8 7 7 7 7 8 8 8 8 9 9 8 8 7 8 8 8 8 7 7 6 6 7 6 7 7 7 7 7 7 6 6 5 5 6 6 5 5 5 5 4 3 3 2
8 8 8 7 7 8 8 8 8 9 9 8 8 8 7 7 8 8 8 7 7 6 6 6 7 7 7 7 6 6 6 6 6 6 6 6 6 5 5 4 3 3 3 3
10 9 9 8 8 9 9 9 9 9 9 8 7 8 6 7 8 8 7 7 7 7 7 7 7 7 6 7 6 6 6 6 6 6 6 6 6 6 5 4 4 4 4 4
10 10 9 10 10 10 10 10 10 10 9 8 8 8 7 8 8 8 8 8 7 7 7 6 6 7 7 7 7 7 7 7 6 6 6 6 6 6 5 5 5 4 4 4
11 11 10 11 11 11 10 11 11 10 9 8 8 8 8 8 8 8 8 8 7 6 6 6 7 7 7 7 7 7 7 8 8 7 7 7 7 6 6 6 6 5 5 4
12 11 11 11 11 11 11 11 11 11 11 10 9 8 8 8 7 7 7 7 7 6 6 6 7 7 7 7 6 6 7 7 8 8 7 7 7 7 7 7 7 6 5 5
14 13 12 12 12 11 12 11 11 12 12 11 9 8 7 7 7 7 7 7 7 7 7 7 7 7 7 7 7 7 7 7 8 8 8 8 8 7 7 7 7 7 7 7
16 15 14 13 12 12 12 12 12 12 12 12 10 8 8 8 9 8 8 8 8 7 7 6 7 7 7 7 7 7 7 7 7 7 8 8 8 8 8 8 7 7 7 7
17 17 16 15 14 13 13 13 13 13 12 13 12 9 9 9 9 9 8 8 8 7 7 6 7 7 7 7 7 7 7 7 8 7 7 7 8 8 8 8 8 8 8 8
19 19 18 17 16 15 15 14 14 14 14 13 12 9 9 10 10 10 9 8 8 7 7 7 7 7 7 7 7 7 7 7 8 8 8 8 8 8 8 8 8 8 9 9
22 21 20 19 17 17 16 16 15 15 15 14 12 10 10 10 10 9 9 9 9 8 8 7 8 7 7 7 7 7 8 8 8 8 8 8 8 8 8 8 8 8 9 9
23 22 21 21 20 19 18 17 17 17 17 16 13 11 10 10 10 10 9 9 9 9 9 9 9 8 8 7 8 7 8 7 7 8 7 8 8 8 9 9 9 9 9 9
25 24 23 23 22 21 21 19 18 18 18 17 15 12 11 12 12 11 10 10 10 10 10 10 10 9 9 8 8 8 8 8 8 8 8 9 9 9 9 9 10 10 10 10
27 26 25 24 23 23 22 20 19 19 18 18 16 14 14 13 13 12 12 11 11 10 11 11 11 10 10 9 9 8 8 8 9 9 9 9 10 10 10 10 10 11 11 11
27 27 27 26 25 25 21 20 20 20 19 19 17 16 15 15 14 14 13 12 12 11 11 11 11 10 10 9 9 9 9 9 9 9 10 10 10 11 11 11 12 12 12 12
28 28 28 28 26 25 23 21 21 21 21 20 19 18 17 17 15 14 14 14 14 13 12 11 11 11 10 10 10 10 10 10 11 10 11 11 12 12 12 12 13 13 14 14
29 29 30 29 28 25 23 23 22 22 20 20 20 20 19 18 17 15 15 16 15 14 13 12 12 12 11 11 11 11 11 11 12 12 12 12 13 13 14 13 14 14 14 15
29 29 30 30 29 26 25 24 24 24 21 21 21 21 20 19 18 17 17 17 17 16 15 14 13 13 12 12 12 12 12 13 13 13 13 13 13 13 14 15 15 15 15 15
30 30 30 30 30 27 26 26 25 24 24 23 23 22 22 21 20 19 19 18 18 18 17 16 15 14 14 13 13 13 12 13 13 14 14 15 15 15 15 16 17 17 17 16
30 30 31 31 30 29 28 26 25 26 25 25 24 24 23 22 21 21 20 20 20 19 19 18 17 16 16 15 15 14 14 15 15 15 16 16 17 17 17 17 18 18 18 17
31 31 32 32 31 30 30 28 27 26 26 26 26 25 24 24 23 22 22 21 21 20 20 20 19 18 18 18 17 17 17 16 17 17 18 18 18 19 18 18 19 19 19 19
30 31 32 31 31 30 29 30 29 29 28 27 27 27 26 26 24 23 23 23 22 21 21 21 21 21 20 20 19 18 18 18 19 19 20 19 19 19 19 20 20 21 21 21
31 31 31 29 29 31 30 30 29 29 28 28 27 27 27 28 26 25 25 24 24 23 23 23 22 22 22 21 20 20 20 21 21 21 21 21 21 21 21 21 21 22 22 23

GEFSCGP_500_meanwind_216.txt.gz
Wind_Speed
5 5 5 5 5 4 4 4 5 5 5 6 6 7 7 7 6 6 7 7 6 6 6 6 7 7 7 7 8 8 8 7 7 7 7 7 7 6 6 6 6 6 6 6
6 5 5 5 5 5 5 5 5 5 5 6 6 7 7 7 7 7 7 7 7 6 6 6 6 6 6 6 6 6 6 6 6 7 7 6 6 6 6 6 6 6 5 5
7 6 6 6 5 5 4 5 6 6 7 7 7 7 6 7 6 7 7 7 7 7 7 7 6 6 5 5 5 5 4 5 5 6 6 6 5 5 5 4 4 4 4 4
7 7 6 6 6 5 5 6 6 6 6 6 6 6 6 6 6 7 7 8 8 7 7 6 6 6 5 5 5 5 5 4 4 5 5 5 5 4 4 4 4 3 3 3
8 7 7 7 6 6 6 6 5 6 6 6 6 6 6 6 7 7 8 8 8 7 6 6 6 6 6 6 6 6 5 5 5 5 5 5 5 4 4 3 3 3 3 3
9 9 8 8 7 7 7 6 6 6 6 6 6 6 6 7 7 8 8 8 7 6 6 6 6 6 6 6 6 6 5 5 5 5 5 5 5 4 4 4 4 4 3 3
10 10 9 8 8 8 8 7 7 7 7 7 7 7 7 8 8 8 7 7 6 6 6 6 6 6 6 6 6 5 5 5 5 5 5 5 4 4 4 4 4 4 4 4
11 11 10 10 9 9 9 8 8 7 7 8 7 7 8 8 8 8 7 6 6 6 6 5 6 5 5 6 6 6 6 5 5 5 5 5 5 5 5 4 4 4 4 4
12 12 11 11 11 11 10 9 9 9 9 8 8 8 8 8 8 8 7 6 5 6 6 6 6 5 6 5 5 5 6 6 5 5 6 6 6 5 5 5 5 4 5 4
13 13 12 12 12 12 11 11 10 10 10 9 9 8 8 8 8 8 7 6 6 6 6 6 5 5 5 5 5 4 5 5 5 5 6 6 6 6 6 6 5 5 5 5
14 14 13 13 12 11 12 12 11 12 11 10 10 9 8 8 8 8 8 7 7 6 6 6 6 5 4 5 5 5 5 6 6 6 6 7 7 7 7 6 5 5 5 5
16 15 15 14 14 13 13 13 13 13 12 12 11 10 10 9 9 9 8 8 7 7 7 7 6 5 5 5 5 5 6 6 6 7 7 7 7 7 7 6 5 5 5 5
17 16 16 16 16 15 15 14 14 14 13 13 12 11 10 10 10 10 9 8 8 8 8 7 6 6 6 6 6 6 6 6 6 6 7 6 6 6 7 6 6 6 6 7
19 19 18 17 18 17 16 16 15 15 14 14 12 11 11 11 11 11 10 9 9 9 8 8 8 7 7 7 7 7 6 6 6 6 6 6 7 7 7 7 7 6 6 7
22 21 20 20 20 19 19 18 17 16 16 15 14 12 12 12 12 11 11 11 10 10 9 9 9 9 8 8 8 7 7 7 6 6 6 7 7 7 8 8 7 7 8 8
24 23 23 22 21 21 21 19 18 17 17 16 15 14 14 14 13 12 12 12 12 11 11 11 10 10 10 9 9 9 8 8 8 7 8 7 7 8 8 9 9 9 8 8
25 25 24 24 23 23 23 20 20 18 18 18 17 16 15 15 14 14 13 13 13 13 13 12 12 11 11 10 10 10 10 9 9 9 8 8 8 8 9 9 9 9 9 9
26 26 26 26 26 26 24 22 21 20 20 20 19 17 16 15 15 15 15 15 14 14 14 14 13 12 12 11 11 11 11 11 10 10 10 9 9 10 9 9 9 9 9 10
26 26 27 27 27 27 25 24 23 22 21 20 20 19 17 16 15 15 16 16 15 15 14 14 14 13 13 12 12 12 12 12 11 11 11 11 11 10 10 10 10 10 10 11
26 26 27 27 28 28 26 25 24 24 23 21 21 20 18 17 17 16 17 17 17 16 16 15 14 14 14 13 13 13 13 13 13 13 12 12 12 12 12 11 12 12 12 12
25 26 27 27 28 28 25 24 24 24 23 22 22 21 20 19 19 18 18 18 18 18 18 17 16 16 15 15 15 15 14 14 14 14 14 14 13 13 14 14 14 13 14 14
26 27 27 28 29 27 25 25 25 25 25 24 24 23 22 22 21 20 20 20 19 19 19 19 18 17 17 17 16 16 16 15 16 16 15 15 15 15 15 16 16 16 16 16
28 29 29 29 29 27 27 26 26 26 26 25 25 25 24 24 23 22 21 21 21 21 21 20 20 19 19 19 18 17 17 16 16 17 17 17 17 17 18 18 18 18 18 18
30 30 30 30 30 29 28 28 28 28 27 26 26 26 25 25 25 25 24 23 23 23 23 22 21 21 20 20 19 19 18 19 19 19 19 19 19 19 19 19 19 20 20 20
30 31 31 31 30 30 29 29 29 29 29 28 27 27 27 27 26 25 25 25 25 25 24 24 23 22 21 21 21 20 20 21 21 21 21 21 21 21 21 21 21 21 22 22
30 31 31 31 30 31 31 31 30 30 30 29 29 29 28 28 28 27 27 27 26 26 26 25 24 24 23 23 22 22 22 22 22 22 22 22 22 23 23 23 22 23 24 23

GEFSCGP_500_meanwind_222.txt.gz
Wind_Speed
8 8 7 7 7 7 7 7 6 7 7 8 8 8 8 8 9 9 9 9 9 9 9 8 8 8 8 8 9 8 9 8 8 8 7 7 7 7 7 7 7 7 6 6
9 8 8 8 7 7 7 8 7 7 8 8 8 9 8 9 9 10 9 10 9 9 9 8 8 8 8 8 8 8 8 7 7 6 6 6 6 6 6 5 5 5 5 5
9 9 8 8 8 8 7 7 7 7 8 8 8 9 9 9 9 9 10 10 9 9 9 9 8 8 7 8 8 8 8 7 6 5 5 5 5 4 5 4 4 4 4 5
10 9 8 8 9 9 8 7 7 7 8 8 8 8 9 9 10 11 11 10 10 10 10 10 8 8 8 8 8 9 7 6 5 4 4 4 4 4 4 4 3 3 4 4
10 10 9 9 8 9 9 8 7 7 7 7 7 8 8 10 10 10 11 11 11 10 10 9 8 8 8 8 8 7 7 6 5 4 4 4 4 4 4 4 3 3 3 3
11 11 10 9 9 9 9 9 8 7 7 7 7 9 9 10 11 11 11 11 11 10 9 8 7 7 7 7 7 7 7 7 5 4 4 4 4 4 4 4 4 4 3 3
12 12 11 10 10 9 9 8 7 7 7 8 9 10 10 10 11 11 12 11 10 9 8 8 7 7 7 7 7 7 7 7 5 5 4 4 4 4 4 4 4 4 3 3
13 13 13 11 10 10 9 9 8 7 7 8 10 12 11 11 11 11 11 11 10 9 9 8 8 7 7 7 7 7 7 7 6 5 5 5 5 5 5 5 5 4 4 4
14 15 15 12 11 11 10 10 9 8 8 8 10 13 13 12 12 12 11 11 10 9 9 9 8 8 7 8 8 7 7 6 5 5 5 5 6 6 5 6 5 5 5 5
16 15 16 15 13 12 12 11 11 10 10 9 10 12 13 13 13 13 12 12 10 9 9 9 8 8 8 8 8 7 7 6 5 5 5 5 5 5 5 6 6 6 5 5
17 17 16 16 14 13 13 13 13 12 11 10 10 12 13 14 14 14 13 12 11 10 9 9 9 9 8 8 8 7 6 6 5 5 5 5 6 6 6 6 6 6 6 5
18 18 17 17 16 15 15 14 14 14 13 12 13 14 14 14 15 14 14 13 12 11 10 10 9 9 9 8 8 8 7 7 6 6 6 7 7 7 7 7 7 7 7 6
20 19 18 18 18 17 16 16 15 15 15 14 14 15 16 15 15 15 14 13 13 12 11 10 9 9 8 8 8 8 8 7 8 7 7 7 7 7 7 7 7 7 8 7
21 21 21 19 19 19 18 17 17 16 16 15 15 15 16 16 16 15 15 14 14 13 11 10 10 10 9 9 9 10 9 8 8 8 8 7 8 8 8 7 7 8 8 8
22 22 22 21 20 20 19 19 19 18 17 17 16 17 17 18 18 17 16 15 15 14 13 12 11 11 11 10 10 10 10 9 9 9 9 9 9 8 8 9 8 8 8 8
23 23 23 23 22 22 22 21 21 20 20 19 19 19 19 18 18 18 17 17 15 15 15 14 13 13 13 12 12 11 11 11 10 10 10 10 10 10 9 9 9 9 9 8
25 24 24 24 23 24 24 22 22 21 21 21 21 20 19 19 18 18 18 18 17 16 16 15 15 14 14 14 13 12 12 12 12 11 11 11 11 11 10 10 10 9 9 9
25 26 26 25 25 25 23 23 23 23 22 22 21 21 20 20 19 19 19 19 18 18 17 17 16 15 15 15 14 14 13 13 13 13 12 12 12 11 11 11 11 11 11 10
26 26 26 26 26 26 24 23 24 24 24 23 23 22 21 21 21 21 20 20 19 19 18 17 16 16 16 16 15 15 14 14 14 14 13 13 13 13 13 12 12 12 12 12
27 27 27 27 27 27 26 25 25 25 25 25 24 23 23 23 23 21 21 20 20 19 19 18 17 17 17 17 17 17 16 15 15 15 15 15 15 14 14 14 14 14 14 13
27 27 28 28 28 28 26 26 25 25 26 25 25 25 24 24 23 22 21 21 21 20 20 20 19 19 19 19 19 18 17 17 17 17 17 16 16 15 15 15 15 15 15 15
29 29 28 28 29 30 28 27 27 27 27 27 26 26 26 25 24 23 22 22 22 22 22 21 21 21 21 20 20 19 19 18 18 18 17 17 17 16 16 16 16 16 16 16
30 29 29 30 31 30 29 29 28 28 29 28 28 28 27 26 25 25 25 24 24 24 23 23 23 22 22 22 22 21 21 20 20 19 19 19 18 18 18 18 18 18 17 18
30 30 31 32 32 30 30 31 30 30 30 30 30 29 28 27 27 26 26 26 26 26 25 25 25 24 23 23 23 23 23 22 22 21 21 21 20 20 20 20 20 20 20 20
32 33 33 34 32 32 32 32 32 32 32 31 31 30 30 30 29 28 27 27 27 27 27 27 26 26 25 25 24 24 24 23 23 23 23 22 22 22 21 22 21 21 22 22
33 34 34 34 33 33 33 32 32 32 32 31 31 31 31 31 30 30 29 29 28 28 28 28 28 27 27 26 26 25 25 25 25 24 24 24 24 24 24 24 24 24 23 23

GEFSCGP_500_meanwind_228.txt.gz
Wind_Speed
8 7 7 7 7 6 5 5 5 4 4 4 4 3 4 5 6 6 7 7 7 7 7 8 7 7 6 6 7 6 5 5 5 5 5 5 5 6 6 6 6 6 6 5
9 8 7 7 7 6 6 6 6 5 4 3 3 3 4 4 5 6 7 7 7 7 7 7 7 7 6 6 6 6 6 6 5 5 5 4 5 4 4 4 4 4 4 4
8 8 8 7 7 6 6 6 5 5 5 5 4 4 4 4 6 6 7 7 6 7 7 7 7 6 6 6 6 6 6 6 5 5 5 4 4 4 3 3 2 2 2 3
9 8 8 7 7 7 7 6 6 6 6 5 4 4 4 5 6 6 7 7 6 7 7 7 7 6 6 6 6 6 6 5 5 4 4 4 4 3 3 2 1 1 2 2
9 9 8 7 7 8 7 7 8 7 6 6 5 5 4 5 5 6 7 7 6 6 7 7 7 7 6 6 6 6 6 5 5 4 4 3 3 3 3 2 2 3 3 2
11 10 9 8 9 8 8 8 8 8 7 7 6 5 4 5 5 5 6 7 7 6 7 7 7 7 7 6 5 5 5 5 5 4 3 3 2 2 2 3 3 3 3 2
12 11 10 9 10 9 9 9 9 9 7 7 6 6 5 4 5 6 6 7 7 7 6 7 7 7 7 6 6 5 5 5 5 4 3 3 3 3 3 3 3 4 4 3
13 12 11 11 10 10 10 10 9 9 8 8 8 7 6 5 5 5 6 7 7 7 6 7 7 7 7 7 6 6 6 6 5 4 4 4 3 3 3 3 3 4 4 3
13 13 12 12 11 11 11 10 10 10 10 11 11 9 8 7 7 6 7 7 7 7 7 6 7 7 7 7 7 6 6 6 5 4 4 4 4 3 3 3 4 4 5 5
15 14 13 13 12 12 12 12 11 11 11 12 11 10 9 9 8 8 8 8 8 8 7 7 6 6 6 7 7 7 6 6 5 4 4 4 4 4 4 4 5 5 5 5
15 15 15 14 14 13 13 14 13 13 13 14 14 12 10 10 10 10 9 8 8 8 8 7 7 6 7 7 7 7 7 6 5 5 5 4 5 5 5 5 5 5 5 5
16 16 16 15 14 14 13 14 14 14 14 15 14 13 11 11 11 11 9 9 8 8 8 8 7 7 7 7 7 7 7 6 6 5 5 5 5 5 5 5 5 6 6 6
17 18 18 17 16 15 15 14 15 15 16 15 15 14 13 13 13 12 11 10 10 10 9 9 9 9 8 7 7 8 8 7 7 7 7 7 7 7 7 7 7 6 6 7
19 19 19 18 17 16 16 16 16 16 17 16 15 15 14 13 13 12 12 12 11 11 10 10 10 10 9 8 8 8 8 8 7 7 8 8 7 7 7 8 8 8 8 7
20 20 19 18 18 18 17 17 17 18 18 18 17 16 15 14 15 14 13 13 12 11 11 11 11 11 10 10 10 9 9 9 8 8 8 9 8 8 8 8 8 8 8 8
21 21 21 20 20 20 19 18 19 19 19 19 19 18 16 15 16 16 15 14 14 13 13 13 13 12 12 12 11 11 11 10 9 9 9 9 9 9 9 9 9 9 9 9
23 23 22 22 22 22 22 20 20 20 20 20 20 19 19 17 16 16 17 16 16 15 15 14 14 14 13 13 13 13 12 11 11 11 10 10 10 11 11 11 10 10 10 10
24 24 24 24 24 25 21 20 21 21 21 21 21 21 20 19 18 18 18 18 18 18 17 16 16 15 15 15 14 14 14 13 13 12 12 12 12 12 12 11 12 11 11 11
26 25 25 25 26 26 23 22 22 22 22 22 22 22 21 20 20 19 19 19 19 19 18 18 17 16 16 15 15 15 14 14 14 13 13 13 12 13 13 13 13 13 13 13
27 27 26 26 26 26 23 22 22 23 22 21 22 22 22 22 21 20 20 20 20 20 20 19 18 18 17 17 16 15 15 15 15 15 14 14 13 14 14 13 14 14 14 14
28 28 28 27 27 25 23 22 23 23 22 22 22 23 23 23 22 21 21 21 21 21 21 21 20 19 19 18 18 17 17 17 17 16 16 16 15 15 16 15 15 15 15 15
28 28 28 28 28 25 23 23 23 23 23 23 24 24 24 23 23 22 22 22 22 23 23 22 22 21 20 20 20 19 19 19 19 19 18 18 17 17 17 17 17 16 16 16
29 29 29 29 28 26 25 25 25 24 24 24 25 25 25 24 24 24 24 24 24 24 24 24 23 23 22 22 22 21 21 20 20 20 20 20 19 19 19 18 19 19 19 18
30 31 31 30 29 28 27 27 27 26 26 25 26 26 25 25 26 25 25 26 25 25 25 25 25 24 23 22 22 23 22 22 22 22 21 21 21 20 20 20 20 20 21 21
31 32 31 30 30 30 30 29 29 29 28 28 27 27 27 27 27 26 26 26 26 26 26 26 27 26 25 24 24 24 24 24 24 24 23 23 22 22 22 22 22 22 22 23
31 31 31 30 30 31 31 30 29 29 29 29 29 29 28 28 27 26 26 27 27 27 27 28 28 27 27 27 26 25 25 25 25 25 25 24 24 24 24 24 24 23 23 24

GEFSCGP_500_meanwind_234.txt.gz
Wind_Speed
9 9 9 9 9 8 7 6 6 7 8 8 7 6 6 6 6 6 6 7 7 7 7 7 7 6 5 5 5 5 6 6 6 5 5 6 6 5 5 5 5 5 4 4
10 10 9 10 9 8 8 7 7 7 8 8 6 6 5 6 6 6 7 7 7 7 7 6 6 6 5 5 5 5 6 5 5 5 5 5 5 5 4 3 3 3 3 3
11 10 10 9 9 8 8 8 8 8 7 7 7 6 6 6 6 7 7 7 7 6 6 5 5 5 5 5 5 6 6 5 6 5 5 5 5 4 4 4 3 3 3 3
12 11 10 10 9 9 9 8 8 8 7 7 6 6 6 7 6 7 7 7 7 6 5 5 5 5 5 5 5 6 6 5 5 5 4 4 4 4 4 4 3 3 3 4
12 11 11 11 10 10 9 9 9 8 8 8 7 7 6 7 6 6 6 6 6 6 5 5 5 5 5 5 5 5 5 5 5 4 4 4 4 4 3 3 3 3 3 4
13 12 12 11 11 11 10 9 9 9 10 9 8 8 7 7 7 7 6 5 5 6 5 5 5 5 5 5 5 5 5 5 5 5 4 4 4 3 3 3 4 4 3 3
14 13 13 12 12 12 11 11 11 11 11 10 9 9 8 8 8 7 6 6 6 6 6 5 5 5 5 5 6 6 5 5 6 5 5 4 4 4 4 4 4 4 4 4
16 15 14 13 13 13 12 12 12 12 11 10 10 9 9 8 8 8 7 6 6 6 6 6 6 6 6 6 6 6 6 5 5 5 5 4 4 5 4 5 5 5 5 5
16 15 15 15 14 14 14 13 13 13 13 12 11 10 8 8 9 8 8 8 7 7 6 6 6 6 6 6 6 6 6 6 6 5 4 4 5 5 5 5 5 5 5 5
16 16 15 15 16 15 15 14 14 14 14 13 12 11 9 9 9 9 9 9 9 8 7 7 6 6 7 7 7 6 6 6 6 5 5 5 5 5 5 5 6 5 5 6
17 17 17 17 16 16 15 15 15 15 15 14 14 12 11 11 11 10 10 10 10 10 9 8 7 7 7 7 7 7 8 8 7 6 6 5 5 5 6 6 6 6 6 6
18 18 18 18 17 16 16 15 15 16 15 15 15 13 13 13 12 12 12 12 11 10 10 9 9 8 8 8 9 9 9 9 8 8 7 6 6 6 6 7 7 6 6 7
19 19 19 19 18 17 16 16 16 16 17 17 17 15 14 14 14 13 13 12 12 12 11 10 10 10 10 10 10 9 9 9 9 8 8 8 7 7 7 7 7 7 8 8
21 21 20 20 18 18 17 17 17 17 17 18 17 16 15 15 15 15 14 13 12 12 12 12 11 11 11 10 10 10 10 10 9 9 9 9 8 8 8 8 8 9 9 9
22 22 21 21 20 19 19 19 19 18 18 18 17 17 17 17 17 16 16 16 15 14 14 14 13 12 12 12 12 11 11 10 10 10 10 9 9 10 10 10 10 10 10 10
23 23 22 22 21 22 22 21 20 20 19 19 18 18 18 19 18 18 17 17 18 17 17 16 15 14 14 13 13 13 12 12 11 11 11 11 10 11 11 11 11 11 11 11
25 24 24 23 23 24 23 22 22 21 21 21 21 20 20 20 20 20 19 19 19 18 18 17 17 17 16 15 14 14 13 13 13 12 12 12 12 12 12 12 12 11 11 11
26 26 26 25 25 26 23 23 23 23 23 23 22 22 22 22 21 21 20 20 20 20 19 19 19 18 17 16 16 15 15 14 13 13 13 13 13 13 13 13 13 12 12 12
27 27 27 26 26 25 23 22 23 24 24 23 22 23 23 23 22 22 21 21 21 21 20 20 20 20 19 19 18 18 17 16 15 15 15 14 14 14 14 14 14 14 14 14
29 29 29 28 27 26 23 23 23 25 23 21 22 22 23 23 22 22 22 22 22 21 21 21 21 21 21 20 20 20 19 18 17 16 16 16 15 15 15 15 15 15 16 15
29 30 30 29 29 29 25 24 25 25 23 22 22 22 23 23 23 23 23 23 22 22 23 23 23 23 22 22 22 22 21 20 19 19 18 18 17 17 17 17 17 17 17 16
30 31 30 30 30 29 26 25 26 25 24 23 22 22 23 23 23 24 24 24 24 24 24 25 25 25 25 24 23 23 22 21 21 21 20 20 19 19 19 19 18 18 18 18
30 30 30 30 30 29 28 27 26 26 26 25 24 23 24 25 25 25 25 25 25 26 26 26 26 26 26 26 25 24 23 23 23 22 22 22 22 21 21 21 20 20 20 20
29 29 29 29 30 29 28 28 28 28 28 27 26 25 25 26 26 26 26 26 26 26 27 27 27 27 27 28 27 27 26 25 25 25 25 24 23 23 23 23 23 22 22 22
28 29 29 30 30 30 29 29 29 29 28 28 28 27 27 27 27 26 26 26 25 26 27 27 28 28 28 29 28 28 28 27 26 26 26 25 24 24 24 25 25 24 24 24
27 28 29 29 29 30 29 29 30 29 29 29 28 28 28 27 26 27 27 26 26 26 26 27 28 29 29 29 29 28 28 28 27 26 26 26 25 25 25 25 26 26 26 26